<?xml version="1.0" encoding="utf-8"?><gpx version="1.0" creator="SportyPal" xmlns:xsi="http://www.w3.org/2001/XMLSchema-instance" xmlns="http://www.topografix.com/GPX/1/0" xsi:schemaLocation="http://www.topografix.com/GPX/1/0 http://www.topografix.com/GPX/1/0/gpx.xsd">
<trk>
<name>SportyPalTrack</name>
<desc>The track description</desc>
<trkseg>
<trkpt lat="32.72301861" lon="35.24396353">
<ele>272.2</ele>
<time>2011-10-29T04:40:38Z</time>
</trkpt>
<trkpt lat="32.723014255" lon="35.24397571">
<ele>275.57500000000005</ele>
<time>2011-10-29T04:40:42Z</time>
</trkpt>
<trkpt lat="32.7230071666667" lon="35.2439712866667">
<ele>263.8666666666666</ele>
<time>2011-10-29T04:40:45Z</time>
</trkpt>
<trkpt lat="32.7230028125" lon="35.2439719425">
<ele>255.675</ele>
<time>2011-10-29T04:40:49Z</time>
</trkpt>
<trkpt lat="32.72301224" lon="35.24400058">
<ele>262.55</ele>
<time>2011-10-29T04:40:53Z</time>
</trkpt>
<trkpt lat="32.723010705" lon="35.24401313">
<ele>267.075</ele>
<time>2011-10-29T04:40:57Z</time>
</trkpt>
<trkpt lat="32.7230106825" lon="35.24401906">
<ele>268.92499999999995</ele>
<time>2011-10-29T04:41:01Z</time>
</trkpt>
<trkpt lat="32.7230129033333" lon="35.2440178466667">
<ele>268.7</ele>
<time>2011-10-29T04:41:04Z</time>
</trkpt>
<trkpt lat="32.7230082775" lon="35.2440094025">
<ele>272.625</ele>
<time>2011-10-29T04:41:08Z</time>
</trkpt>
<trkpt lat="32.7230108325" lon="35.2440024625">
<ele>273.325</ele>
<time>2011-10-29T04:41:12Z</time>
</trkpt>
<trkpt lat="32.72301798" lon="35.2440015025">
<ele>273.42499999999995</ele>
<time>2011-10-29T04:41:16Z</time>
</trkpt>
<trkpt lat="32.7230198375" lon="35.24400151">
<ele>273.475</ele>
<time>2011-10-29T04:41:20Z</time>
</trkpt>
<trkpt lat="32.7230195533333" lon="35.2440013733333">
<ele>273.6</ele>
<time>2011-10-29T04:41:23Z</time>
</trkpt>
<trkpt lat="32.7230195525" lon="35.2440012725">
<ele>273.65000000000003</ele>
<time>2011-10-29T04:41:27Z</time>
</trkpt>
<trkpt lat="32.7230195625" lon="35.244001245">
<ele>273.7</ele>
<time>2011-10-29T04:41:31Z</time>
</trkpt>
<trkpt lat="32.7230195766667" lon="35.2440012366667">
<ele>273.7</ele>
<time>2011-10-29T04:41:34Z</time>
</trkpt>
<trkpt lat="32.7230181" lon="35.24399908">
<ele>274.575</ele>
<time>2011-10-29T04:41:38Z</time>
</trkpt>
<trkpt lat="32.7230163333333" lon="35.2440009966667">
<ele>276.8333333333333</ele>
<time>2011-10-29T04:41:41Z</time>
</trkpt>
<trkpt lat="32.72301695" lon="35.2439996066667">
<ele>277.6666666666667</ele>
<time>2011-10-29T04:41:44Z</time>
</trkpt>
<trkpt lat="32.7230168675" lon="35.24399872">
<ele>278.025</ele>
<time>2011-10-29T04:41:48Z</time>
</trkpt>
<trkpt lat="32.7230167" lon="35.2439982525">
<ele>278.1</ele>
<time>2011-10-29T04:41:52Z</time>
</trkpt>
<trkpt lat="32.7230167" lon="35.2439982966667">
<ele>278.1</ele>
<time>2011-10-29T04:41:55Z</time>
</trkpt>
<trkpt lat="32.7230175125" lon="35.2439973175">
<ele>278.25</ele>
<time>2011-10-29T04:41:59Z</time>
</trkpt>
<trkpt lat="32.72301894" lon="35.2439946566667">
<ele>278.93333333333334</ele>
<time>2011-10-29T04:42:02Z</time>
</trkpt>
<trkpt lat="32.72301827" lon="35.2439955375">
<ele>279.425</ele>
<time>2011-10-29T04:42:06Z</time>
</trkpt>
<trkpt lat="32.7230188175" lon="35.243996235">
<ele>279.95</ele>
<time>2011-10-29T04:42:10Z</time>
</trkpt>
<trkpt lat="32.7230187975" lon="35.2439963525">
<ele>280.0</ele>
<time>2011-10-29T04:42:14Z</time>
</trkpt>
<trkpt lat="32.7230187925" lon="35.24399643">
<ele>280.0</ele>
<time>2011-10-29T04:42:18Z</time>
</trkpt>
<trkpt lat="32.72301877" lon="35.24399647">
<ele>280.0</ele>
<time>2011-10-29T04:42:21Z</time>
</trkpt>
<trkpt lat="32.72301874" lon="35.2439965233333">
<ele>280.0</ele>
<time>2011-10-29T04:42:24Z</time>
</trkpt>
<trkpt lat="32.723018685" lon="35.2439965675">
<ele>280.0</ele>
<time>2011-10-29T04:42:28Z</time>
</trkpt>
<trkpt lat="32.7230186766667" lon="35.2439966233333">
<ele>280.0</ele>
<time>2011-10-29T04:42:31Z</time>
</trkpt>
<trkpt lat="32.72301867" lon="35.2439966766667">
<ele>280.0</ele>
<time>2011-10-29T04:42:34Z</time>
</trkpt>
<trkpt lat="32.723018615" lon="35.24399671">
<ele>280.0</ele>
<time>2011-10-29T04:42:38Z</time>
</trkpt>
<trkpt lat="32.723018555" lon="35.2439966975">
<ele>280.0</ele>
<time>2011-10-29T04:42:42Z</time>
</trkpt>
<trkpt lat="32.7230185225" lon="35.243996695">
<ele>280.0</ele>
<time>2011-10-29T04:42:46Z</time>
</trkpt>
<trkpt lat="32.723017415" lon="35.243998005">
<ele>280.05</ele>
<time>2011-10-29T04:42:50Z</time>
</trkpt>
<trkpt lat="32.7230163733333" lon="35.2440026266667">
<ele>280.23333333333335</ele>
<time>2011-10-29T04:42:53Z</time>
</trkpt>
<trkpt lat="32.7230216375" lon="35.2440031775">
<ele>280.3</ele>
<time>2011-10-29T04:42:57Z</time>
</trkpt>
<trkpt lat="32.7230246825" lon="35.244003935">
<ele>280.3</ele>
<time>2011-10-29T04:43:01Z</time>
</trkpt>
<trkpt lat="32.72302451" lon="35.24400403">
<ele>280.3</ele>
<time>2011-10-29T04:43:04Z</time>
</trkpt>
<trkpt lat="32.7230244525" lon="35.244004105">
<ele>280.3</ele>
<time>2011-10-29T04:43:08Z</time>
</trkpt>
<trkpt lat="32.72302441" lon="35.2440041266667">
<ele>280.3</ele>
<time>2011-10-29T04:43:11Z</time>
</trkpt>
<trkpt lat="32.7230244266667" lon="35.2440041766667">
<ele>280.3</ele>
<time>2011-10-29T04:43:14Z</time>
</trkpt>
<trkpt lat="32.72302444" lon="35.24400423">
<ele>280.3</ele>
<time>2011-10-29T04:43:18Z</time>
</trkpt>
<trkpt lat="32.7230244566667" lon="35.2440042766667">
<ele>280.3</ele>
<time>2011-10-29T04:43:21Z</time>
</trkpt>
<trkpt lat="32.7230244733333" lon="35.2440043133333">
<ele>280.3</ele>
<time>2011-10-29T04:43:24Z</time>
</trkpt>
<trkpt lat="32.7230244725" lon="35.2440043025">
<ele>280.3</ele>
<time>2011-10-29T04:43:28Z</time>
</trkpt>
<trkpt lat="32.7230244733333" lon="35.2440044">
<ele>280.3</ele>
<time>2011-10-29T04:43:31Z</time>
</trkpt>
<trkpt lat="32.7230244733333" lon="35.2440044666667">
<ele>280.3</ele>
<time>2011-10-29T04:43:34Z</time>
</trkpt>
<trkpt lat="32.7230244175" lon="35.244004565">
<ele>280.3</ele>
<time>2011-10-29T04:43:38Z</time>
</trkpt>
<trkpt lat="32.723024245" lon="35.244004725">
<ele>280.3</ele>
<time>2011-10-29T04:43:42Z</time>
</trkpt>
<trkpt lat="32.7230240875" lon="35.2440048925">
<ele>280.3</ele>
<time>2011-10-29T04:43:46Z</time>
</trkpt>
<trkpt lat="32.723023985" lon="35.24400498">
<ele>280.3</ele>
<time>2011-10-29T04:43:50Z</time>
</trkpt>
<trkpt lat="32.72302393" lon="35.244005005">
<ele>280.3</ele>
<time>2011-10-29T04:43:54Z</time>
</trkpt>
<trkpt lat="32.72302388" lon="35.2440050625">
<ele>280.3</ele>
<time>2011-10-29T04:43:58Z</time>
</trkpt>
<trkpt lat="32.7230238175" lon="35.24400512">
<ele>280.3</ele>
<time>2011-10-29T04:44:02Z</time>
</trkpt>
<trkpt lat="32.7230236675" lon="35.244005265">
<ele>280.3</ele>
<time>2011-10-29T04:44:06Z</time>
</trkpt>
<trkpt lat="32.72302352" lon="35.2440053375">
<ele>280.3</ele>
<time>2011-10-29T04:44:10Z</time>
</trkpt>
<trkpt lat="32.7230234075" lon="35.244005375">
<ele>280.3</ele>
<time>2011-10-29T04:44:14Z</time>
</trkpt>
<trkpt lat="32.7230233325" lon="35.24400542">
<ele>280.3</ele>
<time>2011-10-29T04:44:18Z</time>
</trkpt>
<trkpt lat="32.7230231675" lon="35.24400528">
<ele>280.20000000000005</ele>
<time>2011-10-29T04:44:22Z</time>
</trkpt>
<trkpt lat="32.7230220725" lon="35.2440081825">
<ele>280.375</ele>
<time>2011-10-29T04:44:26Z</time>
</trkpt>
<trkpt lat="32.7230181575" lon="35.24401292">
<ele>280.42499999999995</ele>
<time>2011-10-29T04:44:30Z</time>
</trkpt>
<trkpt lat="32.7230133375" lon="35.244014595">
<ele>280.5</ele>
<time>2011-10-29T04:44:34Z</time>
</trkpt>
<trkpt lat="32.7230126925" lon="35.24401428">
<ele>280.5</ele>
<time>2011-10-29T04:44:38Z</time>
</trkpt>
<trkpt lat="32.72301269" lon="35.244014275">
<ele>280.55</ele>
<time>2011-10-29T04:44:42Z</time>
</trkpt>
<trkpt lat="32.7230126525" lon="35.2440142675">
<ele>280.6</ele>
<time>2011-10-29T04:44:46Z</time>
</trkpt>
<trkpt lat="32.72301258" lon="35.2440143">
<ele>280.6</ele>
<time>2011-10-29T04:44:50Z</time>
</trkpt>
<trkpt lat="32.7230125275" lon="35.2440143325">
<ele>280.6</ele>
<time>2011-10-29T04:44:54Z</time>
</trkpt>
<trkpt lat="32.723012525" lon="35.2440143525">
<ele>280.6</ele>
<time>2011-10-29T04:44:58Z</time>
</trkpt>
<trkpt lat="32.7230125" lon="35.2440143825">
<ele>280.6</ele>
<time>2011-10-29T04:45:02Z</time>
</trkpt>
<trkpt lat="32.723012465" lon="35.2440143475">
<ele>280.6</ele>
<time>2011-10-29T04:45:06Z</time>
</trkpt>
<trkpt lat="32.7230124475" lon="35.2440143775">
<ele>280.6</ele>
<time>2011-10-29T04:45:10Z</time>
</trkpt>
<trkpt lat="32.723009205" lon="35.2440136075">
<ele>280.65</ele>
<time>2011-10-29T04:45:14Z</time>
</trkpt>
<trkpt lat="32.722981045" lon="35.2439590625">
<ele>279.225</ele>
<time>2011-10-29T04:45:18Z</time>
</trkpt>
<trkpt lat="32.7230167575" lon="35.24375344">
<ele>275.675</ele>
<time>2011-10-29T04:45:22Z</time>
</trkpt>
<trkpt lat="32.723070285" lon="35.24346397">
<ele>272.79999999999995</ele>
<time>2011-10-29T04:45:26Z</time>
</trkpt>
<trkpt lat="32.7230424975" lon="35.243113435">
<ele>270.45</ele>
<time>2011-10-29T04:45:30Z</time>
</trkpt>
<trkpt lat="32.7229268066667" lon="35.24291915">
<ele>268.06666666666666</ele>
<time>2011-10-29T04:45:33Z</time>
</trkpt>
<trkpt lat="32.722828305" lon="35.2428540425">
<ele>267.575</ele>
<time>2011-10-29T04:45:37Z</time>
</trkpt>
<trkpt lat="32.722697205" lon="35.2427728275">
<ele>265.3</ele>
<time>2011-10-29T04:45:41Z</time>
</trkpt>
<trkpt lat="32.7225775733333" lon="35.24269838">
<ele>262.6</ele>
<time>2011-10-29T04:45:44Z</time>
</trkpt>
<trkpt lat="32.72246743" lon="35.2426432125">
<ele>261.675</ele>
<time>2011-10-29T04:45:48Z</time>
</trkpt>
<trkpt lat="32.722340555" lon="35.2426357375">
<ele>260.975</ele>
<time>2011-10-29T04:45:52Z</time>
</trkpt>
<trkpt lat="32.7221969475" lon="35.242638235">
<ele>259.9</ele>
<time>2011-10-29T04:45:56Z</time>
</trkpt>
<trkpt lat="32.7220462625" lon="35.2426206925">
<ele>258.9</ele>
<time>2011-10-29T04:46:00Z</time>
</trkpt>
<trkpt lat="32.7220642133333" lon="35.24253704">
<ele>256.93333333333334</ele>
<time>2011-10-29T04:46:03Z</time>
</trkpt>
<trkpt lat="32.7221145466667" lon="35.24249073">
<ele>257.09999999999997</ele>
<time>2011-10-29T04:46:06Z</time>
</trkpt>
<trkpt lat="32.7221406575" lon="35.2424816425">
<ele>256.3</ele>
<time>2011-10-29T04:46:10Z</time>
</trkpt>
<trkpt lat="32.72217372" lon="35.24246496">
<ele>255.70000000000002</ele>
<time>2011-10-29T04:46:13Z</time>
</trkpt>
<trkpt lat="32.722199445" lon="35.24245529">
<ele>257.15</ele>
<time>2011-10-29T04:46:17Z</time>
</trkpt>
<trkpt lat="32.722196015" lon="35.242422565">
<ele>255.65</ele>
<time>2011-10-29T04:46:21Z</time>
</trkpt>
<trkpt lat="32.7221631633333" lon="35.24232784">
<ele>254.13333333333335</ele>
<time>2011-10-29T04:46:24Z</time>
</trkpt>
<trkpt lat="32.722157135" lon="35.2422981975">
<ele>253.725</ele>
<time>2011-10-29T04:46:28Z</time>
</trkpt>
<trkpt lat="32.72215317" lon="35.24230698">
<ele>253.60000000000002</ele>
<time>2011-10-29T04:46:32Z</time>
</trkpt>
<trkpt lat="32.7221525725" lon="35.24230828">
<ele>253.625</ele>
<time>2011-10-29T04:46:36Z</time>
</trkpt>
<trkpt lat="32.7221528975" lon="35.24230839">
<ele>253.79999999999998</ele>
<time>2011-10-29T04:46:40Z</time>
</trkpt>
<trkpt lat="32.7221522825" lon="35.242307175">
<ele>253.875</ele>
<time>2011-10-29T04:46:44Z</time>
</trkpt>
<trkpt lat="32.722125025" lon="35.2422724075">
<ele>257.15</ele>
<time>2011-10-29T04:46:48Z</time>
</trkpt>
<trkpt lat="32.7220831525" lon="35.242228485">
<ele>259.42499999999995</ele>
<time>2011-10-29T04:46:52Z</time>
</trkpt>
<trkpt lat="32.72204757" lon="35.242222">
<ele>264.96666666666664</ele>
<time>2011-10-29T04:46:55Z</time>
</trkpt>
<trkpt lat="32.7220410966667" lon="35.2422002766667">
<ele>266.3666666666667</ele>
<time>2011-10-29T04:46:58Z</time>
</trkpt>
<trkpt lat="32.7220382825" lon="35.2422033025">
<ele>267.65000000000003</ele>
<time>2011-10-29T04:47:02Z</time>
</trkpt>
<trkpt lat="32.722033295" lon="35.242214275">
<ele>269.02500000000003</ele>
<time>2011-10-29T04:47:06Z</time>
</trkpt>
<trkpt lat="32.72203275" lon="35.2422240775">
<ele>269.20000000000005</ele>
<time>2011-10-29T04:47:10Z</time>
</trkpt>
<trkpt lat="32.7220326633333" lon="35.24222607">
<ele>269.1</ele>
<time>2011-10-29T04:47:13Z</time>
</trkpt>
<trkpt lat="32.7220327675" lon="35.242226205">
<ele>269.1</ele>
<time>2011-10-29T04:47:17Z</time>
</trkpt>
<trkpt lat="32.722032835" lon="35.24222633">
<ele>269.1</ele>
<time>2011-10-29T04:47:21Z</time>
</trkpt>
<trkpt lat="32.7220328766667" lon="35.24222647">
<ele>269.1</ele>
<time>2011-10-29T04:47:24Z</time>
</trkpt>
<trkpt lat="32.72203296" lon="35.2422266325">
<ele>269.0</ele>
<time>2011-10-29T04:47:28Z</time>
</trkpt>
<trkpt lat="32.7220330366667" lon="35.2422267466667">
<ele>269.0</ele>
<time>2011-10-29T04:47:31Z</time>
</trkpt>
<trkpt lat="32.7220267833333" lon="35.2422051133333">
<ele>268.76666666666665</ele>
<time>2011-10-29T04:47:34Z</time>
</trkpt>
<trkpt lat="32.72201375" lon="35.242192615">
<ele>268.27500000000003</ele>
<time>2011-10-29T04:47:38Z</time>
</trkpt>
<trkpt lat="32.72200946" lon="35.2421927166667">
<ele>267.3666666666666</ele>
<time>2011-10-29T04:47:41Z</time>
</trkpt>
<trkpt lat="32.72200522" lon="35.2421879366667">
<ele>266.8</ele>
<time>2011-10-29T04:47:44Z</time>
</trkpt>
<trkpt lat="32.7220045575" lon="35.2421586325">
<ele>264.32500000000005</ele>
<time>2011-10-29T04:47:48Z</time>
</trkpt>
<trkpt lat="32.7219509333333" lon="35.24207435">
<ele>263.2</ele>
<time>2011-10-29T04:47:51Z</time>
</trkpt>
<trkpt lat="32.72190376" lon="35.2419495133333">
<ele>260.93333333333334</ele>
<time>2011-10-29T04:47:54Z</time>
</trkpt>
<trkpt lat="32.7218586375" lon="35.2417997375">
<ele>257.54999999999995</ele>
<time>2011-10-29T04:47:58Z</time>
</trkpt>
<trkpt lat="32.721788965" lon="35.2416807225">
<ele>256.54999999999995</ele>
<time>2011-10-29T04:48:02Z</time>
</trkpt>
<trkpt lat="32.721695095" lon="35.2415262925">
<ele>254.125</ele>
<time>2011-10-29T04:48:06Z</time>
</trkpt>
<trkpt lat="32.7215764975" lon="35.2413119975">
<ele>247.325</ele>
<time>2011-10-29T04:48:10Z</time>
</trkpt>
<trkpt lat="32.7215283375" lon="35.2411657825">
<ele>243.10000000000002</ele>
<time>2011-10-29T04:48:14Z</time>
</trkpt>
<trkpt lat="32.7214803225" lon="35.241070195">
<ele>240.75</ele>
<time>2011-10-29T04:48:18Z</time>
</trkpt>
<trkpt lat="32.72143813" lon="35.24101193">
<ele>239.23333333333335</ele>
<time>2011-10-29T04:48:21Z</time>
</trkpt>
<trkpt lat="32.721443265" lon="35.24101264">
<ele>241.57500000000002</ele>
<time>2011-10-29T04:48:25Z</time>
</trkpt>
<trkpt lat="32.72144346" lon="35.2410087975">
<ele>241.45</ele>
<time>2011-10-29T04:48:29Z</time>
</trkpt>
<trkpt lat="32.7214356025" lon="35.24101152">
<ele>241.075</ele>
<time>2011-10-29T04:48:33Z</time>
</trkpt>
<trkpt lat="32.721430375" lon="35.241018065">
<ele>240.425</ele>
<time>2011-10-29T04:48:37Z</time>
</trkpt>
<trkpt lat="32.7214212833333" lon="35.2409956166667">
<ele>239.9333333333333</ele>
<time>2011-10-29T04:48:40Z</time>
</trkpt>
<trkpt lat="32.7214231325" lon="35.240968965">
<ele>240.77499999999998</ele>
<time>2011-10-29T04:48:44Z</time>
</trkpt>
<trkpt lat="32.721435775" lon="35.240948975">
<ele>239.8</ele>
<time>2011-10-29T04:48:48Z</time>
</trkpt>
<trkpt lat="32.72145288" lon="35.2409363">
<ele>237.03333333333333</ele>
<time>2011-10-29T04:48:51Z</time>
</trkpt>
<trkpt lat="32.7214592133333" lon="35.24092513">
<ele>235.76666666666665</ele>
<time>2011-10-29T04:48:54Z</time>
</trkpt>
<trkpt lat="32.7214594675" lon="35.2409187175">
<ele>235.92499999999998</ele>
<time>2011-10-29T04:48:58Z</time>
</trkpt>
<trkpt lat="32.7214538425" lon="35.2409099025">
<ele>236.925</ele>
<time>2011-10-29T04:49:02Z</time>
</trkpt>
<trkpt lat="32.72145638" lon="35.2409056366667">
<ele>238.5666666666667</ele>
<time>2011-10-29T04:49:05Z</time>
</trkpt>
<trkpt lat="32.7214492475" lon="35.2409012625">
<ele>236.875</ele>
<time>2011-10-29T04:49:09Z</time>
</trkpt>
<trkpt lat="32.7214545566667" lon="35.24088512">
<ele>232.86666666666665</ele>
<time>2011-10-29T04:49:12Z</time>
</trkpt>
<trkpt lat="32.7214551075" lon="35.2408709925">
<ele>232.0</ele>
<time>2011-10-29T04:49:16Z</time>
</trkpt>
<trkpt lat="32.72145367" lon="35.240865475">
<ele>232.45</ele>
<time>2011-10-29T04:49:20Z</time>
</trkpt>
<trkpt lat="32.7214538625" lon="35.2408676075">
<ele>232.64999999999998</ele>
<time>2011-10-29T04:49:24Z</time>
</trkpt>
<trkpt lat="32.72145454" lon="35.2408659633333">
<ele>231.96666666666667</ele>
<time>2011-10-29T04:49:27Z</time>
</trkpt>
<trkpt lat="32.721450235" lon="35.24085468">
<ele>231.825</ele>
<time>2011-10-29T04:49:31Z</time>
</trkpt>
<trkpt lat="32.7214463575" lon="35.2408480725">
<ele>231.75</ele>
<time>2011-10-29T04:49:35Z</time>
</trkpt>
<trkpt lat="32.7214419575" lon="35.2408155975">
<ele>230.8</ele>
<time>2011-10-29T04:49:39Z</time>
</trkpt>
<trkpt lat="32.7214078" lon="35.24074185">
<ele>229.76666666666665</ele>
<time>2011-10-29T04:49:42Z</time>
</trkpt>
<trkpt lat="32.72135961" lon="35.2406353025">
<ele>228.625</ele>
<time>2011-10-29T04:49:46Z</time>
</trkpt>
<trkpt lat="32.7212915775" lon="35.24048403">
<ele>226.875</ele>
<time>2011-10-29T04:49:50Z</time>
</trkpt>
<trkpt lat="32.7212234766667" lon="35.2403423466667">
<ele>225.16666666666666</ele>
<time>2011-10-29T04:49:53Z</time>
</trkpt>
<trkpt lat="32.72113822" lon="35.24018692">
<ele>223.04999999999998</ele>
<time>2011-10-29T04:49:57Z</time>
</trkpt>
<trkpt lat="32.7210369325" lon="35.2401089175">
<ele>221.95</ele>
<time>2011-10-29T04:50:01Z</time>
</trkpt>
<trkpt lat="32.72100058" lon="35.2400896366667">
<ele>221.70000000000002</ele>
<time>2011-10-29T04:50:04Z</time>
</trkpt>
<trkpt lat="32.7209813225" lon="35.2400812225">
<ele>222.27499999999998</ele>
<time>2011-10-29T04:50:08Z</time>
</trkpt>
<trkpt lat="32.7209729866667" lon="35.24007903">
<ele>222.96666666666667</ele>
<time>2011-10-29T04:50:11Z</time>
</trkpt>
<trkpt lat="32.7209723033333" lon="35.24007811">
<ele>222.9333333333333</ele>
<time>2011-10-29T04:50:14Z</time>
</trkpt>
<trkpt lat="32.720973495" lon="35.240073705">
<ele>223.975</ele>
<time>2011-10-29T04:50:18Z</time>
</trkpt>
<trkpt lat="32.7209725025" lon="35.24007098">
<ele>224.1</ele>
<time>2011-10-29T04:50:22Z</time>
</trkpt>
<trkpt lat="32.7209700633333" lon="35.24006322">
<ele>224.70000000000002</ele>
<time>2011-10-29T04:50:25Z</time>
</trkpt>
<trkpt lat="32.72095602" lon="35.2400580933333">
<ele>225.30000000000004</ele>
<time>2011-10-29T04:50:28Z</time>
</trkpt>
<trkpt lat="32.7209499975" lon="35.2400602925">
<ele>227.95000000000002</ele>
<time>2011-10-29T04:50:32Z</time>
</trkpt>
<trkpt lat="32.7209522766667" lon="35.2400531066667">
<ele>229.4</ele>
<time>2011-10-29T04:50:35Z</time>
</trkpt>
<trkpt lat="32.7209522666667" lon="35.2400533433333">
<ele>229.4333333333333</ele>
<time>2011-10-29T04:50:38Z</time>
</trkpt>
<trkpt lat="32.720949805" lon="35.24004965">
<ele>229.47500000000002</ele>
<time>2011-10-29T04:50:42Z</time>
</trkpt>
<trkpt lat="32.7209516475" lon="35.2400447575">
<ele>229.625</ele>
<time>2011-10-29T04:50:46Z</time>
</trkpt>
<trkpt lat="32.7209543925" lon="35.2400417925">
<ele>230.125</ele>
<time>2011-10-29T04:50:50Z</time>
</trkpt>
<trkpt lat="32.7209544075" lon="35.240027535">
<ele>230.325</ele>
<time>2011-10-29T04:50:54Z</time>
</trkpt>
<trkpt lat="32.7209411075" lon="35.239997995">
<ele>229.65000000000003</ele>
<time>2011-10-29T04:50:58Z</time>
</trkpt>
<trkpt lat="32.7209323966667" lon="35.2399943066667">
<ele>229.1</ele>
<time>2011-10-29T04:51:01Z</time>
</trkpt>
<trkpt lat="32.7209376833333" lon="35.2399857833333">
<ele>229.23333333333335</ele>
<time>2011-10-29T04:51:04Z</time>
</trkpt>
<trkpt lat="32.7209413825" lon="35.23997536">
<ele>228.85000000000002</ele>
<time>2011-10-29T04:51:08Z</time>
</trkpt>
<trkpt lat="32.7209412133333" lon="35.2399722666667">
<ele>228.80000000000004</ele>
<time>2011-10-29T04:51:11Z</time>
</trkpt>
<trkpt lat="32.72094157" lon="35.2399717033333">
<ele>228.80000000000004</ele>
<time>2011-10-29T04:51:14Z</time>
</trkpt>
<trkpt lat="32.720941745" lon="35.239968505">
<ele>228.5</ele>
<time>2011-10-29T04:51:18Z</time>
</trkpt>
<trkpt lat="32.72094828" lon="35.239958705">
<ele>226.675</ele>
<time>2011-10-29T04:51:22Z</time>
</trkpt>
<trkpt lat="32.7209561525" lon="35.23994037">
<ele>224.15000000000003</ele>
<time>2011-10-29T04:51:26Z</time>
</trkpt>
<trkpt lat="32.7209665875" lon="35.23992677">
<ele>222.57500000000002</ele>
<time>2011-10-29T04:51:30Z</time>
</trkpt>
<trkpt lat="32.72096057" lon="35.239927875">
<ele>223.67499999999998</ele>
<time>2011-10-29T04:51:34Z</time>
</trkpt>
<trkpt lat="32.7209589175" lon="35.2399303175">
<ele>224.0</ele>
<time>2011-10-29T04:51:38Z</time>
</trkpt>
<trkpt lat="32.7209590433333" lon="35.2399302566667">
<ele>224.0</ele>
<time>2011-10-29T04:51:41Z</time>
</trkpt>
<trkpt lat="32.7209591133333" lon="35.23993022">
<ele>224.0</ele>
<time>2011-10-29T04:51:44Z</time>
</trkpt>
<trkpt lat="32.72095923" lon="35.2399302425">
<ele>224.0</ele>
<time>2011-10-29T04:51:48Z</time>
</trkpt>
<trkpt lat="32.7209592933333" lon="35.2399304266667">
<ele>224.0</ele>
<time>2011-10-29T04:51:51Z</time>
</trkpt>
<trkpt lat="32.7209587466667" lon="35.2399322333333">
<ele>224.03333333333333</ele>
<time>2011-10-29T04:51:54Z</time>
</trkpt>
<trkpt lat="32.72094858" lon="35.23994052">
<ele>224.125</ele>
<time>2011-10-29T04:51:58Z</time>
</trkpt>
<trkpt lat="32.720945965" lon="35.2399417825">
<ele>224.42499999999998</ele>
<time>2011-10-29T04:52:02Z</time>
</trkpt>
<trkpt lat="32.7209464075" lon="35.2399424075">
<ele>225.5</ele>
<time>2011-10-29T04:52:06Z</time>
</trkpt>
<trkpt lat="32.720946325" lon="35.23994253">
<ele>225.6</ele>
<time>2011-10-29T04:52:10Z</time>
</trkpt>
<trkpt lat="32.7209463566667" lon="35.2399425533333">
<ele>225.6</ele>
<time>2011-10-29T04:52:13Z</time>
</trkpt>
<trkpt lat="32.72094634" lon="35.239942645">
<ele>225.6</ele>
<time>2011-10-29T04:52:17Z</time>
</trkpt>
<trkpt lat="32.7209462575" lon="35.239942805">
<ele>225.6</ele>
<time>2011-10-29T04:52:21Z</time>
</trkpt>
<trkpt lat="32.72094623" lon="35.2399429033333">
<ele>225.6</ele>
<time>2011-10-29T04:52:24Z</time>
</trkpt>
<trkpt lat="32.7209462525" lon="35.2399429375">
<ele>225.6</ele>
<time>2011-10-29T04:52:28Z</time>
</trkpt>
<trkpt lat="32.7209463366667" lon="35.23994307">
<ele>225.6</ele>
<time>2011-10-29T04:52:31Z</time>
</trkpt>
<trkpt lat="32.7209464275" lon="35.2399432">
<ele>225.6</ele>
<time>2011-10-29T04:52:35Z</time>
</trkpt>
<trkpt lat="32.7209461575" lon="35.23994693">
<ele>225.55</ele>
<time>2011-10-29T04:52:39Z</time>
</trkpt>
<trkpt lat="32.7209493433333" lon="35.2399626133333">
<ele>226.29999999999998</ele>
<time>2011-10-29T04:52:42Z</time>
</trkpt>
<trkpt lat="32.72094223" lon="35.2399651933333">
<ele>227.23333333333335</ele>
<time>2011-10-29T04:52:45Z</time>
</trkpt>
<trkpt lat="32.72092182" lon="35.23996656">
<ele>227.65000000000003</ele>
<time>2011-10-29T04:52:49Z</time>
</trkpt>
<trkpt lat="32.72087353" lon="35.2399452466667">
<ele>227.33333333333334</ele>
<time>2011-10-29T04:52:52Z</time>
</trkpt>
<trkpt lat="32.7207911775" lon="35.23986563">
<ele>227.575</ele>
<time>2011-10-29T04:52:56Z</time>
</trkpt>
<trkpt lat="32.72067591" lon="35.2397412425">
<ele>227.9</ele>
<time>2011-10-29T04:53:00Z</time>
</trkpt>
<trkpt lat="32.7205477833333" lon="35.2395992566667">
<ele>227.96666666666667</ele>
<time>2011-10-29T04:53:03Z</time>
</trkpt>
<trkpt lat="32.7204346666667" lon="35.2394717233333">
<ele>230.20000000000002</ele>
<time>2011-10-29T04:53:06Z</time>
</trkpt>
<trkpt lat="32.720335465" lon="35.2393233775">
<ele>229.1</ele>
<time>2011-10-29T04:53:10Z</time>
</trkpt>
<trkpt lat="32.720253845" lon="35.2393061675">
<ele>228.875</ele>
<time>2011-10-29T04:53:14Z</time>
</trkpt>
<trkpt lat="32.7202110775" lon="35.239377785">
<ele>227.625</ele>
<time>2011-10-29T04:53:18Z</time>
</trkpt>
<trkpt lat="32.7201498166667" lon="35.2394489566667">
<ele>225.26666666666665</ele>
<time>2011-10-29T04:53:21Z</time>
</trkpt>
<trkpt lat="32.72007483" lon="35.2395047175">
<ele>224.2</ele>
<time>2011-10-29T04:53:25Z</time>
</trkpt>
<trkpt lat="32.71997104" lon="35.239550235">
<ele>223.45</ele>
<time>2011-10-29T04:53:29Z</time>
</trkpt>
<trkpt lat="32.719877455" lon="35.239606305">
<ele>222.95</ele>
<time>2011-10-29T04:53:33Z</time>
</trkpt>
<trkpt lat="32.719725015" lon="35.2396760725">
<ele>222.875</ele>
<time>2011-10-29T04:53:37Z</time>
</trkpt>
<trkpt lat="32.7195859875" lon="35.23971711">
<ele>225.825</ele>
<time>2011-10-29T04:53:41Z</time>
</trkpt>
<trkpt lat="32.7195107033333" lon="35.2397540666667">
<ele>226.63333333333333</ele>
<time>2011-10-29T04:53:44Z</time>
</trkpt>
<trkpt lat="32.7194240725" lon="35.2398028425">
<ele>225.72500000000002</ele>
<time>2011-10-29T04:53:48Z</time>
</trkpt>
<trkpt lat="32.7193454266667" lon="35.2398600533333">
<ele>225.33333333333334</ele>
<time>2011-10-29T04:53:51Z</time>
</trkpt>
<trkpt lat="32.71928102" lon="35.2399161166667">
<ele>225.0666666666667</ele>
<time>2011-10-29T04:53:54Z</time>
</trkpt>
<trkpt lat="32.719200235" lon="35.2399981675">
<ele>225.85</ele>
<time>2011-10-29T04:53:58Z</time>
</trkpt>
<trkpt lat="32.7191117766667" lon="35.2400820333333">
<ele>225.93333333333337</ele>
<time>2011-10-29T04:54:01Z</time>
</trkpt>
<trkpt lat="32.719019115" lon="35.240163">
<ele>225.575</ele>
<time>2011-10-29T04:54:05Z</time>
</trkpt>
<trkpt lat="32.71893023" lon="35.24024073">
<ele>225.6</ele>
<time>2011-10-29T04:54:08Z</time>
</trkpt>
<trkpt lat="32.7188374425" lon="35.24032387">
<ele>226.15</ele>
<time>2011-10-29T04:54:12Z</time>
</trkpt>
<trkpt lat="32.7187406925" lon="35.2404165375">
<ele>225.8</ele>
<time>2011-10-29T04:54:16Z</time>
</trkpt>
<trkpt lat="32.7186438475" lon="35.240505495">
<ele>225.45</ele>
<time>2011-10-29T04:54:20Z</time>
</trkpt>
<trkpt lat="32.7185520975" lon="35.2405878075">
<ele>225.35</ele>
<time>2011-10-29T04:54:24Z</time>
</trkpt>
<trkpt lat="32.718468975" lon="35.24066475">
<ele>225.175</ele>
<time>2011-10-29T04:54:28Z</time>
</trkpt>
<trkpt lat="32.718378475" lon="35.2407333625">
<ele>224.64999999999998</ele>
<time>2011-10-29T04:54:32Z</time>
</trkpt>
<trkpt lat="32.71830555" lon="35.2407759533333">
<ele>224.33333333333334</ele>
<time>2011-10-29T04:54:35Z</time>
</trkpt>
<trkpt lat="32.71822702" lon="35.2408290975">
<ele>225.275</ele>
<time>2011-10-29T04:54:39Z</time>
</trkpt>
<trkpt lat="32.718131605" lon="35.24088512">
<ele>225.97500000000002</ele>
<time>2011-10-29T04:54:43Z</time>
</trkpt>
<trkpt lat="32.7180336275" lon="35.240931245">
<ele>225.97500000000002</ele>
<time>2011-10-29T04:54:47Z</time>
</trkpt>
<trkpt lat="32.71793299" lon="35.2409833875">
<ele>225.925</ele>
<time>2011-10-29T04:54:51Z</time>
</trkpt>
<trkpt lat="32.7178458166667" lon="35.2410230033333">
<ele>225.9333333333333</ele>
<time>2011-10-29T04:54:54Z</time>
</trkpt>
<trkpt lat="32.717772195" lon="35.2410618">
<ele>226.425</ele>
<time>2011-10-29T04:54:58Z</time>
</trkpt>
<trkpt lat="32.7176927825" lon="35.2411188575">
<ele>226.79999999999998</ele>
<time>2011-10-29T04:55:02Z</time>
</trkpt>
<trkpt lat="32.7176735133333" lon="35.24112926">
<ele>226.0</ele>
<time>2011-10-29T04:55:05Z</time>
</trkpt>
<trkpt lat="32.71765094" lon="35.24111649">
<ele>225.35</ele>
<time>2011-10-29T04:55:09Z</time>
</trkpt>
<trkpt lat="32.71763952" lon="35.24108438">
<ele>226.46666666666667</ele>
<time>2011-10-29T04:55:12Z</time>
</trkpt>
<trkpt lat="32.7176463525" lon="35.241017115">
<ele>227.45000000000002</ele>
<time>2011-10-29T04:55:16Z</time>
</trkpt>
<trkpt lat="32.7176423866667" lon="35.24092628">
<ele>227.9</ele>
<time>2011-10-29T04:55:19Z</time>
</trkpt>
<trkpt lat="32.7176395766667" lon="35.2408336966667">
<ele>229.29999999999998</ele>
<time>2011-10-29T04:55:22Z</time>
</trkpt>
<trkpt lat="32.71765502" lon="35.2407452275">
<ele>231.375</ele>
<time>2011-10-29T04:55:26Z</time>
</trkpt>
<trkpt lat="32.717691775" lon="35.240665085">
<ele>233.15</ele>
<time>2011-10-29T04:55:30Z</time>
</trkpt>
<trkpt lat="32.7177119075" lon="35.240572095">
<ele>234.25</ele>
<time>2011-10-29T04:55:34Z</time>
</trkpt>
<trkpt lat="32.7177183166667" lon="35.24049299">
<ele>234.9666666666667</ele>
<time>2011-10-29T04:55:37Z</time>
</trkpt>
<trkpt lat="32.717728005" lon="35.24041131">
<ele>235.925</ele>
<time>2011-10-29T04:55:41Z</time>
</trkpt>
<trkpt lat="32.7177542775" lon="35.2403197825">
<ele>237.02499999999998</ele>
<time>2011-10-29T04:55:45Z</time>
</trkpt>
<trkpt lat="32.7177842225" lon="35.240233485">
<ele>238.05</ele>
<time>2011-10-29T04:55:49Z</time>
</trkpt>
<trkpt lat="32.7178117033333" lon="35.2401582433333">
<ele>239.63333333333335</ele>
<time>2011-10-29T04:55:52Z</time>
</trkpt>
<trkpt lat="32.7178420566667" lon="35.24009412">
<ele>241.29999999999998</ele>
<time>2011-10-29T04:55:55Z</time>
</trkpt>
<trkpt lat="32.7178807033333" lon="35.2400323033333">
<ele>242.6</ele>
<time>2011-10-29T04:55:58Z</time>
</trkpt>
<trkpt lat="32.71791952" lon="35.239957995">
<ele>243.825</ele>
<time>2011-10-29T04:56:02Z</time>
</trkpt>
<trkpt lat="32.7179634675" lon="35.2398758125">
<ele>244.9</ele>
<time>2011-10-29T04:56:06Z</time>
</trkpt>
<trkpt lat="32.7179881225" lon="35.2397872025">
<ele>245.47500000000002</ele>
<time>2011-10-29T04:56:10Z</time>
</trkpt>
<trkpt lat="32.718003325" lon="35.2396992725">
<ele>246.54999999999998</ele>
<time>2011-10-29T04:56:14Z</time>
</trkpt>
<trkpt lat="32.7180352833333" lon="35.2396259966667">
<ele>247.46666666666667</ele>
<time>2011-10-29T04:56:17Z</time>
</trkpt>
<trkpt lat="32.7180845275" lon="35.239544945">
<ele>247.89999999999998</ele>
<time>2011-10-29T04:56:21Z</time>
</trkpt>
<trkpt lat="32.7181548875" lon="35.23945284">
<ele>248.625</ele>
<time>2011-10-29T04:56:25Z</time>
</trkpt>
<trkpt lat="32.71821839" lon="35.2393640033333">
<ele>248.86666666666667</ele>
<time>2011-10-29T04:56:28Z</time>
</trkpt>
<trkpt lat="32.7182724375" lon="35.23927176">
<ele>249.35</ele>
<time>2011-10-29T04:56:32Z</time>
</trkpt>
<trkpt lat="32.71830974" lon="35.2391850033333">
<ele>249.79999999999998</ele>
<time>2011-10-29T04:56:35Z</time>
</trkpt>
<trkpt lat="32.718345255" lon="35.239106125">
<ele>250.29999999999998</ele>
<time>2011-10-29T04:56:39Z</time>
</trkpt>
<trkpt lat="32.7183793125" lon="35.2390258975">
<ele>251.12499999999997</ele>
<time>2011-10-29T04:56:43Z</time>
</trkpt>
<trkpt lat="32.7183928633333" lon="35.2389512533333">
<ele>251.76666666666665</ele>
<time>2011-10-29T04:56:46Z</time>
</trkpt>
<trkpt lat="32.718395935" lon="35.2388814775">
<ele>252.1</ele>
<time>2011-10-29T04:56:50Z</time>
</trkpt>
<trkpt lat="32.7183924566667" lon="35.2388111866667">
<ele>252.76666666666665</ele>
<time>2011-10-29T04:56:53Z</time>
</trkpt>
<trkpt lat="32.7183924" lon="35.2387528166667">
<ele>253.4</ele>
<time>2011-10-29T04:56:56Z</time>
</trkpt>
<trkpt lat="32.718398865" lon="35.2386982525">
<ele>254.77499999999998</ele>
<time>2011-10-29T04:57:00Z</time>
</trkpt>
<trkpt lat="32.7184042675" lon="35.2386402375">
<ele>255.02499999999998</ele>
<time>2011-10-29T04:57:04Z</time>
</trkpt>
<trkpt lat="32.7184150333333" lon="35.2385826833333">
<ele>255.20000000000002</ele>
<time>2011-10-29T04:57:07Z</time>
</trkpt>
<trkpt lat="32.718434985" lon="35.238521395">
<ele>255.775</ele>
<time>2011-10-29T04:57:11Z</time>
</trkpt>
<trkpt lat="32.71845641" lon="35.2384482425">
<ele>256.475</ele>
<time>2011-10-29T04:57:15Z</time>
</trkpt>
<trkpt lat="32.7184826475" lon="35.23837234">
<ele>256.875</ele>
<time>2011-10-29T04:57:19Z</time>
</trkpt>
<trkpt lat="32.7185267525" lon="35.2382946425">
<ele>257.29999999999995</ele>
<time>2011-10-29T04:57:23Z</time>
</trkpt>
<trkpt lat="32.71857073" lon="35.238218045">
<ele>257.79999999999995</ele>
<time>2011-10-29T04:57:27Z</time>
</trkpt>
<trkpt lat="32.7186031566667" lon="35.2381487233333">
<ele>258.06666666666666</ele>
<time>2011-10-29T04:57:30Z</time>
</trkpt>
<trkpt lat="32.7186310366667" lon="35.2380854733333">
<ele>258.06666666666666</ele>
<time>2011-10-29T04:57:33Z</time>
</trkpt>
<trkpt lat="32.71865575" lon="35.23800258">
<ele>258.70000000000005</ele>
<time>2011-10-29T04:57:37Z</time>
</trkpt>
<trkpt lat="32.7186663866667" lon="35.2379245566667">
<ele>259.40000000000003</ele>
<time>2011-10-29T04:57:40Z</time>
</trkpt>
<trkpt lat="32.7186825733333" lon="35.2378683466667">
<ele>260.03333333333336</ele>
<time>2011-10-29T04:57:43Z</time>
</trkpt>
<trkpt lat="32.7187272925" lon="35.2378083475">
<ele>260.375</ele>
<time>2011-10-29T04:57:47Z</time>
</trkpt>
<trkpt lat="32.718796735" lon="35.2377148275">
<ele>260.0</ele>
<time>2011-10-29T04:57:51Z</time>
</trkpt>
<trkpt lat="32.7188268125" lon="35.23759883">
<ele>260.4</ele>
<time>2011-10-29T04:57:55Z</time>
</trkpt>
<trkpt lat="32.7188137775" lon="35.2375003025">
<ele>260.97499999999997</ele>
<time>2011-10-29T04:57:59Z</time>
</trkpt>
<trkpt lat="32.7188165725" lon="35.2374072675">
<ele>261.45000000000005</ele>
<time>2011-10-29T04:58:03Z</time>
</trkpt>
<trkpt lat="32.718838055" lon="35.2373157425">
<ele>262.15</ele>
<time>2011-10-29T04:58:07Z</time>
</trkpt>
<trkpt lat="32.7188614825" lon="35.2372201025">
<ele>262.275</ele>
<time>2011-10-29T04:58:11Z</time>
</trkpt>
<trkpt lat="32.71888584" lon="35.2371382966667">
<ele>262.1</ele>
<time>2011-10-29T04:58:14Z</time>
</trkpt>
<trkpt lat="32.71890829" lon="35.237061385">
<ele>262.45000000000005</ele>
<time>2011-10-29T04:58:18Z</time>
</trkpt>
<trkpt lat="32.718928885" lon="35.23697325">
<ele>262.54999999999995</ele>
<time>2011-10-29T04:58:22Z</time>
</trkpt>
<trkpt lat="32.7189461433333" lon="35.2368880833333">
<ele>262.7333333333333</ele>
<time>2011-10-29T04:58:25Z</time>
</trkpt>
<trkpt lat="32.7189569066667" lon="35.2368074366667">
<ele>263.1333333333333</ele>
<time>2011-10-29T04:58:28Z</time>
</trkpt>
<trkpt lat="32.7189717525" lon="35.2367104975">
<ele>263.6</ele>
<time>2011-10-29T04:58:32Z</time>
</trkpt>
<trkpt lat="32.71898693" lon="35.2366153666667">
<ele>264.03333333333336</ele>
<time>2011-10-29T04:58:35Z</time>
</trkpt>
<trkpt lat="32.71900453" lon="35.2365260675">
<ele>264.35</ele>
<time>2011-10-29T04:58:39Z</time>
</trkpt>
<trkpt lat="32.7190174125" lon="35.23642759">
<ele>264.8</ele>
<time>2011-10-29T04:58:43Z</time>
</trkpt>
<trkpt lat="32.7190226866667" lon="35.2363498133333">
<ele>265.1666666666667</ele>
<time>2011-10-29T04:58:46Z</time>
</trkpt>
<trkpt lat="32.7190252866667" lon="35.23629695">
<ele>265.3333333333333</ele>
<time>2011-10-29T04:58:49Z</time>
</trkpt>
<trkpt lat="32.71902548" lon="35.23626028">
<ele>265.725</ele>
<time>2011-10-29T04:58:53Z</time>
</trkpt>
<trkpt lat="32.7190236125" lon="35.236248425">
<ele>266.07500000000005</ele>
<time>2011-10-29T04:58:57Z</time>
</trkpt>
<trkpt lat="32.719021025" lon="35.23625347">
<ele>266.475</ele>
<time>2011-10-29T04:59:01Z</time>
</trkpt>
<trkpt lat="32.7190192633333" lon="35.2362516833333">
<ele>266.53333333333336</ele>
<time>2011-10-29T04:59:04Z</time>
</trkpt>
<trkpt lat="32.71901927" lon="35.2362506875">
<ele>266.15</ele>
<time>2011-10-29T04:59:08Z</time>
</trkpt>
<trkpt lat="32.71902228" lon="35.2362544366667">
<ele>265.9</ele>
<time>2011-10-29T04:59:11Z</time>
</trkpt>
<trkpt lat="32.7190215366667" lon="35.2362509733333">
<ele>265.76666666666665</ele>
<time>2011-10-29T04:59:14Z</time>
</trkpt>
<trkpt lat="32.719021345" lon="35.2362526875">
<ele>266.175</ele>
<time>2011-10-29T04:59:18Z</time>
</trkpt>
<trkpt lat="32.719021475" lon="35.236252505">
<ele>266.2</ele>
<time>2011-10-29T04:59:22Z</time>
</trkpt>
<trkpt lat="32.7190206675" lon="35.23625168">
<ele>266.22499999999997</ele>
<time>2011-10-29T04:59:26Z</time>
</trkpt>
<trkpt lat="32.7190175033333" lon="35.2362524566667">
<ele>266.23333333333335</ele>
<time>2011-10-29T04:59:29Z</time>
</trkpt>
<trkpt lat="32.7190168525" lon="35.236253855">
<ele>265.95</ele>
<time>2011-10-29T04:59:33Z</time>
</trkpt>
<trkpt lat="32.7190215033333" lon="35.2362574333333">
<ele>265.8</ele>
<time>2011-10-29T04:59:36Z</time>
</trkpt>
<trkpt lat="32.71902126" lon="35.2362559633333">
<ele>265.3333333333333</ele>
<time>2011-10-29T04:59:39Z</time>
</trkpt>
<trkpt lat="32.71902105" lon="35.2362565375">
<ele>265.32500000000005</ele>
<time>2011-10-29T04:59:43Z</time>
</trkpt>
<trkpt lat="32.71902361" lon="35.2362556">
<ele>265.25</ele>
<time>2011-10-29T04:59:47Z</time>
</trkpt>
<trkpt lat="32.71902315" lon="35.2362544">
<ele>265.6</ele>
<time>2011-10-29T04:59:50Z</time>
</trkpt>
<trkpt lat="32.71902157" lon="35.2362531025">
<ele>265.825</ele>
<time>2011-10-29T04:59:54Z</time>
</trkpt>
<trkpt lat="32.7190215766667" lon="35.2362504266667">
<ele>265.93333333333334</ele>
<time>2011-10-29T04:59:57Z</time>
</trkpt>
<trkpt lat="32.7190271225" lon="35.2362508375">
<ele>266.35</ele>
<time>2011-10-29T05:00:01Z</time>
</trkpt>
<trkpt lat="32.7190281066667" lon="35.2362486933333">
<ele>266.43333333333334</ele>
<time>2011-10-29T05:00:04Z</time>
</trkpt>
<trkpt lat="32.7190284775" lon="35.23624779">
<ele>265.975</ele>
<time>2011-10-29T05:00:08Z</time>
</trkpt>
<trkpt lat="32.719027225" lon="35.236247355">
<ele>265.975</ele>
<time>2011-10-29T05:00:12Z</time>
</trkpt>
<trkpt lat="32.71902721" lon="35.23624737">
<ele>266.0</ele>
<time>2011-10-29T05:00:15Z</time>
</trkpt>
<trkpt lat="32.7190272225" lon="35.2362473575">
<ele>265.92499999999995</ele>
<time>2011-10-29T05:00:19Z</time>
</trkpt>
<trkpt lat="32.7190272725" lon="35.2362473225">
<ele>265.9</ele>
<time>2011-10-29T05:00:23Z</time>
</trkpt>
<trkpt lat="32.7190273" lon="35.2362472933333">
<ele>265.9</ele>
<time>2011-10-29T05:00:26Z</time>
</trkpt>
<trkpt lat="32.7190273" lon="35.23624724">
<ele>265.9</ele>
<time>2011-10-29T05:00:29Z</time>
</trkpt>
<trkpt lat="32.7190273" lon="35.23624718">
<ele>265.9</ele>
<time>2011-10-29T05:00:33Z</time>
</trkpt>
<trkpt lat="32.7190273466667" lon="35.2362472166667">
<ele>265.9</ele>
<time>2011-10-29T05:00:36Z</time>
</trkpt>
<trkpt lat="32.7190274033333" lon="35.2362472466667">
<ele>265.9</ele>
<time>2011-10-29T05:00:39Z</time>
</trkpt>
<trkpt lat="32.71902743" lon="35.2362472275">
<ele>265.9</ele>
<time>2011-10-29T05:00:43Z</time>
</trkpt>
<trkpt lat="32.71902748" lon="35.2362471533333">
<ele>265.9</ele>
<time>2011-10-29T05:00:46Z</time>
</trkpt>
<trkpt lat="32.71902753" lon="35.2362471166667">
<ele>265.9</ele>
<time>2011-10-29T05:00:49Z</time>
</trkpt>
<trkpt lat="32.7190275875" lon="35.23624709">
<ele>265.9</ele>
<time>2011-10-29T05:00:53Z</time>
</trkpt>
<trkpt lat="32.71902758" lon="35.2362470266667">
<ele>265.9</ele>
<time>2011-10-29T05:00:56Z</time>
</trkpt>
<trkpt lat="32.7190275466667" lon="35.2362470033333">
<ele>265.9</ele>
<time>2011-10-29T05:00:59Z</time>
</trkpt>
<trkpt lat="32.7190275375" lon="35.23624702">
<ele>265.9</ele>
<time>2011-10-29T05:01:03Z</time>
</trkpt>
<trkpt lat="32.7190276133333" lon="35.23624706">
<ele>265.9</ele>
<time>2011-10-29T05:01:06Z</time>
</trkpt>
<trkpt lat="32.719027675" lon="35.23624707">
<ele>265.9</ele>
<time>2011-10-29T05:01:10Z</time>
</trkpt>
<trkpt lat="32.7190277566667" lon="35.2362471233333">
<ele>265.9</ele>
<time>2011-10-29T05:01:13Z</time>
</trkpt>
<trkpt lat="32.7190277575" lon="35.23624715">
<ele>265.9</ele>
<time>2011-10-29T05:01:17Z</time>
</trkpt>
<trkpt lat="32.7190276975" lon="35.23624711">
<ele>265.9</ele>
<time>2011-10-29T05:01:21Z</time>
</trkpt>
<trkpt lat="32.7190276666667" lon="35.2362470533333">
<ele>265.9</ele>
<time>2011-10-29T05:01:24Z</time>
</trkpt>
<trkpt lat="32.7190276375" lon="35.236246995">
<ele>265.9</ele>
<time>2011-10-29T05:01:28Z</time>
</trkpt>
<trkpt lat="32.7190276266667" lon="35.2362469966667">
<ele>265.9</ele>
<time>2011-10-29T05:01:31Z</time>
</trkpt>
<trkpt lat="32.71902763" lon="35.2362469866667">
<ele>265.9</ele>
<time>2011-10-29T05:01:34Z</time>
</trkpt>
<trkpt lat="32.7190276333333" lon="35.2362469666667">
<ele>265.9</ele>
<time>2011-10-29T05:01:37Z</time>
</trkpt>
<trkpt lat="32.719031985" lon="35.2362477375">
<ele>265.34999999999997</ele>
<time>2011-10-29T05:01:41Z</time>
</trkpt>
<trkpt lat="32.7190311066667" lon="35.2362441">
<ele>264.90000000000003</ele>
<time>2011-10-29T05:01:44Z</time>
</trkpt>
<trkpt lat="32.719026335" lon="35.236245755">
<ele>265.75</ele>
<time>2011-10-29T05:01:48Z</time>
</trkpt>
<trkpt lat="32.7190235675" lon="35.236247315">
<ele>266.225</ele>
<time>2011-10-29T05:01:52Z</time>
</trkpt>
<trkpt lat="32.7190210433333" lon="35.2362459966667">
<ele>266.09999999999997</ele>
<time>2011-10-29T05:01:55Z</time>
</trkpt>
<trkpt lat="32.719019125" lon="35.2362457225">
<ele>266.0</ele>
<time>2011-10-29T05:01:59Z</time>
</trkpt>
<trkpt lat="32.7190199866667" lon="35.2362449066667">
<ele>265.90000000000003</ele>
<time>2011-10-29T05:02:02Z</time>
</trkpt>
<trkpt lat="32.71902234" lon="35.2362392866667">
<ele>265.9</ele>
<time>2011-10-29T05:02:05Z</time>
</trkpt>
<trkpt lat="32.7190121875" lon="35.2362252125">
<ele>265.275</ele>
<time>2011-10-29T05:02:09Z</time>
</trkpt>
<trkpt lat="32.71901077" lon="35.23621666">
<ele>264.6</ele>
<time>2011-10-29T05:02:13Z</time>
</trkpt>
<trkpt lat="32.71901485" lon="35.2362110233333">
<ele>264.73333333333335</ele>
<time>2011-10-29T05:02:16Z</time>
</trkpt>
<trkpt lat="32.7190127633333" lon="35.2362083466667">
<ele>265.46666666666664</ele>
<time>2011-10-29T05:02:19Z</time>
</trkpt>
<trkpt lat="32.7190114633333" lon="35.2362075033333">
<ele>265.6</ele>
<time>2011-10-29T05:02:22Z</time>
</trkpt>
<trkpt lat="32.7190117575" lon="35.23620757">
<ele>265.6</ele>
<time>2011-10-29T05:02:26Z</time>
</trkpt>
<trkpt lat="32.7190150466667" lon="35.2362076233333">
<ele>265.6</ele>
<time>2011-10-29T05:02:29Z</time>
</trkpt>
<trkpt lat="32.71901819" lon="35.23620767">
<ele>265.56666666666666</ele>
<time>2011-10-29T05:02:32Z</time>
</trkpt>
<trkpt lat="32.719019455" lon="35.2362069075">
<ele>265.4</ele>
<time>2011-10-29T05:02:36Z</time>
</trkpt>
<trkpt lat="32.7190225875" lon="35.236205545">
<ele>265.275</ele>
<time>2011-10-29T05:02:40Z</time>
</trkpt>
<trkpt lat="32.7190219075" lon="35.2362084325">
<ele>264.75</ele>
<time>2011-10-29T05:02:44Z</time>
</trkpt>
<trkpt lat="32.719019715" lon="35.2362090675">
<ele>264.6</ele>
<time>2011-10-29T05:02:48Z</time>
</trkpt>
<trkpt lat="32.7190198175" lon="35.23620909">
<ele>264.6</ele>
<time>2011-10-29T05:02:52Z</time>
</trkpt>
<trkpt lat="32.71901988" lon="35.2362090225">
<ele>264.6</ele>
<time>2011-10-29T05:02:56Z</time>
</trkpt>
<trkpt lat="32.7190198825" lon="35.23620901">
<ele>264.6</ele>
<time>2011-10-29T05:03:00Z</time>
</trkpt>
<trkpt lat="32.7190198275" lon="35.23620901">
<ele>264.6</ele>
<time>2011-10-29T05:03:04Z</time>
</trkpt>
<trkpt lat="32.7190198233333" lon="35.23620903">
<ele>264.6</ele>
<time>2011-10-29T05:03:07Z</time>
</trkpt>
<trkpt lat="32.7190198433333" lon="35.23620903">
<ele>264.6</ele>
<time>2011-10-29T05:03:10Z</time>
</trkpt>
<trkpt lat="32.7190198925" lon="35.2362090375">
<ele>264.6</ele>
<time>2011-10-29T05:03:14Z</time>
</trkpt>
<trkpt lat="32.7190199466667" lon="35.2362090866667">
<ele>264.6</ele>
<time>2011-10-29T05:03:17Z</time>
</trkpt>
<trkpt lat="32.7190199475" lon="35.236209095">
<ele>264.6</ele>
<time>2011-10-29T05:03:21Z</time>
</trkpt>
<trkpt lat="32.7190199333333" lon="35.23620909">
<ele>264.6</ele>
<time>2011-10-29T05:03:24Z</time>
</trkpt>
<trkpt lat="32.719019925" lon="35.2362090875">
<ele>264.6</ele>
<time>2011-10-29T05:03:28Z</time>
</trkpt>
<trkpt lat="32.7190199375" lon="35.2362090625">
<ele>264.6</ele>
<time>2011-10-29T05:03:32Z</time>
</trkpt>
<trkpt lat="32.7190199675" lon="35.23620904">
<ele>264.6</ele>
<time>2011-10-29T05:03:36Z</time>
</trkpt>
<trkpt lat="32.71901999" lon="35.23620903">
<ele>264.6</ele>
<time>2011-10-29T05:03:40Z</time>
</trkpt>
<trkpt lat="32.7190199966667" lon="35.2362090266667">
<ele>264.6</ele>
<time>2011-10-29T05:03:43Z</time>
</trkpt>
<trkpt lat="32.7190200125" lon="35.2362089825">
<ele>264.6</ele>
<time>2011-10-29T05:03:47Z</time>
</trkpt>
<trkpt lat="32.7190200775" lon="35.236209">
<ele>264.6</ele>
<time>2011-10-29T05:03:51Z</time>
</trkpt>
<trkpt lat="32.7190200766667" lon="35.23620903">
<ele>264.6</ele>
<time>2011-10-29T05:03:54Z</time>
</trkpt>
<trkpt lat="32.7190200725" lon="35.2362090375">
<ele>264.6</ele>
<time>2011-10-29T05:03:58Z</time>
</trkpt>
<trkpt lat="32.7190201133333" lon="35.23620903">
<ele>264.6</ele>
<time>2011-10-29T05:04:01Z</time>
</trkpt>
<trkpt lat="32.71902015" lon="35.2362089966667">
<ele>264.6</ele>
<time>2011-10-29T05:04:04Z</time>
</trkpt>
<trkpt lat="32.719020175" lon="35.236208945">
<ele>264.6</ele>
<time>2011-10-29T05:04:08Z</time>
</trkpt>
<trkpt lat="32.71902015" lon="35.2362089275">
<ele>264.6</ele>
<time>2011-10-29T05:04:12Z</time>
</trkpt>
<trkpt lat="32.719020165" lon="35.23620893">
<ele>264.6</ele>
<time>2011-10-29T05:04:16Z</time>
</trkpt>
<trkpt lat="32.7190202466667" lon="35.2362089266667">
<ele>264.6</ele>
<time>2011-10-29T05:04:19Z</time>
</trkpt>
<trkpt lat="32.719020295" lon="35.236208925">
<ele>264.6</ele>
<time>2011-10-29T05:04:23Z</time>
</trkpt>
<trkpt lat="32.7190203133333" lon="35.2362089166667">
<ele>264.6</ele>
<time>2011-10-29T05:04:26Z</time>
</trkpt>
<trkpt lat="32.7190169825" lon="35.23620976">
<ele>264.55</ele>
<time>2011-10-29T05:04:30Z</time>
</trkpt>
<trkpt lat="32.71898149" lon="35.2362243533333">
<ele>264.3333333333333</ele>
<time>2011-10-29T05:04:33Z</time>
</trkpt>
<trkpt lat="32.71894669" lon="35.236261285">
<ele>263.975</ele>
<time>2011-10-29T05:04:37Z</time>
</trkpt>
<trkpt lat="32.7188957333333" lon="35.23631946">
<ele>263.90000000000003</ele>
<time>2011-10-29T05:04:40Z</time>
</trkpt>
<trkpt lat="32.7188499866667" lon="35.2363871133333">
<ele>263.53333333333336</ele>
<time>2011-10-29T05:04:43Z</time>
</trkpt>
<trkpt lat="32.718798745" lon="35.2364388125">
<ele>264.25</ele>
<time>2011-10-29T05:04:47Z</time>
</trkpt>
<trkpt lat="32.7187453975" lon="35.236502795">
<ele>264.82500000000005</ele>
<time>2011-10-29T05:04:51Z</time>
</trkpt>
<trkpt lat="32.7187023366667" lon="35.2365728533333">
<ele>265.3333333333333</ele>
<time>2011-10-29T05:04:54Z</time>
</trkpt>
<trkpt lat="32.71865056" lon="35.2366250475">
<ele>265.45</ele>
<time>2011-10-29T05:04:58Z</time>
</trkpt>
<trkpt lat="32.7185993333333" lon="35.2366772">
<ele>265.93333333333334</ele>
<time>2011-10-29T05:05:01Z</time>
</trkpt>
<trkpt lat="32.71856814" lon="35.2367308533333">
<ele>266.7</ele>
<time>2011-10-29T05:05:04Z</time>
</trkpt>
<trkpt lat="32.71852773" lon="35.23678616">
<ele>267.275</ele>
<time>2011-10-29T05:05:08Z</time>
</trkpt>
<trkpt lat="32.7184821466667" lon="35.23682776">
<ele>267.9</ele>
<time>2011-10-29T05:05:11Z</time>
</trkpt>
<trkpt lat="32.7184349866667" lon="35.23688378">
<ele>268.7</ele>
<time>2011-10-29T05:05:14Z</time>
</trkpt>
<trkpt lat="32.718394625" lon="35.2369430975">
<ele>269.275</ele>
<time>2011-10-29T05:05:18Z</time>
</trkpt>
<trkpt lat="32.71835854" lon="35.23700692">
<ele>269.85</ele>
<time>2011-10-29T05:05:22Z</time>
</trkpt>
<trkpt lat="32.718341845" lon="35.2370383">
<ele>269.675</ele>
<time>2011-10-29T05:05:26Z</time>
</trkpt>
<trkpt lat="32.71834098" lon="35.2370456">
<ele>269.475</ele>
<time>2011-10-29T05:05:30Z</time>
</trkpt>
<trkpt lat="32.71834215" lon="35.2370517233333">
<ele>269.3333333333333</ele>
<time>2011-10-29T05:05:33Z</time>
</trkpt>
<trkpt lat="32.7183326025" lon="35.2370616775">
<ele>269.5</ele>
<time>2011-10-29T05:05:37Z</time>
</trkpt>
<trkpt lat="32.7183000025" lon="35.2371031125">
<ele>269.75</ele>
<time>2011-10-29T05:05:41Z</time>
</trkpt>
<trkpt lat="32.71825472" lon="35.2371438933333">
<ele>269.90000000000003</ele>
<time>2011-10-29T05:05:44Z</time>
</trkpt>
<trkpt lat="32.718199195" lon="35.237196195">
<ele>269.9</ele>
<time>2011-10-29T05:05:48Z</time>
</trkpt>
<trkpt lat="32.71814383" lon="35.237250145">
<ele>270.32500000000005</ele>
<time>2011-10-29T05:05:52Z</time>
</trkpt>
<trkpt lat="32.718078655" lon="35.2373002875">
<ele>271.125</ele>
<time>2011-10-29T05:05:56Z</time>
</trkpt>
<trkpt lat="32.7180008625" lon="35.237355315">
<ele>271.05</ele>
<time>2011-10-29T05:06:00Z</time>
</trkpt>
<trkpt lat="32.71793964" lon="35.23739297">
<ele>271.3333333333333</ele>
<time>2011-10-29T05:06:03Z</time>
</trkpt>
<trkpt lat="32.7178857875" lon="35.237445605">
<ele>271.5</ele>
<time>2011-10-29T05:06:07Z</time>
</trkpt>
<trkpt lat="32.71782921" lon="35.2374947333333">
<ele>271.73333333333335</ele>
<time>2011-10-29T05:06:10Z</time>
</trkpt>
<trkpt lat="32.7177759725" lon="35.23752937">
<ele>272.475</ele>
<time>2011-10-29T05:06:14Z</time>
</trkpt>
<trkpt lat="32.7177193575" lon="35.237565755">
<ele>273.075</ele>
<time>2011-10-29T05:06:18Z</time>
</trkpt>
<trkpt lat="32.7176382025" lon="35.237617515">
<ele>273.1</ele>
<time>2011-10-29T05:06:22Z</time>
</trkpt>
<trkpt lat="32.717580085" lon="35.2376694775">
<ele>273.05</ele>
<time>2011-10-29T05:06:26Z</time>
</trkpt>
<trkpt lat="32.7175223475" lon="35.23770818">
<ele>272.975</ele>
<time>2011-10-29T05:06:30Z</time>
</trkpt>
<trkpt lat="32.7174573075" lon="35.237735095">
<ele>273.275</ele>
<time>2011-10-29T05:06:34Z</time>
</trkpt>
<trkpt lat="32.7173942075" lon="35.2377791525">
<ele>273.675</ele>
<time>2011-10-29T05:06:38Z</time>
</trkpt>
<trkpt lat="32.71734849" lon="35.2378258033333">
<ele>274.59999999999997</ele>
<time>2011-10-29T05:06:41Z</time>
</trkpt>
<trkpt lat="32.7172879866667" lon="35.23785339">
<ele>275.3333333333333</ele>
<time>2011-10-29T05:06:44Z</time>
</trkpt>
<trkpt lat="32.7172167775" lon="35.237886295">
<ele>276.05</ele>
<time>2011-10-29T05:06:48Z</time>
</trkpt>
<trkpt lat="32.71713927" lon="35.23793898">
<ele>275.925</ele>
<time>2011-10-29T05:06:52Z</time>
</trkpt>
<trkpt lat="32.71707712" lon="35.2379993966667">
<ele>276.1666666666667</ele>
<time>2011-10-29T05:06:55Z</time>
</trkpt>
<trkpt lat="32.717018395" lon="35.2380725875">
<ele>276.29999999999995</ele>
<time>2011-10-29T05:06:59Z</time>
</trkpt>
<trkpt lat="32.7169606233333" lon="35.2381429166667">
<ele>276.20000000000005</ele>
<time>2011-10-29T05:07:02Z</time>
</trkpt>
<trkpt lat="32.716894395" lon="35.2382003275">
<ele>275.875</ele>
<time>2011-10-29T05:07:06Z</time>
</trkpt>
<trkpt lat="32.716815055" lon="35.23823855">
<ele>276.65</ele>
<time>2011-10-29T05:07:10Z</time>
</trkpt>
<trkpt lat="32.7167571425" lon="35.238200545">
<ele>277.42499999999995</ele>
<time>2011-10-29T05:07:14Z</time>
</trkpt>
<trkpt lat="32.71670296" lon="35.2381755">
<ele>277.8</ele>
<time>2011-10-29T05:07:18Z</time>
</trkpt>
<trkpt lat="32.71665552" lon="35.2381788966667">
<ele>278.23333333333335</ele>
<time>2011-10-29T05:07:21Z</time>
</trkpt>
<trkpt lat="32.7166131366667" lon="35.2381763733333">
<ele>278.3</ele>
<time>2011-10-29T05:07:24Z</time>
</trkpt>
<trkpt lat="32.7165656125" lon="35.2381667975">
<ele>278.475</ele>
<time>2011-10-29T05:07:28Z</time>
</trkpt>
<trkpt lat="32.71652015" lon="35.2381393675">
<ele>279.05</ele>
<time>2011-10-29T05:07:32Z</time>
</trkpt>
<trkpt lat="32.7164828875" lon="35.238118425">
<ele>279.725</ele>
<time>2011-10-29T05:07:36Z</time>
</trkpt>
<trkpt lat="32.7164479125" lon="35.2381075175">
<ele>280.275</ele>
<time>2011-10-29T05:07:40Z</time>
</trkpt>
<trkpt lat="32.7164383275" lon="35.23807115">
<ele>281.20000000000005</ele>
<time>2011-10-29T05:07:44Z</time>
</trkpt>
<trkpt lat="32.7164213925" lon="35.2380351">
<ele>281.975</ele>
<time>2011-10-29T05:07:48Z</time>
</trkpt>
<trkpt lat="32.7163948566667" lon="35.23803304">
<ele>281.76666666666665</ele>
<time>2011-10-29T05:07:51Z</time>
</trkpt>
<trkpt lat="32.71638812" lon="35.2380517033333">
<ele>281.6666666666667</ele>
<time>2011-10-29T05:07:54Z</time>
</trkpt>
<trkpt lat="32.7163909375" lon="35.23805965">
<ele>281.4</ele>
<time>2011-10-29T05:07:58Z</time>
</trkpt>
<trkpt lat="32.71639309" lon="35.2380599625">
<ele>281.3</ele>
<time>2011-10-29T05:08:02Z</time>
</trkpt>
<trkpt lat="32.7163935175" lon="35.23806207">
<ele>281.2</ele>
<time>2011-10-29T05:08:06Z</time>
</trkpt>
<trkpt lat="32.7163936366667" lon="35.2380632366667">
<ele>281.2</ele>
<time>2011-10-29T05:08:09Z</time>
</trkpt>
<trkpt lat="32.7163937825" lon="35.23806451">
<ele>281.275</ele>
<time>2011-10-29T05:08:13Z</time>
</trkpt>
<trkpt lat="32.71639373" lon="35.2380645733333">
<ele>281.3</ele>
<time>2011-10-29T05:08:16Z</time>
</trkpt>
<trkpt lat="32.71639373" lon="35.2380645675">
<ele>281.3</ele>
<time>2011-10-29T05:08:20Z</time>
</trkpt>
<trkpt lat="32.71639234" lon="35.23806568">
<ele>281.3333333333333</ele>
<time>2011-10-29T05:08:23Z</time>
</trkpt>
<trkpt lat="32.716393385" lon="35.23806538">
<ele>281.375</ele>
<time>2011-10-29T05:08:27Z</time>
</trkpt>
<trkpt lat="32.7163934533333" lon="35.2380657933333">
<ele>281.53333333333336</ele>
<time>2011-10-29T05:08:30Z</time>
</trkpt>
<trkpt lat="32.716392975" lon="35.2380658775">
<ele>281.42499999999995</ele>
<time>2011-10-29T05:08:34Z</time>
</trkpt>
<trkpt lat="32.7163932" lon="35.23806624">
<ele>281.4</ele>
<time>2011-10-29T05:08:37Z</time>
</trkpt>
<trkpt lat="32.7163932325" lon="35.2380661725">
<ele>281.4</ele>
<time>2011-10-29T05:08:41Z</time>
</trkpt>
<trkpt lat="32.7163932366667" lon="35.2380661433333">
<ele>281.4</ele>
<time>2011-10-29T05:08:44Z</time>
</trkpt>
<trkpt lat="32.716393255" lon="35.2380661175">
<ele>281.4</ele>
<time>2011-10-29T05:08:48Z</time>
</trkpt>
<trkpt lat="32.7163931925" lon="35.2380660525">
<ele>281.325</ele>
<time>2011-10-29T05:08:52Z</time>
</trkpt>
<trkpt lat="32.7163938433333" lon="35.2380659033333">
<ele>280.90000000000003</ele>
<time>2011-10-29T05:08:55Z</time>
</trkpt>
<trkpt lat="32.716394495" lon="35.238065355">
<ele>280.82500000000005</ele>
<time>2011-10-29T05:08:59Z</time>
</trkpt>
<trkpt lat="32.7163949333333" lon="35.2380654533333">
<ele>280.9</ele>
<time>2011-10-29T05:09:02Z</time>
</trkpt>
<trkpt lat="32.7163946425" lon="35.23806559">
<ele>280.9</ele>
<time>2011-10-29T05:09:06Z</time>
</trkpt>
<trkpt lat="32.71639464" lon="35.2380655725">
<ele>280.9</ele>
<time>2011-10-29T05:09:10Z</time>
</trkpt>
<trkpt lat="32.716394655" lon="35.2380655725">
<ele>280.9</ele>
<time>2011-10-29T05:09:14Z</time>
</trkpt>
<trkpt lat="32.71639466" lon="35.2380655725">
<ele>280.9</ele>
<time>2011-10-29T05:09:18Z</time>
</trkpt>
<trkpt lat="32.71639466" lon="35.2380655625">
<ele>280.9</ele>
<time>2011-10-29T05:09:22Z</time>
</trkpt>
<trkpt lat="32.71639466" lon="35.23806556">
<ele>280.9</ele>
<time>2011-10-29T05:09:26Z</time>
</trkpt>
<trkpt lat="32.7163946475" lon="35.23806557">
<ele>280.9</ele>
<time>2011-10-29T05:09:30Z</time>
</trkpt>
<trkpt lat="32.71639464" lon="35.2380655725">
<ele>280.9</ele>
<time>2011-10-29T05:09:34Z</time>
</trkpt>
<trkpt lat="32.716394645" lon="35.238065565">
<ele>280.9</ele>
<time>2011-10-29T05:09:38Z</time>
</trkpt>
<trkpt lat="32.7163950275" lon="35.2380657625">
<ele>280.84999999999997</ele>
<time>2011-10-29T05:09:42Z</time>
</trkpt>
<trkpt lat="32.7163955133333" lon="35.23806599">
<ele>280.8</ele>
<time>2011-10-29T05:09:45Z</time>
</trkpt>
<trkpt lat="32.71639565" lon="35.23806605">
<ele>280.8</ele>
<time>2011-10-29T05:09:49Z</time>
</trkpt>
<trkpt lat="32.7163956966667" lon="35.2380660666667">
<ele>280.8</ele>
<time>2011-10-29T05:09:52Z</time>
</trkpt>
<trkpt lat="32.71639572" lon="35.23806605">
<ele>280.8</ele>
<time>2011-10-29T05:09:55Z</time>
</trkpt>
<trkpt lat="32.7163977125" lon="35.238069075">
<ele>280.6</ele>
<time>2011-10-29T05:09:59Z</time>
</trkpt>
<trkpt lat="32.71639531" lon="35.2381007966667">
<ele>280.09999999999997</ele>
<time>2011-10-29T05:10:02Z</time>
</trkpt>
<trkpt lat="32.71637743" lon="35.2381434475">
<ele>279.675</ele>
<time>2011-10-29T05:10:06Z</time>
</trkpt>
<trkpt lat="32.71635082" lon="35.2382247025">
<ele>279.0</ele>
<time>2011-10-29T05:10:10Z</time>
</trkpt>
<trkpt lat="32.71631912" lon="35.23836366">
<ele>277.425</ele>
<time>2011-10-29T05:10:14Z</time>
</trkpt>
<trkpt lat="32.7162928025" lon="35.2385253325">
<ele>275.3</ele>
<time>2011-10-29T05:10:18Z</time>
</trkpt>
<trkpt lat="32.71624584" lon="35.238730705">
<ele>272.025</ele>
<time>2011-10-29T05:10:22Z</time>
</trkpt>
<trkpt lat="32.7161298075" lon="35.2389938625">
<ele>269.875</ele>
<time>2011-10-29T05:10:26Z</time>
</trkpt>
<trkpt lat="32.716051955" lon="35.239204115">
<ele>271.0</ele>
<time>2011-10-29T05:10:30Z</time>
</trkpt>
<trkpt lat="32.7160063633333" lon="35.2393314566667">
<ele>272.43333333333334</ele>
<time>2011-10-29T05:10:33Z</time>
</trkpt>
<trkpt lat="32.71597839" lon="35.2394131166667">
<ele>273.1</ele>
<time>2011-10-29T05:10:36Z</time>
</trkpt>
<trkpt lat="32.7159529325" lon="35.239498405">
<ele>273.025</ele>
<time>2011-10-29T05:10:40Z</time>
</trkpt>
<trkpt lat="32.7159209066667" lon="35.23957949">
<ele>273.56666666666666</ele>
<time>2011-10-29T05:10:43Z</time>
</trkpt>
<trkpt lat="32.7158907525" lon="35.239654405">
<ele>273.575</ele>
<time>2011-10-29T05:10:47Z</time>
</trkpt>
<trkpt lat="32.7158626233333" lon="35.23973013">
<ele>273.8333333333333</ele>
<time>2011-10-29T05:10:50Z</time>
</trkpt>
<trkpt lat="32.71582628" lon="35.239816515">
<ele>273.92499999999995</ele>
<time>2011-10-29T05:10:54Z</time>
</trkpt>
<trkpt lat="32.7157744075" lon="35.239909125">
<ele>274.125</ele>
<time>2011-10-29T05:10:58Z</time>
</trkpt>
<trkpt lat="32.7157237833333" lon="35.2399620433333">
<ele>274.8666666666667</ele>
<time>2011-10-29T05:11:01Z</time>
</trkpt>
<trkpt lat="32.7156866966667" lon="35.23999824">
<ele>275.1666666666667</ele>
<time>2011-10-29T05:11:04Z</time>
</trkpt>
<trkpt lat="32.71565492" lon="35.2400276275">
<ele>275.325</ele>
<time>2011-10-29T05:11:08Z</time>
</trkpt>
<trkpt lat="32.7156389125" lon="35.24005725">
<ele>275.725</ele>
<time>2011-10-29T05:11:12Z</time>
</trkpt>
<trkpt lat="32.7156496333333" lon="35.24007994">
<ele>275.5</ele>
<time>2011-10-29T05:11:15Z</time>
</trkpt>
<trkpt lat="32.71566593" lon="35.2401087375">
<ele>275.02500000000003</ele>
<time>2011-10-29T05:11:19Z</time>
</trkpt>
<trkpt lat="32.7157232066667" lon="35.2401785533333">
<ele>272.73333333333335</ele>
<time>2011-10-29T05:11:22Z</time>
</trkpt>
<trkpt lat="32.71584275" lon="35.2402592975">
<ele>270.575</ele>
<time>2011-10-29T05:11:26Z</time>
</trkpt>
<trkpt lat="32.7159555533333" lon="35.2402745766667">
<ele>269.56666666666666</ele>
<time>2011-10-29T05:11:29Z</time>
</trkpt>
<trkpt lat="32.7160404975" lon="35.2402770375">
<ele>261.42499999999995</ele>
<time>2011-10-29T05:11:33Z</time>
</trkpt>
<trkpt lat="32.71607452" lon="35.2403308233333">
<ele>259.23333333333335</ele>
<time>2011-10-29T05:11:36Z</time>
</trkpt>
<trkpt lat="32.7160659525" lon="35.2404255325">
<ele>260.5</ele>
<time>2011-10-29T05:11:40Z</time>
</trkpt>
<trkpt lat="32.7161017725" lon="35.24051962">
<ele>260.5</ele>
<time>2011-10-29T05:11:44Z</time>
</trkpt>
<trkpt lat="32.7161181625" lon="35.24058693">
<ele>260.92499999999995</ele>
<time>2011-10-29T05:11:48Z</time>
</trkpt>
<trkpt lat="32.71614609" lon="35.2406177725">
<ele>259.5</ele>
<time>2011-10-29T05:11:52Z</time>
</trkpt>
<trkpt lat="32.7162128875" lon="35.2406294625">
<ele>258.1</ele>
<time>2011-10-29T05:11:56Z</time>
</trkpt>
<trkpt lat="32.71629452" lon="35.2406401525">
<ele>257.69999999999993</ele>
<time>2011-10-29T05:12:00Z</time>
</trkpt>
<trkpt lat="32.71632355" lon="35.2406162966667">
<ele>259.76666666666665</ele>
<time>2011-10-29T05:12:03Z</time>
</trkpt>
<trkpt lat="32.7163767075" lon="35.2405834275">
<ele>259.325</ele>
<time>2011-10-29T05:12:07Z</time>
</trkpt>
<trkpt lat="32.7163995733333" lon="35.24056969">
<ele>261.8666666666667</ele>
<time>2011-10-29T05:12:10Z</time>
</trkpt>
<trkpt lat="32.7164199375" lon="35.240532525">
<ele>261.975</ele>
<time>2011-10-29T05:12:14Z</time>
</trkpt>
<trkpt lat="32.7164211825" lon="35.2405035825">
<ele>263.925</ele>
<time>2011-10-29T05:12:18Z</time>
</trkpt>
<trkpt lat="32.7164192566667" lon="35.24049733">
<ele>264.26666666666665</ele>
<time>2011-10-29T05:12:21Z</time>
</trkpt>
<trkpt lat="32.71641675" lon="35.2404986">
<ele>264.3333333333333</ele>
<time>2011-10-29T05:12:24Z</time>
</trkpt>
<trkpt lat="32.7164142675" lon="35.240503005">
<ele>264.175</ele>
<time>2011-10-29T05:12:28Z</time>
</trkpt>
<trkpt lat="32.716413185" lon="35.240505355">
<ele>264.25</ele>
<time>2011-10-29T05:12:32Z</time>
</trkpt>
<trkpt lat="32.716413225" lon="35.24050541">
<ele>264.3</ele>
<time>2011-10-29T05:12:36Z</time>
</trkpt>
<trkpt lat="32.7164132875" lon="35.240505485">
<ele>264.3</ele>
<time>2011-10-29T05:12:40Z</time>
</trkpt>
<trkpt lat="32.71641356" lon="35.24050547">
<ele>264.3</ele>
<time>2011-10-29T05:12:43Z</time>
</trkpt>
<trkpt lat="32.7164287925" lon="35.2405170675">
<ele>264.04999999999995</ele>
<time>2011-10-29T05:12:47Z</time>
</trkpt>
<trkpt lat="32.71640684" lon="35.2405083966667">
<ele>265.53333333333336</ele>
<time>2011-10-29T05:12:50Z</time>
</trkpt>
<trkpt lat="32.7163949825" lon="35.240503525">
<ele>265.925</ele>
<time>2011-10-29T05:12:54Z</time>
</trkpt>
<trkpt lat="32.7163907" lon="35.24049925">
<ele>266.1</ele>
<time>2011-10-29T05:12:58Z</time>
</trkpt>
<trkpt lat="32.71639026" lon="35.2404990266667">
<ele>266.1</ele>
<time>2011-10-29T05:13:01Z</time>
</trkpt>
<trkpt lat="32.7163901066667" lon="35.2404989633333">
<ele>266.2</ele>
<time>2011-10-29T05:13:04Z</time>
</trkpt>
<trkpt lat="32.71639006" lon="35.24049902">
<ele>266.2</ele>
<time>2011-10-29T05:13:08Z</time>
</trkpt>
<trkpt lat="32.7163899366667" lon="35.2404991633333">
<ele>266.1666666666667</ele>
<time>2011-10-29T05:13:11Z</time>
</trkpt>
<trkpt lat="32.71638959" lon="35.2404990833333">
<ele>266.1666666666667</ele>
<time>2011-10-29T05:13:14Z</time>
</trkpt>
<trkpt lat="32.71638933" lon="35.24049886">
<ele>266.1</ele>
<time>2011-10-29T05:13:18Z</time>
</trkpt>
<trkpt lat="32.71638946" lon="35.2404991275">
<ele>266.1</ele>
<time>2011-10-29T05:13:22Z</time>
</trkpt>
<trkpt lat="32.7163896575" lon="35.240499385">
<ele>266.2</ele>
<time>2011-10-29T05:13:26Z</time>
</trkpt>
<trkpt lat="32.716389865" lon="35.240499665">
<ele>266.2</ele>
<time>2011-10-29T05:13:30Z</time>
</trkpt>
<trkpt lat="32.716390825" lon="35.2405320125">
<ele>268.05</ele>
<time>2011-10-29T05:13:34Z</time>
</trkpt>
<trkpt lat="32.7163938025" lon="35.240552085">
<ele>268.925</ele>
<time>2011-10-29T05:13:38Z</time>
</trkpt>
<trkpt lat="32.7163997966667" lon="35.2405486233333">
<ele>268.3666666666666</ele>
<time>2011-10-29T05:13:41Z</time>
</trkpt>
<trkpt lat="32.716358735" lon="35.24050604">
<ele>269.25</ele>
<time>2011-10-29T05:13:45Z</time>
</trkpt>
<trkpt lat="32.7164181433333" lon="35.2404967766667">
<ele>268.90000000000003</ele>
<time>2011-10-29T05:13:48Z</time>
</trkpt>
<trkpt lat="32.7164746575" lon="35.24043739">
<ele>264.225</ele>
<time>2011-10-29T05:13:52Z</time>
</trkpt>
<trkpt lat="32.7165148533333" lon="35.2403662466667">
<ele>265.13333333333327</ele>
<time>2011-10-29T05:13:55Z</time>
</trkpt>
<trkpt lat="32.7165357133333" lon="35.2402666933333">
<ele>265.93333333333334</ele>
<time>2011-10-29T05:13:58Z</time>
</trkpt>
<trkpt lat="32.7165876575" lon="35.240122975">
<ele>265.35</ele>
<time>2011-10-29T05:14:02Z</time>
</trkpt>
<trkpt lat="32.7166265275" lon="35.2399551625">
<ele>264.975</ele>
<time>2011-10-29T05:14:06Z</time>
</trkpt>
<trkpt lat="32.7167480275" lon="35.23987013">
<ele>262.525</ele>
<time>2011-10-29T05:14:10Z</time>
</trkpt>
<trkpt lat="32.7168145266667" lon="35.2399798233333">
<ele>256.5</ele>
<time>2011-10-29T05:14:13Z</time>
</trkpt>
<trkpt lat="32.7168101866667" lon="35.2401486666667">
<ele>255.53333333333333</ele>
<time>2011-10-29T05:14:16Z</time>
</trkpt>
<trkpt lat="32.7167930425" lon="35.2402759825">
<ele>251.72500000000002</ele>
<time>2011-10-29T05:14:20Z</time>
</trkpt>
<trkpt lat="32.7167557025" lon="35.2404369725">
<ele>248.3</ele>
<time>2011-10-29T05:14:24Z</time>
</trkpt>
<trkpt lat="32.71674277" lon="35.2405925325">
<ele>247.72500000000002</ele>
<time>2011-10-29T05:14:28Z</time>
</trkpt>
<trkpt lat="32.71672362" lon="35.2407042233333">
<ele>249.53333333333333</ele>
<time>2011-10-29T05:14:31Z</time>
</trkpt>
<trkpt lat="32.7166844025" lon="35.240792075">
<ele>250.7</ele>
<time>2011-10-29T05:14:35Z</time>
</trkpt>
<trkpt lat="32.716643555" lon="35.2409276425">
<ele>249.875</ele>
<time>2011-10-29T05:14:39Z</time>
</trkpt>
<trkpt lat="32.71661748" lon="35.2410252266667">
<ele>249.03333333333333</ele>
<time>2011-10-29T05:14:42Z</time>
</trkpt>
<trkpt lat="32.716571565" lon="35.2410980375">
<ele>248.075</ele>
<time>2011-10-29T05:14:46Z</time>
</trkpt>
<trkpt lat="32.716515715" lon="35.241198245">
<ele>247.45</ele>
<time>2011-10-29T05:14:50Z</time>
</trkpt>
<trkpt lat="32.7164734225" lon="35.2412909675">
<ele>246.125</ele>
<time>2011-10-29T05:14:54Z</time>
</trkpt>
<trkpt lat="32.7164477875" lon="35.24136498">
<ele>243.675</ele>
<time>2011-10-29T05:14:58Z</time>
</trkpt>
<trkpt lat="32.7164746875" lon="35.2413871125">
<ele>244.72500000000002</ele>
<time>2011-10-29T05:15:02Z</time>
</trkpt>
<trkpt lat="32.7165223975" lon="35.2413580475">
<ele>245.64999999999998</ele>
<time>2011-10-29T05:15:06Z</time>
</trkpt>
<trkpt lat="32.71656473" lon="35.2413330425">
<ele>254.0</ele>
<time>2011-10-29T05:15:10Z</time>
</trkpt>
<trkpt lat="32.71662691" lon="35.241315755">
<ele>257.525</ele>
<time>2011-10-29T05:15:14Z</time>
</trkpt>
<trkpt lat="32.7167097225" lon="35.24129485">
<ele>257.04999999999995</ele>
<time>2011-10-29T05:15:18Z</time>
</trkpt>
<trkpt lat="32.71673188" lon="35.2413405366667">
<ele>256.09999999999997</ele>
<time>2011-10-29T05:15:21Z</time>
</trkpt>
<trkpt lat="32.7167413933333" lon="35.2414247433333">
<ele>249.4333333333333</ele>
<time>2011-10-29T05:15:24Z</time>
</trkpt>
<trkpt lat="32.7167699475" lon="35.2415198225">
<ele>245.075</ele>
<time>2011-10-29T05:15:28Z</time>
</trkpt>
<trkpt lat="32.71690934" lon="35.2415327533333">
<ele>241.4</ele>
<time>2011-10-29T05:15:31Z</time>
</trkpt>
<trkpt lat="32.71699522" lon="35.24158748">
<ele>240.19999999999996</ele>
<time>2011-10-29T05:15:34Z</time>
</trkpt>
<trkpt lat="32.717095055" lon="35.24162206">
<ele>238.725</ele>
<time>2011-10-29T05:15:38Z</time>
</trkpt>
<trkpt lat="32.71714891" lon="35.24167352">
<ele>238.83333333333334</ele>
<time>2011-10-29T05:15:41Z</time>
</trkpt>
<trkpt lat="32.7171968433333" lon="35.24170922">
<ele>240.13333333333335</ele>
<time>2011-10-29T05:15:44Z</time>
</trkpt>
<trkpt lat="32.71730271" lon="35.2417683125">
<ele>241.37500000000003</ele>
<time>2011-10-29T05:15:48Z</time>
</trkpt>
<trkpt lat="32.71737159" lon="35.2418199966667">
<ele>242.76666666666665</ele>
<time>2011-10-29T05:15:51Z</time>
</trkpt>
<trkpt lat="32.7174538766667" lon="35.2418148066667">
<ele>242.9</ele>
<time>2011-10-29T05:15:54Z</time>
</trkpt>
<trkpt lat="32.7175224875" lon="35.24182563">
<ele>242.45</ele>
<time>2011-10-29T05:15:58Z</time>
</trkpt>
<trkpt lat="32.717547195" lon="35.2418473825">
<ele>241.575</ele>
<time>2011-10-29T05:16:02Z</time>
</trkpt>
<trkpt lat="32.7175373925" lon="35.241875715">
<ele>240.79999999999998</ele>
<time>2011-10-29T05:16:06Z</time>
</trkpt>
<trkpt lat="32.7175377975" lon="35.24188182">
<ele>239.575</ele>
<time>2011-10-29T05:16:10Z</time>
</trkpt>
<trkpt lat="32.7175397166667" lon="35.2418809733333">
<ele>239.4333333333333</ele>
<time>2011-10-29T05:16:13Z</time>
</trkpt>
<trkpt lat="32.71754092" lon="35.24188014">
<ele>238.575</ele>
<time>2011-10-29T05:16:17Z</time>
</trkpt>
<trkpt lat="32.71754024" lon="35.2418777166667">
<ele>237.4333333333333</ele>
<time>2011-10-29T05:16:20Z</time>
</trkpt>
<trkpt lat="32.7175403125" lon="35.2418767175">
<ele>237.2</ele>
<time>2011-10-29T05:16:24Z</time>
</trkpt>
<trkpt lat="32.7175403125" lon="35.2418766">
<ele>237.2</ele>
<time>2011-10-29T05:16:28Z</time>
</trkpt>
<trkpt lat="32.71754031" lon="35.24187655">
<ele>237.19999999999996</ele>
<time>2011-10-29T05:16:31Z</time>
</trkpt>
<trkpt lat="32.7175403266667" lon="35.24187655">
<ele>237.19999999999996</ele>
<time>2011-10-29T05:16:34Z</time>
</trkpt>
<trkpt lat="32.7175403375" lon="35.24187655">
<ele>237.2</ele>
<time>2011-10-29T05:16:38Z</time>
</trkpt>
<trkpt lat="32.71754037" lon="35.24187655">
<ele>237.2</ele>
<time>2011-10-29T05:16:42Z</time>
</trkpt>
<trkpt lat="32.71754043" lon="35.241876545">
<ele>237.2</ele>
<time>2011-10-29T05:16:46Z</time>
</trkpt>
<trkpt lat="32.717540485" lon="35.241876535">
<ele>237.2</ele>
<time>2011-10-29T05:16:50Z</time>
</trkpt>
<trkpt lat="32.71754052" lon="35.2418765233333">
<ele>237.19999999999996</ele>
<time>2011-10-29T05:16:53Z</time>
</trkpt>
<trkpt lat="32.7175405533333" lon="35.2418765166667">
<ele>237.19999999999996</ele>
<time>2011-10-29T05:16:56Z</time>
</trkpt>
<trkpt lat="32.7175406025" lon="35.2418765275">
<ele>237.2</ele>
<time>2011-10-29T05:17:00Z</time>
</trkpt>
<trkpt lat="32.71754063" lon="35.24187655">
<ele>237.2</ele>
<time>2011-10-29T05:17:04Z</time>
</trkpt>
<trkpt lat="32.7175406225" lon="35.2418765575">
<ele>237.2</ele>
<time>2011-10-29T05:17:08Z</time>
</trkpt>
<trkpt lat="32.7175406075" lon="35.241876545">
<ele>237.2</ele>
<time>2011-10-29T05:17:12Z</time>
</trkpt>
<trkpt lat="32.7175406066667" lon="35.2418765233333">
<ele>237.19999999999996</ele>
<time>2011-10-29T05:17:15Z</time>
</trkpt>
<trkpt lat="32.71754058" lon="35.2418764875">
<ele>237.2</ele>
<time>2011-10-29T05:17:19Z</time>
</trkpt>
<trkpt lat="32.717540565" lon="35.24187646">
<ele>237.2</ele>
<time>2011-10-29T05:17:23Z</time>
</trkpt>
<trkpt lat="32.71754056" lon="35.24187648">
<ele>237.2</ele>
<time>2011-10-29T05:17:27Z</time>
</trkpt>
<trkpt lat="32.7175405625" lon="35.2418764775">
<ele>237.2</ele>
<time>2011-10-29T05:17:31Z</time>
</trkpt>
<trkpt lat="32.7175405633333" lon="35.2418764633333">
<ele>237.19999999999996</ele>
<time>2011-10-29T05:17:34Z</time>
</trkpt>
<trkpt lat="32.71754055" lon="35.24187644">
<ele>237.2</ele>
<time>2011-10-29T05:17:38Z</time>
</trkpt>
<trkpt lat="32.7175432266667" lon="35.24187919">
<ele>237.33333333333334</ele>
<time>2011-10-29T05:17:41Z</time>
</trkpt>
<trkpt lat="32.7175415166667" lon="35.2418877366667">
<ele>236.76666666666665</ele>
<time>2011-10-29T05:17:44Z</time>
</trkpt>
<trkpt lat="32.7175386025" lon="35.2419127125">
<ele>236.5</ele>
<time>2011-10-29T05:17:48Z</time>
</trkpt>
<trkpt lat="32.7175384" lon="35.2419288066667">
<ele>236.36666666666667</ele>
<time>2011-10-29T05:17:51Z</time>
</trkpt>
<trkpt lat="32.71752241" lon="35.2419571866667">
<ele>236.70000000000002</ele>
<time>2011-10-29T05:17:54Z</time>
</trkpt>
<trkpt lat="32.71749298" lon="35.242006705">
<ele>237.35</ele>
<time>2011-10-29T05:17:58Z</time>
</trkpt>
<trkpt lat="32.7174553325" lon="35.242075055">
<ele>238.02499999999998</ele>
<time>2011-10-29T05:18:02Z</time>
</trkpt>
<trkpt lat="32.71742698" lon="35.2421367366667">
<ele>238.79999999999998</ele>
<time>2011-10-29T05:18:05Z</time>
</trkpt>
<trkpt lat="32.717398725" lon="35.2422055475">
<ele>239.54999999999998</ele>
<time>2011-10-29T05:18:09Z</time>
</trkpt>
<trkpt lat="32.7173750033333" lon="35.2422759033333">
<ele>240.0666666666667</ele>
<time>2011-10-29T05:18:12Z</time>
</trkpt>
<trkpt lat="32.71735653" lon="35.242348135">
<ele>241.17499999999998</ele>
<time>2011-10-29T05:18:16Z</time>
</trkpt>
<trkpt lat="32.7173448425" lon="35.2424135675">
<ele>241.875</ele>
<time>2011-10-29T05:18:20Z</time>
</trkpt>
<trkpt lat="32.7173229025" lon="35.2424837725">
<ele>242.77499999999998</ele>
<time>2011-10-29T05:18:24Z</time>
</trkpt>
<trkpt lat="32.71729649" lon="35.24253485">
<ele>243.19999999999996</ele>
<time>2011-10-29T05:18:27Z</time>
</trkpt>
<trkpt lat="32.7172653475" lon="35.2425798625">
<ele>243.525</ele>
<time>2011-10-29T05:18:31Z</time>
</trkpt>
<trkpt lat="32.71723284" lon="35.2426182266667">
<ele>243.76666666666665</ele>
<time>2011-10-29T05:18:34Z</time>
</trkpt>
<trkpt lat="32.71719491" lon="35.2426544125">
<ele>243.7</ele>
<time>2011-10-29T05:18:38Z</time>
</trkpt>
<trkpt lat="32.717146375" lon="35.24269906">
<ele>243.375</ele>
<time>2011-10-29T05:18:42Z</time>
</trkpt>
<trkpt lat="32.71708982" lon="35.242748715">
<ele>242.925</ele>
<time>2011-10-29T05:18:46Z</time>
</trkpt>
<trkpt lat="32.717028845" lon="35.24279836">
<ele>242.87499999999997</ele>
<time>2011-10-29T05:18:50Z</time>
</trkpt>
<trkpt lat="32.71697529" lon="35.2428455066667">
<ele>243.13333333333333</ele>
<time>2011-10-29T05:18:53Z</time>
</trkpt>
<trkpt lat="32.7169348066667" lon="35.2428872966667">
<ele>243.76666666666665</ele>
<time>2011-10-29T05:18:56Z</time>
</trkpt>
<trkpt lat="32.7168981425" lon="35.24293453">
<ele>244.14999999999998</ele>
<time>2011-10-29T05:19:00Z</time>
</trkpt>
<trkpt lat="32.7168603733333" lon="35.2429749733333">
<ele>244.70000000000002</ele>
<time>2011-10-29T05:19:03Z</time>
</trkpt>
<trkpt lat="32.7168251475" lon="35.2430196125">
<ele>245.02499999999998</ele>
<time>2011-10-29T05:19:07Z</time>
</trkpt>
<trkpt lat="32.7167941433333" lon="35.24306713">
<ele>245.53333333333333</ele>
<time>2011-10-29T05:19:10Z</time>
</trkpt>
<trkpt lat="32.7167668225" lon="35.2431002775">
<ele>245.42499999999998</ele>
<time>2011-10-29T05:19:14Z</time>
</trkpt>
<trkpt lat="32.7167501925" lon="35.24312833">
<ele>245.65</ele>
<time>2011-10-29T05:19:18Z</time>
</trkpt>
<trkpt lat="32.7167508125" lon="35.24313224">
<ele>246.125</ele>
<time>2011-10-29T05:19:22Z</time>
</trkpt>
<trkpt lat="32.716747225" lon="35.243132345">
<ele>246.125</ele>
<time>2011-10-29T05:19:26Z</time>
</trkpt>
<trkpt lat="32.7167456125" lon="35.2431291625">
<ele>246.2</ele>
<time>2011-10-29T05:19:30Z</time>
</trkpt>
<trkpt lat="32.716743415" lon="35.2431288125">
<ele>246.4</ele>
<time>2011-10-29T05:19:34Z</time>
</trkpt>
<trkpt lat="32.716743245" lon="35.243129395">
<ele>246.5</ele>
<time>2011-10-29T05:19:38Z</time>
</trkpt>
<trkpt lat="32.7167431966667" lon="35.24312946">
<ele>246.5</ele>
<time>2011-10-29T05:19:41Z</time>
</trkpt>
<trkpt lat="32.7167431633333" lon="35.24312948">
<ele>246.5</ele>
<time>2011-10-29T05:19:44Z</time>
</trkpt>
<trkpt lat="32.7167431025" lon="35.2431296925">
<ele>246.5</ele>
<time>2011-10-29T05:19:48Z</time>
</trkpt>
<trkpt lat="32.71674049" lon="35.2431307933333">
<ele>246.5</ele>
<time>2011-10-29T05:19:51Z</time>
</trkpt>
<trkpt lat="32.7167421366667" lon="35.2431296366667">
<ele>246.4333333333333</ele>
<time>2011-10-29T05:19:54Z</time>
</trkpt>
<trkpt lat="32.716741235" lon="35.243128225">
<ele>246.825</ele>
<time>2011-10-29T05:19:58Z</time>
</trkpt>
<trkpt lat="32.7167410425" lon="35.243127085">
<ele>246.9</ele>
<time>2011-10-29T05:20:02Z</time>
</trkpt>
<trkpt lat="32.7167409625" lon="35.24312708">
<ele>246.9</ele>
<time>2011-10-29T05:20:06Z</time>
</trkpt>
<trkpt lat="32.71674097" lon="35.2431270625">
<ele>246.9</ele>
<time>2011-10-29T05:20:10Z</time>
</trkpt>
<trkpt lat="32.7167409775" lon="35.2431270825">
<ele>246.9</ele>
<time>2011-10-29T05:20:14Z</time>
</trkpt>
<trkpt lat="32.716740985" lon="35.243127085">
<ele>246.9</ele>
<time>2011-10-29T05:20:18Z</time>
</trkpt>
<trkpt lat="32.7167410025" lon="35.243127095">
<ele>246.9</ele>
<time>2011-10-29T05:20:22Z</time>
</trkpt>
<trkpt lat="32.71674099" lon="35.2431271125">
<ele>246.9</ele>
<time>2011-10-29T05:20:26Z</time>
</trkpt>
<trkpt lat="32.7167410025" lon="35.2431271425">
<ele>246.9</ele>
<time>2011-10-29T05:20:30Z</time>
</trkpt>
<trkpt lat="32.7167409975" lon="35.24312724">
<ele>246.9</ele>
<time>2011-10-29T05:20:34Z</time>
</trkpt>
<trkpt lat="32.7167362525" lon="35.243127605">
<ele>246.75</ele>
<time>2011-10-29T05:20:38Z</time>
</trkpt>
<trkpt lat="32.7167293766667" lon="35.2431330833333">
<ele>246.9</ele>
<time>2011-10-29T05:20:41Z</time>
</trkpt>
<trkpt lat="32.7167300666667" lon="35.2431346433333">
<ele>247.1</ele>
<time>2011-10-29T05:20:44Z</time>
</trkpt>
<trkpt lat="32.7167304125" lon="35.2431331925">
<ele>247.0</ele>
<time>2011-10-29T05:20:48Z</time>
</trkpt>
<trkpt lat="32.7167280366667" lon="35.2431331166667">
<ele>246.66666666666666</ele>
<time>2011-10-29T05:20:51Z</time>
</trkpt>
<trkpt lat="32.71672147" lon="35.2431364133333">
<ele>246.86666666666667</ele>
<time>2011-10-29T05:20:54Z</time>
</trkpt>
<trkpt lat="32.7167155225" lon="35.2431401375">
<ele>247.05</ele>
<time>2011-10-29T05:20:58Z</time>
</trkpt>
<trkpt lat="32.716715135" lon="35.2431396425">
<ele>247.1</ele>
<time>2011-10-29T05:21:02Z</time>
</trkpt>
<trkpt lat="32.71671279" lon="35.2431418475">
<ele>247.1</ele>
<time>2011-10-29T05:21:06Z</time>
</trkpt>
<trkpt lat="32.71668031" lon="35.2431885375">
<ele>247.54999999999998</ele>
<time>2011-10-29T05:21:10Z</time>
</trkpt>
<trkpt lat="32.7166413825" lon="35.2432538575">
<ele>248.875</ele>
<time>2011-10-29T05:21:14Z</time>
</trkpt>
<trkpt lat="32.7165935675" lon="35.243326595">
<ele>249.97500000000002</ele>
<time>2011-10-29T05:21:18Z</time>
</trkpt>
<trkpt lat="32.7165521775" lon="35.2434104475">
<ele>251.05</ele>
<time>2011-10-29T05:21:22Z</time>
</trkpt>
<trkpt lat="32.716506115" lon="35.2434951475">
<ele>251.82500000000002</ele>
<time>2011-10-29T05:21:26Z</time>
</trkpt>
<trkpt lat="32.7164595525" lon="35.2435886775">
<ele>252.775</ele>
<time>2011-10-29T05:21:30Z</time>
</trkpt>
<trkpt lat="32.71642901" lon="35.2436659333333">
<ele>253.1</ele>
<time>2011-10-29T05:21:33Z</time>
</trkpt>
<trkpt lat="32.7164084" lon="35.24370518">
<ele>253.72500000000002</ele>
<time>2011-10-29T05:21:37Z</time>
</trkpt>
<trkpt lat="32.7163965633333" lon="35.2437173233333">
<ele>253.66666666666666</ele>
<time>2011-10-29T05:21:40Z</time>
</trkpt>
<trkpt lat="32.71640212" lon="35.2437115325">
<ele>254.575</ele>
<time>2011-10-29T05:21:44Z</time>
</trkpt>
<trkpt lat="32.7164062725" lon="35.24370607">
<ele>255.375</ele>
<time>2011-10-29T05:21:48Z</time>
</trkpt>
<trkpt lat="32.7163878266667" lon="35.2437408133333">
<ele>255.26666666666665</ele>
<time>2011-10-29T05:21:51Z</time>
</trkpt>
<trkpt lat="32.7163785833333" lon="35.2437814266667">
<ele>255.5</ele>
<time>2011-10-29T05:21:54Z</time>
</trkpt>
<trkpt lat="32.7163764875" lon="35.24381764">
<ele>255.875</ele>
<time>2011-10-29T05:21:58Z</time>
</trkpt>
<trkpt lat="32.716405495" lon="35.243855095">
<ele>256.375</ele>
<time>2011-10-29T05:22:02Z</time>
</trkpt>
<trkpt lat="32.7164614125" lon="35.2438531975">
<ele>256.9</ele>
<time>2011-10-29T05:22:06Z</time>
</trkpt>
<trkpt lat="32.7165094425" lon="35.24385192">
<ele>257.05</ele>
<time>2011-10-29T05:22:10Z</time>
</trkpt>
<trkpt lat="32.716559115" lon="35.2438507925">
<ele>257.6</ele>
<time>2011-10-29T05:22:14Z</time>
</trkpt>
<trkpt lat="32.716604245" lon="35.2437893825">
<ele>256.775</ele>
<time>2011-10-29T05:22:18Z</time>
</trkpt>
<trkpt lat="32.7166835275" lon="35.2437176325">
<ele>256.1</ele>
<time>2011-10-29T05:22:22Z</time>
</trkpt>
<trkpt lat="32.7167526766667" lon="35.2437124466667">
<ele>256.7333333333333</ele>
<time>2011-10-29T05:22:25Z</time>
</trkpt>
<trkpt lat="32.716807615" lon="35.243690435">
<ele>256.625</ele>
<time>2011-10-29T05:22:29Z</time>
</trkpt>
<trkpt lat="32.7168645466667" lon="35.24366075">
<ele>256.6666666666667</ele>
<time>2011-10-29T05:22:32Z</time>
</trkpt>
<trkpt lat="32.7169234866667" lon="35.2436319933333">
<ele>256.3</ele>
<time>2011-10-29T05:22:35Z</time>
</trkpt>
<trkpt lat="32.7170077525" lon="35.2436236325">
<ele>256.5</ele>
<time>2011-10-29T05:22:39Z</time>
</trkpt>
<trkpt lat="32.71707287" lon="35.2436382433333">
<ele>257.46666666666664</ele>
<time>2011-10-29T05:22:42Z</time>
</trkpt>
<trkpt lat="32.7171181425" lon="35.2436405425">
<ele>257.77500000000003</ele>
<time>2011-10-29T05:22:46Z</time>
</trkpt>
<trkpt lat="32.71717306" lon="35.24361873">
<ele>258.175</ele>
<time>2011-10-29T05:22:50Z</time>
</trkpt>
<trkpt lat="32.7172173166667" lon="35.2436092866667">
<ele>258.3</ele>
<time>2011-10-29T05:22:53Z</time>
</trkpt>
<trkpt lat="32.71726333" lon="35.2436065325">
<ele>258.3</ele>
<time>2011-10-29T05:22:57Z</time>
</trkpt>
<trkpt lat="32.717280685" lon="35.2436469725">
<ele>258.47499999999997</ele>
<time>2011-10-29T05:23:01Z</time>
</trkpt>
<trkpt lat="32.71724941" lon="35.24368925">
<ele>259.1333333333333</ele>
<time>2011-10-29T05:23:04Z</time>
</trkpt>
<trkpt lat="32.717208255" lon="35.2437344925">
<ele>259.9</ele>
<time>2011-10-29T05:23:08Z</time>
</trkpt>
<trkpt lat="32.7171654166667" lon="35.2437740333333">
<ele>260.6</ele>
<time>2011-10-29T05:23:11Z</time>
</trkpt>
<trkpt lat="32.71713128" lon="35.2438106866667">
<ele>261.06666666666666</ele>
<time>2011-10-29T05:23:14Z</time>
</trkpt>
<trkpt lat="32.7170938275" lon="35.243854885">
<ele>261.975</ele>
<time>2011-10-29T05:23:18Z</time>
</trkpt>
<trkpt lat="32.717046445" lon="35.24391281">
<ele>262.425</ele>
<time>2011-10-29T05:23:22Z</time>
</trkpt>
<trkpt lat="32.7169912425" lon="35.2439670575">
<ele>262.725</ele>
<time>2011-10-29T05:23:26Z</time>
</trkpt>
<trkpt lat="32.7169493425" lon="35.2440285075">
<ele>263.025</ele>
<time>2011-10-29T05:23:30Z</time>
</trkpt>
<trkpt lat="32.7169001075" lon="35.24408727">
<ele>263.45000000000005</ele>
<time>2011-10-29T05:23:34Z</time>
</trkpt>
<trkpt lat="32.71684817" lon="35.24414158">
<ele>263.875</ele>
<time>2011-10-29T05:23:38Z</time>
</trkpt>
<trkpt lat="32.7168018125" lon="35.2441958975">
<ele>264.75</ele>
<time>2011-10-29T05:23:42Z</time>
</trkpt>
<trkpt lat="32.71675738" lon="35.24424489">
<ele>265.40000000000003</ele>
<time>2011-10-29T05:23:45Z</time>
</trkpt>
<trkpt lat="32.716737525" lon="35.2443035225">
<ele>265.70000000000005</ele>
<time>2011-10-29T05:23:49Z</time>
</trkpt>
<trkpt lat="32.71672205" lon="35.2443569033333">
<ele>266.23333333333335</ele>
<time>2011-10-29T05:23:52Z</time>
</trkpt>
<trkpt lat="32.7166830433333" lon="35.2443905966667">
<ele>266.6333333333334</ele>
<time>2011-10-29T05:23:55Z</time>
</trkpt>
<trkpt lat="32.7166452175" lon="35.24444175">
<ele>267.0</ele>
<time>2011-10-29T05:23:59Z</time>
</trkpt>
<trkpt lat="32.7166249266667" lon="35.24450813">
<ele>267.86666666666673</ele>
<time>2011-10-29T05:24:02Z</time>
</trkpt>
<trkpt lat="32.7166076125" lon="35.2445724675">
<ele>268.69999999999993</ele>
<time>2011-10-29T05:24:06Z</time>
</trkpt>
<trkpt lat="32.7165921525" lon="35.2446415975">
<ele>269.475</ele>
<time>2011-10-29T05:24:10Z</time>
</trkpt>
<trkpt lat="32.7165957933333" lon="35.2447018166667">
<ele>269.93333333333334</ele>
<time>2011-10-29T05:24:13Z</time>
</trkpt>
<trkpt lat="32.716618235" lon="35.2447623025">
<ele>270.05</ele>
<time>2011-10-29T05:24:17Z</time>
</trkpt>
<trkpt lat="32.7166210725" lon="35.244829705">
<ele>270.54999999999995</ele>
<time>2011-10-29T05:24:21Z</time>
</trkpt>
<trkpt lat="32.71661292" lon="35.24488527">
<ele>271.09999999999997</ele>
<time>2011-10-29T05:24:24Z</time>
</trkpt>
<trkpt lat="32.716602245" lon="35.2449352475">
<ele>272.0</ele>
<time>2011-10-29T05:24:28Z</time>
</trkpt>
<trkpt lat="32.7165841475" lon="35.244995105">
<ele>272.525</ele>
<time>2011-10-29T05:24:32Z</time>
</trkpt>
<trkpt lat="32.7165700466667" lon="35.2450550466667">
<ele>272.59999999999997</ele>
<time>2011-10-29T05:24:35Z</time>
</trkpt>
<trkpt lat="32.716560755" lon="35.2451193025">
<ele>272.55</ele>
<time>2011-10-29T05:24:39Z</time>
</trkpt>
<trkpt lat="32.7165675666667" lon="35.24519204">
<ele>273.1333333333333</ele>
<time>2011-10-29T05:24:42Z</time>
</trkpt>
<trkpt lat="32.716572315" lon="35.24525119">
<ele>273.77500000000003</ele>
<time>2011-10-29T05:24:46Z</time>
</trkpt>
<trkpt lat="32.71656323" lon="35.24531758">
<ele>274.65</ele>
<time>2011-10-29T05:24:50Z</time>
</trkpt>
<trkpt lat="32.71656327" lon="35.2453835033333">
<ele>275.40000000000003</ele>
<time>2011-10-29T05:24:53Z</time>
</trkpt>
<trkpt lat="32.7165898175" lon="35.245423025">
<ele>276.20000000000005</ele>
<time>2011-10-29T05:24:57Z</time>
</trkpt>
<trkpt lat="32.7166198875" lon="35.245434055">
<ele>276.84999999999997</ele>
<time>2011-10-29T05:25:01Z</time>
</trkpt>
<trkpt lat="32.7166506733333" lon="35.2454125966667">
<ele>277.0</ele>
<time>2011-10-29T05:25:04Z</time>
</trkpt>
<trkpt lat="32.71670082" lon="35.2453645425">
<ele>277.07500000000005</ele>
<time>2011-10-29T05:25:08Z</time>
</trkpt>
<trkpt lat="32.71677" lon="35.2453081075">
<ele>277.35</ele>
<time>2011-10-29T05:25:12Z</time>
</trkpt>
<trkpt lat="32.7168455525" lon="35.2452638625">
<ele>277.725</ele>
<time>2011-10-29T05:25:16Z</time>
</trkpt>
<trkpt lat="32.716913415" lon="35.2452318125">
<ele>278.15</ele>
<time>2011-10-29T05:25:20Z</time>
</trkpt>
<trkpt lat="32.71697314" lon="35.2451877033333">
<ele>278.26666666666665</ele>
<time>2011-10-29T05:25:23Z</time>
</trkpt>
<trkpt lat="32.71703388" lon="35.245148665">
<ele>278.9</ele>
<time>2011-10-29T05:25:27Z</time>
</trkpt>
<trkpt lat="32.7170889066667" lon="35.2451153066667">
<ele>279.40000000000003</ele>
<time>2011-10-29T05:25:30Z</time>
</trkpt>
<trkpt lat="32.7171445425" lon="35.24509588">
<ele>279.825</ele>
<time>2011-10-29T05:25:34Z</time>
</trkpt>
<trkpt lat="32.7172052425" lon="35.245077165">
<ele>280.125</ele>
<time>2011-10-29T05:25:38Z</time>
</trkpt>
<trkpt lat="32.7172734325" lon="35.2450656225">
<ele>279.97499999999997</ele>
<time>2011-10-29T05:25:42Z</time>
</trkpt>
<trkpt lat="32.7173364025" lon="35.2450753325">
<ele>280.375</ele>
<time>2011-10-29T05:25:46Z</time>
</trkpt>
<trkpt lat="32.7174075975" lon="35.24508123">
<ele>281.20000000000005</ele>
<time>2011-10-29T05:25:50Z</time>
</trkpt>
<trkpt lat="32.7174679633333" lon="35.24507696">
<ele>282.1</ele>
<time>2011-10-29T05:25:53Z</time>
</trkpt>
<trkpt lat="32.7175080325" lon="35.2450943975">
<ele>282.475</ele>
<time>2011-10-29T05:25:57Z</time>
</trkpt>
<trkpt lat="32.7175216866667" lon="35.2451243333333">
<ele>282.6666666666667</ele>
<time>2011-10-29T05:26:00Z</time>
</trkpt>
<trkpt lat="32.71752139" lon="35.2451317">
<ele>282.775</ele>
<time>2011-10-29T05:26:04Z</time>
</trkpt>
<trkpt lat="32.71752273" lon="35.2451351825">
<ele>283.125</ele>
<time>2011-10-29T05:26:08Z</time>
</trkpt>
<trkpt lat="32.71752157" lon="35.24513551">
<ele>283.7</ele>
<time>2011-10-29T05:26:11Z</time>
</trkpt>
<trkpt lat="32.7175216666667" lon="35.2451338566667">
<ele>284.2666666666667</ele>
<time>2011-10-29T05:26:14Z</time>
</trkpt>
<trkpt lat="32.717520445" lon="35.2451324">
<ele>284.54999999999995</ele>
<time>2011-10-29T05:26:18Z</time>
</trkpt>
<trkpt lat="32.717517755" lon="35.2451332525">
<ele>284.9</ele>
<time>2011-10-29T05:26:22Z</time>
</trkpt>
<trkpt lat="32.7175200366667" lon="35.24513702">
<ele>285.06666666666666</ele>
<time>2011-10-29T05:26:25Z</time>
</trkpt>
<trkpt lat="32.71752176" lon="35.245135955">
<ele>285.2</ele>
<time>2011-10-29T05:26:29Z</time>
</trkpt>
<trkpt lat="32.71751943" lon="35.2451369233333">
<ele>285.26666666666665</ele>
<time>2011-10-29T05:26:32Z</time>
</trkpt>
<trkpt lat="32.717519185" lon="35.2451395425">
<ele>285.15</ele>
<time>2011-10-29T05:26:36Z</time>
</trkpt>
<trkpt lat="32.7175235075" lon="35.2451407225">
<ele>285.675</ele>
<time>2011-10-29T05:26:40Z</time>
</trkpt>
<trkpt lat="32.71752015" lon="35.2451464433333">
<ele>286.03333333333336</ele>
<time>2011-10-29T05:26:43Z</time>
</trkpt>
<trkpt lat="32.7175198475" lon="35.24514786">
<ele>286.275</ele>
<time>2011-10-29T05:26:47Z</time>
</trkpt>
<trkpt lat="32.7175195325" lon="35.24514825">
<ele>286.3</ele>
<time>2011-10-29T05:26:51Z</time>
</trkpt>
<trkpt lat="32.7175195333333" lon="35.2451482033333">
<ele>286.3</ele>
<time>2011-10-29T05:26:54Z</time>
</trkpt>
<trkpt lat="32.717519505" lon="35.245148255">
<ele>286.3</ele>
<time>2011-10-29T05:26:58Z</time>
</trkpt>
<trkpt lat="32.71751948" lon="35.24514835">
<ele>286.3666666666667</ele>
<time>2011-10-29T05:27:01Z</time>
</trkpt>
<trkpt lat="32.7175194725" lon="35.2451483375">
<ele>286.4</ele>
<time>2011-10-29T05:27:05Z</time>
</trkpt>
<trkpt lat="32.7175195" lon="35.24514833">
<ele>286.4</ele>
<time>2011-10-29T05:27:09Z</time>
</trkpt>
<trkpt lat="32.7175194966667" lon="35.24514837">
<ele>286.4</ele>
<time>2011-10-29T05:27:12Z</time>
</trkpt>
<trkpt lat="32.7175195425" lon="35.2451482975">
<ele>286.375</ele>
<time>2011-10-29T05:27:16Z</time>
</trkpt>
<trkpt lat="32.717519565" lon="35.2451482375">
<ele>286.3</ele>
<time>2011-10-29T05:27:20Z</time>
</trkpt>
<trkpt lat="32.7175195775" lon="35.2451482425">
<ele>286.3</ele>
<time>2011-10-29T05:27:24Z</time>
</trkpt>
<trkpt lat="32.717519565" lon="35.245148325">
<ele>286.3</ele>
<time>2011-10-29T05:27:28Z</time>
</trkpt>
<trkpt lat="32.7175195733333" lon="35.24514831">
<ele>286.3</ele>
<time>2011-10-29T05:27:31Z</time>
</trkpt>
<trkpt lat="32.71751959" lon="35.2451482466667">
<ele>286.3</ele>
<time>2011-10-29T05:27:34Z</time>
</trkpt>
<trkpt lat="32.7175195825" lon="35.2451482125">
<ele>286.3</ele>
<time>2011-10-29T05:27:38Z</time>
</trkpt>
<trkpt lat="32.7175195733333" lon="35.2451481933333">
<ele>286.3</ele>
<time>2011-10-29T05:27:41Z</time>
</trkpt>
<trkpt lat="32.7175196075" lon="35.2451481475">
<ele>286.3</ele>
<time>2011-10-29T05:27:45Z</time>
</trkpt>
<trkpt lat="32.7175196366667" lon="35.2451481066667">
<ele>286.3</ele>
<time>2011-10-29T05:27:48Z</time>
</trkpt>
<trkpt lat="32.7175196433333" lon="35.2451481133333">
<ele>286.3</ele>
<time>2011-10-29T05:27:51Z</time>
</trkpt>
<trkpt lat="32.7175196333333" lon="35.24514812">
<ele>286.3</ele>
<time>2011-10-29T05:27:54Z</time>
</trkpt>
<trkpt lat="32.7175196525" lon="35.2451481025">
<ele>286.3</ele>
<time>2011-10-29T05:27:58Z</time>
</trkpt>
<trkpt lat="32.717519715" lon="35.24514807">
<ele>286.3</ele>
<time>2011-10-29T05:28:02Z</time>
</trkpt>
<trkpt lat="32.7175197475" lon="35.2451480775">
<ele>286.3</ele>
<time>2011-10-29T05:28:06Z</time>
</trkpt>
<trkpt lat="32.7175197825" lon="35.2451480825">
<ele>286.3</ele>
<time>2011-10-29T05:28:10Z</time>
</trkpt>
<trkpt lat="32.7175198575" lon="35.2451480675">
<ele>286.3</ele>
<time>2011-10-29T05:28:14Z</time>
</trkpt>
<trkpt lat="32.7175198625" lon="35.2451482325">
<ele>286.3</ele>
<time>2011-10-29T05:28:18Z</time>
</trkpt>
<trkpt lat="32.7175244566667" lon="35.2451674033333">
<ele>286.3666666666666</ele>
<time>2011-10-29T05:28:21Z</time>
</trkpt>
<trkpt lat="32.71752132" lon="35.2452070366667">
<ele>286.73333333333335</ele>
<time>2011-10-29T05:28:24Z</time>
</trkpt>
<trkpt lat="32.7175146975" lon="35.24526679">
<ele>287.525</ele>
<time>2011-10-29T05:28:28Z</time>
</trkpt>
<trkpt lat="32.71753179" lon="35.2453433775">
<ele>287.875</ele>
<time>2011-10-29T05:28:32Z</time>
</trkpt>
<trkpt lat="32.7175513375" lon="35.24543158">
<ele>288.325</ele>
<time>2011-10-29T05:28:36Z</time>
</trkpt>
<trkpt lat="32.7175673175" lon="35.2455215">
<ele>289.325</ele>
<time>2011-10-29T05:28:40Z</time>
</trkpt>
<trkpt lat="32.7175795375" lon="35.245612365">
<ele>290.4</ele>
<time>2011-10-29T05:28:44Z</time>
</trkpt>
<trkpt lat="32.717605165" lon="35.2456946175">
<ele>291.8</ele>
<time>2011-10-29T05:28:48Z</time>
</trkpt>
<trkpt lat="32.71763537" lon="35.2457325833333">
<ele>292.3333333333333</ele>
<time>2011-10-29T05:28:51Z</time>
</trkpt>
<trkpt lat="32.7176840566667" lon="35.2457515266667">
<ele>292.5</ele>
<time>2011-10-29T05:28:54Z</time>
</trkpt>
<trkpt lat="32.7177451775" lon="35.245757665">
<ele>292.225</ele>
<time>2011-10-29T05:28:58Z</time>
</trkpt>
<trkpt lat="32.71780586" lon="35.2457493566667">
<ele>291.9</ele>
<time>2011-10-29T05:29:01Z</time>
</trkpt>
<trkpt lat="32.71785387" lon="35.2457454366667">
<ele>291.76666666666665</ele>
<time>2011-10-29T05:29:04Z</time>
</trkpt>
<trkpt lat="32.7179117825" lon="35.2457454325">
<ele>291.8</ele>
<time>2011-10-29T05:29:08Z</time>
</trkpt>
<trkpt lat="32.7179743325" lon="35.24573538">
<ele>292.25</ele>
<time>2011-10-29T05:29:12Z</time>
</trkpt>
<trkpt lat="32.71803844" lon="35.24570377">
<ele>292.7</ele>
<time>2011-10-29T05:29:15Z</time>
</trkpt>
<trkpt lat="32.718082205" lon="35.2456859925">
<ele>293.90000000000003</ele>
<time>2011-10-29T05:29:19Z</time>
</trkpt>
<trkpt lat="32.7181394733333" lon="35.24568568">
<ele>294.43333333333334</ele>
<time>2011-10-29T05:29:22Z</time>
</trkpt>
<trkpt lat="32.71819435" lon="35.24570676">
<ele>294.70000000000005</ele>
<time>2011-10-29T05:29:26Z</time>
</trkpt>
<trkpt lat="32.71823862" lon="35.2457520125">
<ele>295.625</ele>
<time>2011-10-29T05:29:30Z</time>
</trkpt>
<trkpt lat="32.7182630433333" lon="35.2457977866667">
<ele>297.0333333333333</ele>
<time>2011-10-29T05:29:33Z</time>
</trkpt>
<trkpt lat="32.71826385" lon="35.245868805">
<ele>298.0</ele>
<time>2011-10-29T05:29:37Z</time>
</trkpt>
<trkpt lat="32.7182571975" lon="35.2459575475">
<ele>299.175</ele>
<time>2011-10-29T05:29:41Z</time>
</trkpt>
<trkpt lat="32.7182333" lon="35.2460243433333">
<ele>300.13333333333327</ele>
<time>2011-10-29T05:29:44Z</time>
</trkpt>
<trkpt lat="32.718230985" lon="35.2460908925">
<ele>300.7</ele>
<time>2011-10-29T05:29:48Z</time>
</trkpt>
<trkpt lat="32.71824144" lon="35.2461698075">
<ele>300.8</ele>
<time>2011-10-29T05:29:52Z</time>
</trkpt>
<trkpt lat="32.7182329866667" lon="35.24623746">
<ele>301.2333333333333</ele>
<time>2011-10-29T05:29:55Z</time>
</trkpt>
<trkpt lat="32.7182312275" lon="35.2463000225">
<ele>302.0</ele>
<time>2011-10-29T05:29:59Z</time>
</trkpt>
<trkpt lat="32.7182305966667" lon="35.24635786">
<ele>302.93333333333334</ele>
<time>2011-10-29T05:30:02Z</time>
</trkpt>
<trkpt lat="32.7182401925" lon="35.2464100075">
<ele>304.225</ele>
<time>2011-10-29T05:30:06Z</time>
</trkpt>
<trkpt lat="32.7182538" lon="35.24647957">
<ele>304.95</ele>
<time>2011-10-29T05:30:10Z</time>
</trkpt>
<trkpt lat="32.718263015" lon="35.2465496125">
<ele>305.85</ele>
<time>2011-10-29T05:30:14Z</time>
</trkpt>
<trkpt lat="32.7182748875" lon="35.246625325">
<ele>305.9</ele>
<time>2011-10-29T05:30:18Z</time>
</trkpt>
<trkpt lat="32.71827876" lon="35.24669805">
<ele>306.275</ele>
<time>2011-10-29T05:30:22Z</time>
</trkpt>
<trkpt lat="32.7182784275" lon="35.24676432">
<ele>307.1</ele>
<time>2011-10-29T05:30:26Z</time>
</trkpt>
<trkpt lat="32.71827885" lon="35.2468213175">
<ele>308.2</ele>
<time>2011-10-29T05:30:30Z</time>
</trkpt>
<trkpt lat="32.71828257" lon="35.24688108">
<ele>308.8333333333333</ele>
<time>2011-10-29T05:30:33Z</time>
</trkpt>
<trkpt lat="32.7182881425" lon="35.24693814">
<ele>309.54999999999995</ele>
<time>2011-10-29T05:30:37Z</time>
</trkpt>
<trkpt lat="32.7182845066667" lon="35.24698794">
<ele>311.2</ele>
<time>2011-10-29T05:30:40Z</time>
</trkpt>
<trkpt lat="32.7182826366667" lon="35.2470338233333">
<ele>312.0</ele>
<time>2011-10-29T05:30:43Z</time>
</trkpt>
<trkpt lat="32.7183044466667" lon="35.24709033">
<ele>311.8666666666667</ele>
<time>2011-10-29T05:30:46Z</time>
</trkpt>
<trkpt lat="32.7183083325" lon="35.247157955">
<ele>312.675</ele>
<time>2011-10-29T05:30:50Z</time>
</trkpt>
<trkpt lat="32.71830812" lon="35.24722505">
<ele>313.46666666666664</ele>
<time>2011-10-29T05:30:53Z</time>
</trkpt>
<trkpt lat="32.7183147375" lon="35.2472897625">
<ele>313.75</ele>
<time>2011-10-29T05:30:57Z</time>
</trkpt>
<trkpt lat="32.7183203875" lon="35.247361555">
<ele>313.75</ele>
<time>2011-10-29T05:31:01Z</time>
</trkpt>
<trkpt lat="32.71833493" lon="35.2474251433333">
<ele>313.73333333333335</ele>
<time>2011-10-29T05:31:04Z</time>
</trkpt>
<trkpt lat="32.7183471875" lon="35.24748219">
<ele>313.875</ele>
<time>2011-10-29T05:31:08Z</time>
</trkpt>
<trkpt lat="32.7183459433333" lon="35.2475359333333">
<ele>314.8666666666667</ele>
<time>2011-10-29T05:31:11Z</time>
</trkpt>
<trkpt lat="32.7183419033333" lon="35.2475889133333">
<ele>314.73333333333335</ele>
<time>2011-10-29T05:31:14Z</time>
</trkpt>
<trkpt lat="32.71834714" lon="35.24764546">
<ele>315.525</ele>
<time>2011-10-29T05:31:18Z</time>
</trkpt>
<trkpt lat="32.718356585" lon="35.2477057675">
<ele>316.8</ele>
<time>2011-10-29T05:31:22Z</time>
</trkpt>
<trkpt lat="32.718366295" lon="35.2477661225">
<ele>318.29999999999995</ele>
<time>2011-10-29T05:31:26Z</time>
</trkpt>
<trkpt lat="32.7183748125" lon="35.24783299">
<ele>318.875</ele>
<time>2011-10-29T05:31:30Z</time>
</trkpt>
<trkpt lat="32.718390675" lon="35.2479015425">
<ele>318.84999999999997</ele>
<time>2011-10-29T05:31:34Z</time>
</trkpt>
<trkpt lat="32.7183763625" lon="35.24796599">
<ele>318.975</ele>
<time>2011-10-29T05:31:38Z</time>
</trkpt>
<trkpt lat="32.7183840425" lon="35.2480026675">
<ele>320.54999999999995</ele>
<time>2011-10-29T05:31:42Z</time>
</trkpt>
<trkpt lat="32.7184001475" lon="35.24804475">
<ele>323.275</ele>
<time>2011-10-29T05:31:46Z</time>
</trkpt>
<trkpt lat="32.71843147" lon="35.248135585">
<ele>323.7</ele>
<time>2011-10-29T05:31:50Z</time>
</trkpt>
<trkpt lat="32.71848276" lon="35.24819525">
<ele>322.76666666666665</ele>
<time>2011-10-29T05:31:53Z</time>
</trkpt>
<trkpt lat="32.7185227475" lon="35.24826031">
<ele>322.6</ele>
<time>2011-10-29T05:31:57Z</time>
</trkpt>
<trkpt lat="32.71855176" lon="35.2483212725">
<ele>322.975</ele>
<time>2011-10-29T05:32:01Z</time>
</trkpt>
<trkpt lat="32.7185898633333" lon="35.2483732933333">
<ele>322.76666666666665</ele>
<time>2011-10-29T05:32:04Z</time>
</trkpt>
<trkpt lat="32.7186039475" lon="35.24844726">
<ele>322.27500000000003</ele>
<time>2011-10-29T05:32:08Z</time>
</trkpt>
<trkpt lat="32.7185938233333" lon="35.24851821">
<ele>321.7</ele>
<time>2011-10-29T05:32:11Z</time>
</trkpt>
<trkpt lat="32.71856764" lon="35.2485527366667">
<ele>321.8333333333333</ele>
<time>2011-10-29T05:32:14Z</time>
</trkpt>
<trkpt lat="32.7185461675" lon="35.2486129475">
<ele>321.875</ele>
<time>2011-10-29T05:32:18Z</time>
</trkpt>
<trkpt lat="32.71853215" lon="35.2486691725">
<ele>321.275</ele>
<time>2011-10-29T05:32:22Z</time>
</trkpt>
<trkpt lat="32.7185183475" lon="35.24870832">
<ele>320.57500000000005</ele>
<time>2011-10-29T05:32:26Z</time>
</trkpt>
<trkpt lat="32.7185117475" lon="35.24873352">
<ele>320.0</ele>
<time>2011-10-29T05:32:30Z</time>
</trkpt>
<trkpt lat="32.7185102766667" lon="35.2487404466667">
<ele>319.6333333333333</ele>
<time>2011-10-29T05:32:33Z</time>
</trkpt>
<trkpt lat="32.71850398" lon="35.248749915">
<ele>319.92499999999995</ele>
<time>2011-10-29T05:32:37Z</time>
</trkpt>
<trkpt lat="32.7184940333333" lon="35.2487660266667">
<ele>319.73333333333335</ele>
<time>2011-10-29T05:32:40Z</time>
</trkpt>
<trkpt lat="32.7184614375" lon="35.24880557">
<ele>319.15</ele>
<time>2011-10-29T05:32:44Z</time>
</trkpt>
<trkpt lat="32.71842109" lon="35.248870835">
<ele>318.7</ele>
<time>2011-10-29T05:32:48Z</time>
</trkpt>
<trkpt lat="32.7183664733333" lon="35.24892858">
<ele>319.59999999999997</ele>
<time>2011-10-29T05:32:51Z</time>
</trkpt>
<trkpt lat="32.7183174566667" lon="35.24897151">
<ele>320.1333333333334</ele>
<time>2011-10-29T05:32:54Z</time>
</trkpt>
<trkpt lat="32.71826262" lon="35.24902214">
<ele>320.85</ele>
<time>2011-10-29T05:32:58Z</time>
</trkpt>
<trkpt lat="32.7182174966667" lon="35.2490701233333">
<ele>321.56666666666666</ele>
<time>2011-10-29T05:33:01Z</time>
</trkpt>
<trkpt lat="32.71816835" lon="35.2491045266667">
<ele>321.9666666666667</ele>
<time>2011-10-29T05:33:04Z</time>
</trkpt>
<trkpt lat="32.71811505" lon="35.24913257">
<ele>322.125</ele>
<time>2011-10-29T05:33:08Z</time>
</trkpt>
<trkpt lat="32.7180537175" lon="35.2491656675">
<ele>322.3</ele>
<time>2011-10-29T05:33:12Z</time>
</trkpt>
<trkpt lat="32.717996025" lon="35.2491943725">
<ele>323.175</ele>
<time>2011-10-29T05:33:16Z</time>
</trkpt>
<trkpt lat="32.7179395125" lon="35.2492357175">
<ele>324.125</ele>
<time>2011-10-29T05:33:20Z</time>
</trkpt>
<trkpt lat="32.7178878566667" lon="35.2492672933333">
<ele>325.00000000000006</ele>
<time>2011-10-29T05:33:23Z</time>
</trkpt>
<trkpt lat="32.71783855" lon="35.249304005">
<ele>325.65</ele>
<time>2011-10-29T05:33:27Z</time>
</trkpt>
<trkpt lat="32.7177818325" lon="35.249349065">
<ele>326.15</ele>
<time>2011-10-29T05:33:31Z</time>
</trkpt>
<trkpt lat="32.71773116" lon="35.2493723633333">
<ele>326.40000000000003</ele>
<time>2011-10-29T05:33:34Z</time>
</trkpt>
<trkpt lat="32.7176870425" lon="35.2493987675">
<ele>327.125</ele>
<time>2011-10-29T05:33:38Z</time>
</trkpt>
<trkpt lat="32.7176349925" lon="35.249431415">
<ele>327.85</ele>
<time>2011-10-29T05:33:42Z</time>
</trkpt>
<trkpt lat="32.7175878633333" lon="35.24945891">
<ele>328.4</ele>
<time>2011-10-29T05:33:45Z</time>
</trkpt>
<trkpt lat="32.717543115" lon="35.249486885">
<ele>329.07500000000005</ele>
<time>2011-10-29T05:33:49Z</time>
</trkpt>
<trkpt lat="32.71749541" lon="35.2495236533333">
<ele>329.8333333333333</ele>
<time>2011-10-29T05:33:52Z</time>
</trkpt>
<trkpt lat="32.7174539133333" lon="35.2495521566667">
<ele>330.59999999999997</ele>
<time>2011-10-29T05:33:55Z</time>
</trkpt>
<trkpt lat="32.7174101525" lon="35.249591285">
<ele>331.325</ele>
<time>2011-10-29T05:33:59Z</time>
</trkpt>
<trkpt lat="32.71737171" lon="35.24963501">
<ele>332.09999999999997</ele>
<time>2011-10-29T05:34:02Z</time>
</trkpt>
<trkpt lat="32.717337055" lon="35.249679305">
<ele>332.775</ele>
<time>2011-10-29T05:34:06Z</time>
</trkpt>
<trkpt lat="32.717303155" lon="35.2497351275">
<ele>333.65</ele>
<time>2011-10-29T05:34:10Z</time>
</trkpt>
<trkpt lat="32.7172781233333" lon="35.2497901733333">
<ele>334.3333333333333</ele>
<time>2011-10-29T05:34:13Z</time>
</trkpt>
<trkpt lat="32.7172512025" lon="35.2498490475">
<ele>335.075</ele>
<time>2011-10-29T05:34:17Z</time>
</trkpt>
<trkpt lat="32.7172214933333" lon="35.2499125033333">
<ele>335.9666666666667</ele>
<time>2011-10-29T05:34:20Z</time>
</trkpt>
<trkpt lat="32.7172017866667" lon="35.2499685666667">
<ele>336.7</ele>
<time>2011-10-29T05:34:23Z</time>
</trkpt>
<trkpt lat="32.7171866533333" lon="35.2500250433333">
<ele>337.4666666666667</ele>
<time>2011-10-29T05:34:26Z</time>
</trkpt>
<trkpt lat="32.7171786" lon="35.2500865425">
<ele>338.0</ele>
<time>2011-10-29T05:34:30Z</time>
</trkpt>
<trkpt lat="32.7171841666667" lon="35.2501519033333">
<ele>338.73333333333335</ele>
<time>2011-10-29T05:34:33Z</time>
</trkpt>
<trkpt lat="32.7171996725" lon="35.25021853">
<ele>339.175</ele>
<time>2011-10-29T05:34:37Z</time>
</trkpt>
<trkpt lat="32.7172379625" lon="35.2502807">
<ele>339.725</ele>
<time>2011-10-29T05:34:41Z</time>
</trkpt>
<trkpt lat="32.7172801566667" lon="35.25033282">
<ele>339.90000000000003</ele>
<time>2011-10-29T05:34:44Z</time>
</trkpt>
<trkpt lat="32.71730957" lon="35.2504050725">
<ele>340.75</ele>
<time>2011-10-29T05:34:48Z</time>
</trkpt>
<trkpt lat="32.7173061733333" lon="35.25047141">
<ele>341.63333333333327</ele>
<time>2011-10-29T05:34:51Z</time>
</trkpt>
<trkpt lat="32.7172794066667" lon="35.25050617">
<ele>341.90000000000003</ele>
<time>2011-10-29T05:34:54Z</time>
</trkpt>
<trkpt lat="32.7172575375" lon="35.2505630925">
<ele>341.725</ele>
<time>2011-10-29T05:34:58Z</time>
</trkpt>
<trkpt lat="32.7172368125" lon="35.2506375375">
<ele>341.375</ele>
<time>2011-10-29T05:35:02Z</time>
</trkpt>
<trkpt lat="32.7172050966667" lon="35.2507039833333">
<ele>341.3</ele>
<time>2011-10-29T05:35:05Z</time>
</trkpt>
<trkpt lat="32.7171785433333" lon="35.2507575433333">
<ele>341.8</ele>
<time>2011-10-29T05:35:08Z</time>
</trkpt>
<trkpt lat="32.71714506" lon="35.250801955">
<ele>342.925</ele>
<time>2011-10-29T05:35:12Z</time>
</trkpt>
<trkpt lat="32.71710306" lon="35.2508270833333">
<ele>344.9333333333334</ele>
<time>2011-10-29T05:35:15Z</time>
</trkpt>
<trkpt lat="32.7170810275" lon="35.25086337">
<ele>345.05</ele>
<time>2011-10-29T05:35:19Z</time>
</trkpt>
<trkpt lat="32.71705359" lon="35.25090804">
<ele>345.90000000000003</ele>
<time>2011-10-29T05:35:22Z</time>
</trkpt>
<trkpt lat="32.7170119775" lon="35.2509543375">
<ele>347.42499999999995</ele>
<time>2011-10-29T05:35:26Z</time>
</trkpt>
<trkpt lat="32.7169785533333" lon="35.25100056">
<ele>347.43333333333334</ele>
<time>2011-10-29T05:35:29Z</time>
</trkpt>
<trkpt lat="32.7169434125" lon="35.2510312975">
<ele>347.2</ele>
<time>2011-10-29T05:35:33Z</time>
</trkpt>
<trkpt lat="32.7169015375" lon="35.2510588275">
<ele>347.75</ele>
<time>2011-10-29T05:35:37Z</time>
</trkpt>
<trkpt lat="32.7168694125" lon="35.2510877525">
<ele>348.87500000000006</ele>
<time>2011-10-29T05:35:41Z</time>
</trkpt>
<trkpt lat="32.71684759" lon="35.2511144033333">
<ele>349.1333333333334</ele>
<time>2011-10-29T05:35:44Z</time>
</trkpt>
<trkpt lat="32.7168130025" lon="35.251126755">
<ele>348.925</ele>
<time>2011-10-29T05:35:48Z</time>
</trkpt>
<trkpt lat="32.7167807966667" lon="35.2511341966667">
<ele>349.0333333333333</ele>
<time>2011-10-29T05:35:51Z</time>
</trkpt>
<trkpt lat="32.7167201166667" lon="35.25113434">
<ele>350.76666666666665</ele>
<time>2011-10-29T05:35:54Z</time>
</trkpt>
<trkpt lat="32.7166697125" lon="35.2511878775">
<ele>351.35</ele>
<time>2011-10-29T05:35:58Z</time>
</trkpt>
<trkpt lat="32.7166290466667" lon="35.25122941">
<ele>350.40000000000003</ele>
<time>2011-10-29T05:36:01Z</time>
</trkpt>
<trkpt lat="32.71658608" lon="35.2512549833333">
<ele>349.6666666666667</ele>
<time>2011-10-29T05:36:04Z</time>
</trkpt>
<trkpt lat="32.716543325" lon="35.251302735">
<ele>349.15</ele>
<time>2011-10-29T05:36:08Z</time>
</trkpt>
<trkpt lat="32.7164986966667" lon="35.2513376766667">
<ele>349.59999999999997</ele>
<time>2011-10-29T05:36:11Z</time>
</trkpt>
<trkpt lat="32.7164760433333" lon="35.2513715066667">
<ele>349.73333333333335</ele>
<time>2011-10-29T05:36:14Z</time>
</trkpt>
<trkpt lat="32.71647606" lon="35.2514278575">
<ele>349.975</ele>
<time>2011-10-29T05:36:18Z</time>
</trkpt>
<trkpt lat="32.7164833025" lon="35.25148533">
<ele>350.575</ele>
<time>2011-10-29T05:36:22Z</time>
</trkpt>
<trkpt lat="32.7164623775" lon="35.2515109375">
<ele>350.425</ele>
<time>2011-10-29T05:36:26Z</time>
</trkpt>
<trkpt lat="32.7164702575" lon="35.251474675">
<ele>350.225</ele>
<time>2011-10-29T05:36:30Z</time>
</trkpt>
<trkpt lat="32.716500435" lon="35.2514212825">
<ele>349.725</ele>
<time>2011-10-29T05:36:34Z</time>
</trkpt>
<trkpt lat="32.7165162725" lon="35.251371565">
<ele>349.35</ele>
<time>2011-10-29T05:36:38Z</time>
</trkpt>
<trkpt lat="32.7165401533333" lon="35.25133273">
<ele>348.5333333333333</ele>
<time>2011-10-29T05:36:41Z</time>
</trkpt>
<trkpt lat="32.7165651466667" lon="35.2513080466667">
<ele>348.4666666666667</ele>
<time>2011-10-29T05:36:44Z</time>
</trkpt>
<trkpt lat="32.7165835025" lon="35.25128176">
<ele>348.225</ele>
<time>2011-10-29T05:36:48Z</time>
</trkpt>
<trkpt lat="32.7166073633333" lon="35.2512564766667">
<ele>347.6666666666667</ele>
<time>2011-10-29T05:36:51Z</time>
</trkpt>
<trkpt lat="32.71663589" lon="35.25124132">
<ele>347.6333333333334</ele>
<time>2011-10-29T05:36:54Z</time>
</trkpt>
<trkpt lat="32.7166771933333" lon="35.25123284">
<ele>347.40000000000003</ele>
<time>2011-10-29T05:36:57Z</time>
</trkpt>
<trkpt lat="32.7167004725" lon="35.2511930425">
<ele>346.82500000000005</ele>
<time>2011-10-29T05:37:01Z</time>
</trkpt>
<trkpt lat="32.71672693" lon="35.2511633175">
<ele>346.625</ele>
<time>2011-10-29T05:37:05Z</time>
</trkpt>
<trkpt lat="32.7167414433333" lon="35.2511415433333">
<ele>347.3333333333333</ele>
<time>2011-10-29T05:37:08Z</time>
</trkpt>
<trkpt lat="32.71675963" lon="35.2511214566667">
<ele>347.6666666666667</ele>
<time>2011-10-29T05:37:11Z</time>
</trkpt>
<trkpt lat="32.71679948" lon="35.2511079566667">
<ele>347.76666666666665</ele>
<time>2011-10-29T05:37:14Z</time>
</trkpt>
<trkpt lat="32.7168318175" lon="35.2510885675">
<ele>347.65</ele>
<time>2011-10-29T05:37:18Z</time>
</trkpt>
<trkpt lat="32.7168656966667" lon="35.2510835066667">
<ele>347.4666666666667</ele>
<time>2011-10-29T05:37:21Z</time>
</trkpt>
<trkpt lat="32.7168738866667" lon="35.25107281">
<ele>347.6666666666667</ele>
<time>2011-10-29T05:37:24Z</time>
</trkpt>
<trkpt lat="32.7168599825" lon="35.251073005">
<ele>347.49999999999994</ele>
<time>2011-10-29T05:37:28Z</time>
</trkpt>
<trkpt lat="32.7168566566667" lon="35.2510718">
<ele>347.70000000000005</ele>
<time>2011-10-29T05:37:31Z</time>
</trkpt>
<trkpt lat="32.71685364" lon="35.2510734166667">
<ele>347.6000000000001</ele>
<time>2011-10-29T05:37:34Z</time>
</trkpt>
<trkpt lat="32.7168531775" lon="35.25107403">
<ele>347.7</ele>
<time>2011-10-29T05:37:38Z</time>
</trkpt>
<trkpt lat="32.71685316" lon="35.2510741066667">
<ele>347.7</ele>
<time>2011-10-29T05:37:41Z</time>
</trkpt>
<trkpt lat="32.7168531433333" lon="35.2510741333333">
<ele>347.7</ele>
<time>2011-10-29T05:37:44Z</time>
</trkpt>
<trkpt lat="32.716853125" lon="35.2510741525">
<ele>347.7</ele>
<time>2011-10-29T05:37:48Z</time>
</trkpt>
<trkpt lat="32.716853105" lon="35.2510742025">
<ele>347.7</ele>
<time>2011-10-29T05:37:52Z</time>
</trkpt>
<trkpt lat="32.7168530825" lon="35.2510742525">
<ele>347.7</ele>
<time>2011-10-29T05:37:56Z</time>
</trkpt>
<trkpt lat="32.7168530825" lon="35.2510743275">
<ele>347.7</ele>
<time>2011-10-29T05:38:00Z</time>
</trkpt>
<trkpt lat="32.71685305" lon="35.2510743666667">
<ele>347.7</ele>
<time>2011-10-29T05:38:03Z</time>
</trkpt>
<trkpt lat="32.7168529933333" lon="35.2510743633333">
<ele>347.7</ele>
<time>2011-10-29T05:38:06Z</time>
</trkpt>
<trkpt lat="32.7168529375" lon="35.25107435">
<ele>347.7</ele>
<time>2011-10-29T05:38:10Z</time>
</trkpt>
<trkpt lat="32.71685276" lon="35.2510744866667">
<ele>347.7</ele>
<time>2011-10-29T05:38:13Z</time>
</trkpt>
<trkpt lat="32.716852635" lon="35.2510745825">
<ele>347.7</ele>
<time>2011-10-29T05:38:17Z</time>
</trkpt>
<trkpt lat="32.7168527166667" lon="35.25107465">
<ele>347.7</ele>
<time>2011-10-29T05:38:20Z</time>
</trkpt>
<trkpt lat="32.716866135" lon="35.2510729425">
<ele>348.70000000000005</ele>
<time>2011-10-29T05:38:24Z</time>
</trkpt>
<trkpt lat="32.71691311" lon="35.2510876575">
<ele>349.57500000000005</ele>
<time>2011-10-29T05:38:28Z</time>
</trkpt>
<trkpt lat="32.7169849275" lon="35.2510960825">
<ele>347.45</ele>
<time>2011-10-29T05:38:32Z</time>
</trkpt>
<trkpt lat="32.71704357" lon="35.2510807766667">
<ele>347.40000000000003</ele>
<time>2011-10-29T05:38:35Z</time>
</trkpt>
<trkpt lat="32.717092835" lon="35.2510499875">
<ele>347.875</ele>
<time>2011-10-29T05:38:39Z</time>
</trkpt>
<trkpt lat="32.7171449575" lon="35.2510383475">
<ele>347.1</ele>
<time>2011-10-29T05:38:43Z</time>
</trkpt>
<trkpt lat="32.7172152725" lon="35.25107513">
<ele>343.6</ele>
<time>2011-10-29T05:38:47Z</time>
</trkpt>
<trkpt lat="32.71728148" lon="35.25115496">
<ele>341.77500000000003</ele>
<time>2011-10-29T05:38:51Z</time>
</trkpt>
<trkpt lat="32.7173133066667" lon="35.2512063666667">
<ele>340.2333333333333</ele>
<time>2011-10-29T05:38:54Z</time>
</trkpt>
<trkpt lat="32.717349275" lon="35.251258455">
<ele>341.2</ele>
<time>2011-10-29T05:38:58Z</time>
</trkpt>
<trkpt lat="32.71738333" lon="35.2513103375">
<ele>343.97499999999997</ele>
<time>2011-10-29T05:39:02Z</time>
</trkpt>
<trkpt lat="32.7173945866667" lon="35.2513480766667">
<ele>347.4666666666667</ele>
<time>2011-10-29T05:39:05Z</time>
</trkpt>
<trkpt lat="32.7173943425" lon="35.2513704925">
<ele>351.875</ele>
<time>2011-10-29T05:39:09Z</time>
</trkpt>
<trkpt lat="32.717445145" lon="35.2513852875">
<ele>354.4</ele>
<time>2011-10-29T05:39:13Z</time>
</trkpt>
<trkpt lat="32.7175348925" lon="35.2514339825">
<ele>352.975</ele>
<time>2011-10-29T05:39:17Z</time>
</trkpt>
<trkpt lat="32.7175896433333" lon="35.2514764533333">
<ele>351.59999999999997</ele>
<time>2011-10-29T05:39:20Z</time>
</trkpt>
<trkpt lat="32.7176229" lon="35.251487445">
<ele>352.44999999999993</ele>
<time>2011-10-29T05:39:24Z</time>
</trkpt>
<trkpt lat="32.71766455" lon="35.2514992533333">
<ele>350.1333333333334</ele>
<time>2011-10-29T05:39:27Z</time>
</trkpt>
<trkpt lat="32.71769821" lon="35.2514813666667">
<ele>350.2</ele>
<time>2011-10-29T05:39:30Z</time>
</trkpt>
<trkpt lat="32.717751765" lon="35.251462155">
<ele>350.65</ele>
<time>2011-10-29T05:39:34Z</time>
</trkpt>
<trkpt lat="32.7178173675" lon="35.251448545">
<ele>350.725</ele>
<time>2011-10-29T05:39:38Z</time>
</trkpt>
<trkpt lat="32.71787096" lon="35.25140398">
<ele>350.65</ele>
<time>2011-10-29T05:39:42Z</time>
</trkpt>
<trkpt lat="32.7179237033333" lon="35.2513603233333">
<ele>349.8</ele>
<time>2011-10-29T05:39:45Z</time>
</trkpt>
<trkpt lat="32.7179887366667" lon="35.2513184966667">
<ele>349.4333333333334</ele>
<time>2011-10-29T05:39:48Z</time>
</trkpt>
<trkpt lat="32.7180723225" lon="35.2513673325">
<ele>348.575</ele>
<time>2011-10-29T05:39:52Z</time>
</trkpt>
<trkpt lat="32.7181742933333" lon="35.2514467366667">
<ele>347.0333333333333</ele>
<time>2011-10-29T05:39:55Z</time>
</trkpt>
<trkpt lat="32.7182364375" lon="35.2515108975">
<ele>346.55</ele>
<time>2011-10-29T05:39:59Z</time>
</trkpt>
<trkpt lat="32.71829887" lon="35.2515678966667">
<ele>346.3</ele>
<time>2011-10-29T05:40:02Z</time>
</trkpt>
<trkpt lat="32.71838862" lon="35.2516521425">
<ele>345.2</ele>
<time>2011-10-29T05:40:06Z</time>
</trkpt>
<trkpt lat="32.71849561" lon="35.251772925">
<ele>344.95</ele>
<time>2011-10-29T05:40:10Z</time>
</trkpt>
<trkpt lat="32.7185902525" lon="35.2518575375">
<ele>342.725</ele>
<time>2011-10-29T05:40:14Z</time>
</trkpt>
<trkpt lat="32.7186835866667" lon="35.2518613433333">
<ele>341.2</ele>
<time>2011-10-29T05:40:17Z</time>
</trkpt>
<trkpt lat="32.7187313966667" lon="35.2518123233333">
<ele>340.93333333333334</ele>
<time>2011-10-29T05:40:20Z</time>
</trkpt>
<trkpt lat="32.71879388" lon="35.251719365">
<ele>338.675</ele>
<time>2011-10-29T05:40:24Z</time>
</trkpt>
<trkpt lat="32.71882115" lon="35.2516370133333">
<ele>337.3666666666666</ele>
<time>2011-10-29T05:40:27Z</time>
</trkpt>
<trkpt lat="32.7187626375" lon="35.2515363825">
<ele>335.225</ele>
<time>2011-10-29T05:40:31Z</time>
</trkpt>
<trkpt lat="32.71876056" lon="35.2514637875">
<ele>334.5</ele>
<time>2011-10-29T05:40:35Z</time>
</trkpt>
<trkpt lat="32.7187364225" lon="35.251408155">
<ele>332.4</ele>
<time>2011-10-29T05:40:39Z</time>
</trkpt>
<trkpt lat="32.7186973225" lon="35.251370105">
<ele>331.15</ele>
<time>2011-10-29T05:40:43Z</time>
</trkpt>
<trkpt lat="32.71869009" lon="35.25137833">
<ele>330.92500000000007</ele>
<time>2011-10-29T05:40:47Z</time>
</trkpt>
<trkpt lat="32.71867058" lon="35.2513560333333">
<ele>332.0333333333333</ele>
<time>2011-10-29T05:40:50Z</time>
</trkpt>
<trkpt lat="32.7186743825" lon="35.2513242175">
<ele>330.0</ele>
<time>2011-10-29T05:40:54Z</time>
</trkpt>
<trkpt lat="32.7186704566667" lon="35.25131553">
<ele>329.8333333333333</ele>
<time>2011-10-29T05:40:57Z</time>
</trkpt>
<trkpt lat="32.7186661633333" lon="35.2513057433333">
<ele>330.1333333333334</ele>
<time>2011-10-29T05:41:00Z</time>
</trkpt>
<trkpt lat="32.71866649" lon="35.2512996325">
<ele>330.25</ele>
<time>2011-10-29T05:41:04Z</time>
</trkpt>
<trkpt lat="32.7186738133333" lon="35.25128884">
<ele>330.5</ele>
<time>2011-10-29T05:41:07Z</time>
</trkpt>
<trkpt lat="32.7186822833333" lon="35.2512808766667">
<ele>331.1666666666667</ele>
<time>2011-10-29T05:41:10Z</time>
</trkpt>
<trkpt lat="32.7186855625" lon="35.2512802025">
<ele>331.4</ele>
<time>2011-10-29T05:41:14Z</time>
</trkpt>
<trkpt lat="32.7186858066667" lon="35.2512801666667">
<ele>331.3</ele>
<time>2011-10-29T05:41:17Z</time>
</trkpt>
<trkpt lat="32.718686065" lon="35.25128005">
<ele>331.3</ele>
<time>2011-10-29T05:41:21Z</time>
</trkpt>
<trkpt lat="32.71868606" lon="35.2512800325">
<ele>331.3</ele>
<time>2011-10-29T05:41:25Z</time>
</trkpt>
<trkpt lat="32.7186860133333" lon="35.25127998">
<ele>331.3</ele>
<time>2011-10-29T05:41:28Z</time>
</trkpt>
<trkpt lat="32.718686035" lon="35.2512799325">
<ele>331.3</ele>
<time>2011-10-29T05:41:32Z</time>
</trkpt>
<trkpt lat="32.71868622" lon="35.2512799475">
<ele>331.3</ele>
<time>2011-10-29T05:41:36Z</time>
</trkpt>
<trkpt lat="32.7186863433333" lon="35.2512799866667">
<ele>331.26666666666665</ele>
<time>2011-10-29T05:41:39Z</time>
</trkpt>
<trkpt lat="32.7186864633333" lon="35.25128002">
<ele>331.2</ele>
<time>2011-10-29T05:41:42Z</time>
</trkpt>
<trkpt lat="32.71868665" lon="35.25128">
<ele>331.2</ele>
<time>2011-10-29T05:41:46Z</time>
</trkpt>
<trkpt lat="32.7186867975" lon="35.2512799575">
<ele>331.2</ele>
<time>2011-10-29T05:41:50Z</time>
</trkpt>
<trkpt lat="32.7186868533333" lon="35.2512800533333">
<ele>331.2</ele>
<time>2011-10-29T05:41:53Z</time>
</trkpt>
<trkpt lat="32.7186868433333" lon="35.2512801">
<ele>331.2</ele>
<time>2011-10-29T05:41:56Z</time>
</trkpt>
<trkpt lat="32.7186868425" lon="35.2512800575">
<ele>331.2</ele>
<time>2011-10-29T05:42:00Z</time>
</trkpt>
<trkpt lat="32.7186868675" lon="35.2512800075">
<ele>331.2</ele>
<time>2011-10-29T05:42:04Z</time>
</trkpt>
<trkpt lat="32.7186868675" lon="35.2512800175">
<ele>331.2</ele>
<time>2011-10-29T05:42:08Z</time>
</trkpt>
<trkpt lat="32.71868681" lon="35.251280095">
<ele>331.2</ele>
<time>2011-10-29T05:42:12Z</time>
</trkpt>
<trkpt lat="32.7186867325" lon="35.25128015">
<ele>331.2</ele>
<time>2011-10-29T05:42:16Z</time>
</trkpt>
<trkpt lat="32.7186867066667" lon="35.25128018">
<ele>331.2</ele>
<time>2011-10-29T05:42:19Z</time>
</trkpt>
<trkpt lat="32.7186866575" lon="35.251280185">
<ele>331.2</ele>
<time>2011-10-29T05:42:23Z</time>
</trkpt>
<trkpt lat="32.71868662" lon="35.2512801733333">
<ele>331.2</ele>
<time>2011-10-29T05:42:26Z</time>
</trkpt>
<trkpt lat="32.7186866" lon="35.2512801533333">
<ele>331.2</ele>
<time>2011-10-29T05:42:29Z</time>
</trkpt>
<trkpt lat="32.71868658" lon="35.2512801575">
<ele>331.2</ele>
<time>2011-10-29T05:42:33Z</time>
</trkpt>
<trkpt lat="32.7186865833333" lon="35.25128015">
<ele>331.2</ele>
<time>2011-10-29T05:42:36Z</time>
</trkpt>
<trkpt lat="32.7186865633333" lon="35.25128014">
<ele>331.2</ele>
<time>2011-10-29T05:42:39Z</time>
</trkpt>
<trkpt lat="32.71868649" lon="35.25128008">
<ele>331.2</ele>
<time>2011-10-29T05:42:43Z</time>
</trkpt>
<trkpt lat="32.71868649" lon="35.2512800666667">
<ele>331.2</ele>
<time>2011-10-29T05:42:46Z</time>
</trkpt>
<trkpt lat="32.7186874" lon="35.2512794833333">
<ele>331.3</ele>
<time>2011-10-29T05:42:49Z</time>
</trkpt>
<trkpt lat="32.7186726975" lon="35.2512565825">
<ele>330.79999999999995</ele>
<time>2011-10-29T05:42:53Z</time>
</trkpt>
<trkpt lat="32.718632635" lon="35.2511350075">
<ele>330.125</ele>
<time>2011-10-29T05:42:57Z</time>
</trkpt>
<trkpt lat="32.7186959933333" lon="35.25102461">
<ele>327.5</ele>
<time>2011-10-29T05:43:00Z</time>
</trkpt>
<trkpt lat="32.7187302375" lon="35.2510078975">
<ele>327.7</ele>
<time>2011-10-29T05:43:04Z</time>
</trkpt>
<trkpt lat="32.7187894166667" lon="35.2510091">
<ele>327.56666666666666</ele>
<time>2011-10-29T05:43:07Z</time>
</trkpt>
<trkpt lat="32.718949825" lon="35.25113188">
<ele>323.575</ele>
<time>2011-10-29T05:43:11Z</time>
</trkpt>
<trkpt lat="32.7190980775" lon="35.2512752375">
<ele>322.575</ele>
<time>2011-10-29T05:43:15Z</time>
</trkpt>
<trkpt lat="32.719205715" lon="35.251431355">
<ele>321.875</ele>
<time>2011-10-29T05:43:19Z</time>
</trkpt>
<trkpt lat="32.7192773025" lon="35.2515732775">
<ele>322.05</ele>
<time>2011-10-29T05:43:23Z</time>
</trkpt>
<trkpt lat="32.7193405266667" lon="35.2516552633333">
<ele>323.23333333333335</ele>
<time>2011-10-29T05:43:26Z</time>
</trkpt>
<trkpt lat="32.7193873925" lon="35.2517571875">
<ele>323.52500000000003</ele>
<time>2011-10-29T05:43:30Z</time>
</trkpt>
<trkpt lat="32.7194493425" lon="35.251878845">
<ele>323.82500000000005</ele>
<time>2011-10-29T05:43:34Z</time>
</trkpt>
<trkpt lat="32.719500635" lon="35.252019095">
<ele>323.85</ele>
<time>2011-10-29T05:43:38Z</time>
</trkpt>
<trkpt lat="32.7195088875" lon="35.25211436">
<ele>322.77500000000003</ele>
<time>2011-10-29T05:43:42Z</time>
</trkpt>
<trkpt lat="32.719521385" lon="35.252245855">
<ele>323.325</ele>
<time>2011-10-29T05:43:46Z</time>
</trkpt>
<trkpt lat="32.7195010966667" lon="35.2523359666667">
<ele>322.40000000000003</ele>
<time>2011-10-29T05:43:49Z</time>
</trkpt>
<trkpt lat="32.71956322" lon="35.2524062325">
<ele>322.125</ele>
<time>2011-10-29T05:43:53Z</time>
</trkpt>
<trkpt lat="32.7196118866667" lon="35.2525144933333">
<ele>322.8666666666667</ele>
<time>2011-10-29T05:43:56Z</time>
</trkpt>
<trkpt lat="32.7196074666667" lon="35.2526533766667">
<ele>322.6666666666667</ele>
<time>2011-10-29T05:43:59Z</time>
</trkpt>
<trkpt lat="32.719574565" lon="35.2528395025">
<ele>320.575</ele>
<time>2011-10-29T05:44:03Z</time>
</trkpt>
<trkpt lat="32.7195103525" lon="35.25295864">
<ele>318.35</ele>
<time>2011-10-29T05:44:07Z</time>
</trkpt>
<trkpt lat="32.7195043166667" lon="35.2530564766667">
<ele>316.56666666666666</ele>
<time>2011-10-29T05:44:10Z</time>
</trkpt>
<trkpt lat="32.719603995" lon="35.2531151925">
<ele>315.375</ele>
<time>2011-10-29T05:44:14Z</time>
</trkpt>
<trkpt lat="32.719723735" lon="35.253227115">
<ele>312.325</ele>
<time>2011-10-29T05:44:18Z</time>
</trkpt>
<trkpt lat="32.71975385" lon="35.25329431">
<ele>311.1666666666667</ele>
<time>2011-10-29T05:44:21Z</time>
</trkpt>
<trkpt lat="32.7198166633333" lon="35.25328676">
<ele>311.1</ele>
<time>2011-10-29T05:44:24Z</time>
</trkpt>
<trkpt lat="32.7198861275" lon="35.2532234075">
<ele>310.90000000000003</ele>
<time>2011-10-29T05:44:28Z</time>
</trkpt>
<trkpt lat="32.719930635" lon="35.2532147375">
<ele>310.6</ele>
<time>2011-10-29T05:44:32Z</time>
</trkpt>
<trkpt lat="32.7199265066667" lon="35.2532423966667">
<ele>310.59999999999997</ele>
<time>2011-10-29T05:44:35Z</time>
</trkpt>
<trkpt lat="32.7199204125" lon="35.2533247675">
<ele>311.0</ele>
<time>2011-10-29T05:44:39Z</time>
</trkpt>
<trkpt lat="32.719940595" lon="35.2533790025">
<ele>309.625</ele>
<time>2011-10-29T05:44:43Z</time>
</trkpt>
<trkpt lat="32.71994849" lon="35.2533795325">
<ele>309.2</ele>
<time>2011-10-29T05:44:47Z</time>
</trkpt>
<trkpt lat="32.7199484066667" lon="35.25337719">
<ele>310.06666666666666</ele>
<time>2011-10-29T05:44:50Z</time>
</trkpt>
<trkpt lat="32.7199565375" lon="35.2533761175">
<ele>311.32500000000005</ele>
<time>2011-10-29T05:44:54Z</time>
</trkpt>
<trkpt lat="32.7199708225" lon="35.2533795675">
<ele>311.375</ele>
<time>2011-10-29T05:44:58Z</time>
</trkpt>
<trkpt lat="32.719971805" lon="35.2533795075">
<ele>311.32500000000005</ele>
<time>2011-10-29T05:45:02Z</time>
</trkpt>
<trkpt lat="32.7199734866667" lon="35.25337683">
<ele>310.8333333333333</ele>
<time>2011-10-29T05:45:05Z</time>
</trkpt>
<trkpt lat="32.719973585" lon="35.2533751825">
<ele>311.15</ele>
<time>2011-10-29T05:45:09Z</time>
</trkpt>
<trkpt lat="32.7199743125" lon="35.253365815">
<ele>311.625</ele>
<time>2011-10-29T05:45:13Z</time>
</trkpt>
<trkpt lat="32.71998389" lon="35.2533511975">
<ele>311.45</ele>
<time>2011-10-29T05:45:17Z</time>
</trkpt>
<trkpt lat="32.71999557" lon="35.2533605766667">
<ele>310.7</ele>
<time>2011-10-29T05:45:20Z</time>
</trkpt>
<trkpt lat="32.719992395" lon="35.253377525">
<ele>310.54999999999995</ele>
<time>2011-10-29T05:45:24Z</time>
</trkpt>
<trkpt lat="32.7199814933333" lon="35.25337136">
<ele>312.8</ele>
<time>2011-10-29T05:45:27Z</time>
</trkpt>
<trkpt lat="32.71998538" lon="35.2533752066667">
<ele>312.16666666666663</ele>
<time>2011-10-29T05:45:30Z</time>
</trkpt>
<trkpt lat="32.7199842566667" lon="35.25337447">
<ele>311.8333333333333</ele>
<time>2011-10-29T05:45:33Z</time>
</trkpt>
<trkpt lat="32.7199742925" lon="35.25338768">
<ele>310.79999999999995</ele>
<time>2011-10-29T05:45:37Z</time>
</trkpt>
<trkpt lat="32.7199663233333" lon="35.2533997366667">
<ele>311.1666666666667</ele>
<time>2011-10-29T05:45:40Z</time>
</trkpt>
<trkpt lat="32.719971235" lon="35.25340244">
<ele>311.375</ele>
<time>2011-10-29T05:45:44Z</time>
</trkpt>
<trkpt lat="32.719974755" lon="35.2534062475">
<ele>310.775</ele>
<time>2011-10-29T05:45:48Z</time>
</trkpt>
<trkpt lat="32.719972165" lon="35.253414615">
<ele>310.3</ele>
<time>2011-10-29T05:45:52Z</time>
</trkpt>
<trkpt lat="32.7199667266667" lon="35.2534216566667">
<ele>310.1333333333333</ele>
<time>2011-10-29T05:45:55Z</time>
</trkpt>
<trkpt lat="32.7199402225" lon="35.253417155">
<ele>310.55</ele>
<time>2011-10-29T05:45:59Z</time>
</trkpt>
<trkpt lat="32.719903665" lon="35.2533874275">
<ele>311.35</ele>
<time>2011-10-29T05:46:03Z</time>
</trkpt>
<trkpt lat="32.7199067833333" lon="35.2533724166667">
<ele>310.1333333333333</ele>
<time>2011-10-29T05:46:06Z</time>
</trkpt>
<trkpt lat="32.7199154933333" lon="35.2533627533333">
<ele>308.8</ele>
<time>2011-10-29T05:46:09Z</time>
</trkpt>
<trkpt lat="32.7199178933333" lon="35.2533649666667">
<ele>309.6333333333334</ele>
<time>2011-10-29T05:46:12Z</time>
</trkpt>
<trkpt lat="32.71991561" lon="35.2533781425">
<ele>309.45</ele>
<time>2011-10-29T05:46:16Z</time>
</trkpt>
<trkpt lat="32.7199204966667" lon="35.25338182">
<ele>309.4</ele>
<time>2011-10-29T05:46:19Z</time>
</trkpt>
<trkpt lat="32.719923865" lon="35.2533840525">
<ele>309.225</ele>
<time>2011-10-29T05:46:23Z</time>
</trkpt>
<trkpt lat="32.7199244633333" lon="35.25338379">
<ele>309.2</ele>
<time>2011-10-29T05:46:26Z</time>
</trkpt>
<trkpt lat="32.7199244266667" lon="35.2533832866667">
<ele>309.23333333333335</ele>
<time>2011-10-29T05:46:29Z</time>
</trkpt>
<trkpt lat="32.71992428" lon="35.2533879375">
<ele>309.0</ele>
<time>2011-10-29T05:46:33Z</time>
</trkpt>
<trkpt lat="32.7199082125" lon="35.253380615">
<ele>309.67499999999995</ele>
<time>2011-10-29T05:46:37Z</time>
</trkpt>
<trkpt lat="32.7199007" lon="35.2533818825">
<ele>310.4</ele>
<time>2011-10-29T05:46:41Z</time>
</trkpt>
<trkpt lat="32.71990223" lon="35.25336662">
<ele>311.06666666666666</ele>
<time>2011-10-29T05:46:44Z</time>
</trkpt>
<trkpt lat="32.7199047875" lon="35.253350255">
<ele>311.375</ele>
<time>2011-10-29T05:46:48Z</time>
</trkpt>
<trkpt lat="32.719905725" lon="35.2533402575">
<ele>311.45000000000005</ele>
<time>2011-10-29T05:46:52Z</time>
</trkpt>
<trkpt lat="32.719909595" lon="35.2533478125">
<ele>311.35</ele>
<time>2011-10-29T05:46:56Z</time>
</trkpt>
<trkpt lat="32.7199128433333" lon="35.2533446633333">
<ele>311.3666666666666</ele>
<time>2011-10-29T05:46:59Z</time>
</trkpt>
<trkpt lat="32.71991905" lon="35.2533423825">
<ele>311.475</ele>
<time>2011-10-29T05:47:03Z</time>
</trkpt>
<trkpt lat="32.7199229833333" lon="35.2533419933333">
<ele>311.6</ele>
<time>2011-10-29T05:47:06Z</time>
</trkpt>
<trkpt lat="32.7199231433333" lon="35.25334178">
<ele>311.6</ele>
<time>2011-10-29T05:47:09Z</time>
</trkpt>
<trkpt lat="32.719923125" lon="35.253341675">
<ele>311.6</ele>
<time>2011-10-29T05:47:13Z</time>
</trkpt>
<trkpt lat="32.7199221525" lon="35.2533412375">
<ele>311.85</ele>
<time>2011-10-29T05:47:17Z</time>
</trkpt>
<trkpt lat="32.71992413" lon="35.25333931">
<ele>312.6666666666667</ele>
<time>2011-10-29T05:47:20Z</time>
</trkpt>
<trkpt lat="32.719932595" lon="35.2533744175">
<ele>311.925</ele>
<time>2011-10-29T05:47:24Z</time>
</trkpt>
<trkpt lat="32.7199334" lon="35.25337558">
<ele>311.225</ele>
<time>2011-10-29T05:47:28Z</time>
</trkpt>
<trkpt lat="32.7199354433333" lon="35.2533691133333">
<ele>311.40000000000003</ele>
<time>2011-10-29T05:47:31Z</time>
</trkpt>
<trkpt lat="32.71994321" lon="35.2533727033333">
<ele>311.3</ele>
<time>2011-10-29T05:47:34Z</time>
</trkpt>
<trkpt lat="32.7199456575" lon="35.2533776875">
<ele>310.825</ele>
<time>2011-10-29T05:47:38Z</time>
</trkpt>
<trkpt lat="32.7199485525" lon="35.2533831825">
<ele>309.975</ele>
<time>2011-10-29T05:47:42Z</time>
</trkpt>
<trkpt lat="32.71994995" lon="35.253387275">
<ele>309.925</ele>
<time>2011-10-29T05:47:46Z</time>
</trkpt>
<trkpt lat="32.71995017" lon="35.25338585">
<ele>310.25</ele>
<time>2011-10-29T05:47:50Z</time>
</trkpt>
<trkpt lat="32.7199497466667" lon="35.25338664">
<ele>310.53333333333336</ele>
<time>2011-10-29T05:47:53Z</time>
</trkpt>
<trkpt lat="32.71995083" lon="35.25338678">
<ele>310.53333333333336</ele>
<time>2011-10-29T05:47:56Z</time>
</trkpt>
<trkpt lat="32.7199496233333" lon="35.25338854">
<ele>310.53333333333336</ele>
<time>2011-10-29T05:47:59Z</time>
</trkpt>
<trkpt lat="32.7199493525" lon="35.2533884675">
<ele>310.55</ele>
<time>2011-10-29T05:48:03Z</time>
</trkpt>
<trkpt lat="32.719952055" lon="35.25339827">
<ele>310.575</ele>
<time>2011-10-29T05:48:07Z</time>
</trkpt>
<trkpt lat="32.7200034075" lon="35.2533737125">
<ele>308.5</ele>
<time>2011-10-29T05:48:11Z</time>
</trkpt>
<trkpt lat="32.7200849" lon="35.2533206333333">
<ele>307.09999999999997</ele>
<time>2011-10-29T05:48:14Z</time>
</trkpt>
<trkpt lat="32.720124285" lon="35.2532682825">
<ele>307.27500000000003</ele>
<time>2011-10-29T05:48:18Z</time>
</trkpt>
<trkpt lat="32.720171105" lon="35.2532284675">
<ele>307.05</ele>
<time>2011-10-29T05:48:22Z</time>
</trkpt>
<trkpt lat="32.7201996075" lon="35.2531949375">
<ele>306.2</ele>
<time>2011-10-29T05:48:26Z</time>
</trkpt>
<trkpt lat="32.7202089866667" lon="35.2531730666667">
<ele>305.4666666666667</ele>
<time>2011-10-29T05:48:29Z</time>
</trkpt>
<trkpt lat="32.72020983" lon="35.2531703775">
<ele>305.95</ele>
<time>2011-10-29T05:48:33Z</time>
</trkpt>
<trkpt lat="32.7202112525" lon="35.2531488625">
<ele>306.75</ele>
<time>2011-10-29T05:48:37Z</time>
</trkpt>
<trkpt lat="32.72020846" lon="35.2531221325">
<ele>306.0</ele>
<time>2011-10-29T05:48:41Z</time>
</trkpt>
<trkpt lat="32.7202214533333" lon="35.2531195666667">
<ele>304.06666666666666</ele>
<time>2011-10-29T05:48:44Z</time>
</trkpt>
<trkpt lat="32.720229835" lon="35.253113025">
<ele>304.475</ele>
<time>2011-10-29T05:48:48Z</time>
</trkpt>
<trkpt lat="32.7202328433333" lon="35.2531123833333">
<ele>305.06666666666666</ele>
<time>2011-10-29T05:48:51Z</time>
</trkpt>
<trkpt lat="32.72022915" lon="35.2531196133333">
<ele>304.73333333333335</ele>
<time>2011-10-29T05:48:54Z</time>
</trkpt>
<trkpt lat="32.72022912" lon="35.2531188525">
<ele>304.82500000000005</ele>
<time>2011-10-29T05:48:58Z</time>
</trkpt>
<trkpt lat="32.7202321575" lon="35.2531193975">
<ele>304.42499999999995</ele>
<time>2011-10-29T05:49:02Z</time>
</trkpt>
<trkpt lat="32.7202394033333" lon="35.2531042733333">
<ele>304.3333333333333</ele>
<time>2011-10-29T05:49:05Z</time>
</trkpt>
<trkpt lat="32.7202405625" lon="35.253123015">
<ele>305.175</ele>
<time>2011-10-29T05:49:09Z</time>
</trkpt>
<trkpt lat="32.7202353975" lon="35.2531278075">
<ele>305.05</ele>
<time>2011-10-29T05:49:13Z</time>
</trkpt>
<trkpt lat="32.7202428666667" lon="35.2531207433333">
<ele>305.4666666666667</ele>
<time>2011-10-29T05:49:16Z</time>
</trkpt>
<trkpt lat="32.7202509075" lon="35.253122975">
<ele>305.325</ele>
<time>2011-10-29T05:49:20Z</time>
</trkpt>
<trkpt lat="32.72024699" lon="35.25312273">
<ele>305.43333333333334</ele>
<time>2011-10-29T05:49:23Z</time>
</trkpt>
<trkpt lat="32.720244655" lon="35.25312245">
<ele>305.27500000000003</ele>
<time>2011-10-29T05:49:27Z</time>
</trkpt>
<trkpt lat="32.72024274" lon="35.2531223266667">
<ele>305.1333333333333</ele>
<time>2011-10-29T05:49:30Z</time>
</trkpt>
<trkpt lat="32.72024299" lon="35.253121945">
<ele>305.1</ele>
<time>2011-10-29T05:49:34Z</time>
</trkpt>
<trkpt lat="32.720242865" lon="35.253121685">
<ele>305.1</ele>
<time>2011-10-29T05:49:38Z</time>
</trkpt>
<trkpt lat="32.7202428566667" lon="35.25312153">
<ele>305.1</ele>
<time>2011-10-29T05:49:41Z</time>
</trkpt>
<trkpt lat="32.7202428633333" lon="35.25312142">
<ele>305.1</ele>
<time>2011-10-29T05:49:44Z</time>
</trkpt>
<trkpt lat="32.72024286" lon="35.2531212975">
<ele>305.1</ele>
<time>2011-10-29T05:49:48Z</time>
</trkpt>
<trkpt lat="32.7202428333333" lon="35.25312124">
<ele>305.1</ele>
<time>2011-10-29T05:49:51Z</time>
</trkpt>
<trkpt lat="32.7202428066667" lon="35.2531211866667">
<ele>305.1</ele>
<time>2011-10-29T05:49:54Z</time>
</trkpt>
<trkpt lat="32.7202428075" lon="35.2531211275">
<ele>305.1</ele>
<time>2011-10-29T05:49:58Z</time>
</trkpt>
<trkpt lat="32.720242765" lon="35.2531211175">
<ele>305.1</ele>
<time>2011-10-29T05:50:02Z</time>
</trkpt>
<trkpt lat="32.7202427375" lon="35.253121115">
<ele>305.1</ele>
<time>2011-10-29T05:50:06Z</time>
</trkpt>
<trkpt lat="32.72024273" lon="35.2531210433333">
<ele>305.1</ele>
<time>2011-10-29T05:50:09Z</time>
</trkpt>
<trkpt lat="32.7202427233333" lon="35.2531209366667">
<ele>305.1</ele>
<time>2011-10-29T05:50:12Z</time>
</trkpt>
<trkpt lat="32.72024274" lon="35.2531207933333">
<ele>305.1</ele>
<time>2011-10-29T05:50:15Z</time>
</trkpt>
<trkpt lat="32.7202427675" lon="35.2531206475">
<ele>305.1</ele>
<time>2011-10-29T05:50:19Z</time>
</trkpt>
<trkpt lat="32.7202427633333" lon="35.2531205466667">
<ele>305.1</ele>
<time>2011-10-29T05:50:22Z</time>
</trkpt>
<trkpt lat="32.7202427566667" lon="35.25312045">
<ele>305.1</ele>
<time>2011-10-29T05:50:25Z</time>
</trkpt>
<trkpt lat="32.7202427366667" lon="35.2531203366667">
<ele>305.03333333333336</ele>
<time>2011-10-29T05:50:28Z</time>
</trkpt>
<trkpt lat="32.7202427133333" lon="35.25312022">
<ele>305.0</ele>
<time>2011-10-29T05:50:31Z</time>
</trkpt>
<trkpt lat="32.7202426866667" lon="35.2531201066667">
<ele>305.0</ele>
<time>2011-10-29T05:50:34Z</time>
</trkpt>
<trkpt lat="32.720237025" lon="35.253118225">
<ele>304.825</ele>
<time>2011-10-29T05:50:38Z</time>
</trkpt>
<trkpt lat="32.7202215933333" lon="35.2531115433333">
<ele>304.8</ele>
<time>2011-10-29T05:50:41Z</time>
</trkpt>
<trkpt lat="32.72021881" lon="35.2531076333333">
<ele>305.0</ele>
<time>2011-10-29T05:50:44Z</time>
</trkpt>
<trkpt lat="32.72021728" lon="35.253104295">
<ele>305.35</ele>
<time>2011-10-29T05:50:48Z</time>
</trkpt>
<trkpt lat="32.72022024" lon="35.25309627">
<ele>305.375</ele>
<time>2011-10-29T05:50:52Z</time>
</trkpt>
<trkpt lat="32.7202246075" lon="35.25309428">
<ele>305.275</ele>
<time>2011-10-29T05:50:56Z</time>
</trkpt>
<trkpt lat="32.720226635" lon="35.2530954075">
<ele>305.775</ele>
<time>2011-10-29T05:51:00Z</time>
</trkpt>
<trkpt lat="32.72022681" lon="35.2530953066667">
<ele>306.2666666666667</ele>
<time>2011-10-29T05:51:03Z</time>
</trkpt>
<trkpt lat="32.72022799" lon="35.2531020375">
<ele>306.29999999999995</ele>
<time>2011-10-29T05:51:07Z</time>
</trkpt>
<trkpt lat="32.72022282" lon="35.253109115">
<ele>306.9</ele>
<time>2011-10-29T05:51:11Z</time>
</trkpt>
<trkpt lat="32.7202387033333" lon="35.2530983033333">
<ele>307.8333333333333</ele>
<time>2011-10-29T05:51:14Z</time>
</trkpt>
<trkpt lat="32.7202667133333" lon="35.2530322133333">
<ele>307.5333333333333</ele>
<time>2011-10-29T05:51:17Z</time>
</trkpt>
<trkpt lat="32.7203395625" lon="35.2529019025">
<ele>306.875</ele>
<time>2011-10-29T05:51:21Z</time>
</trkpt>
<trkpt lat="32.7203705266667" lon="35.25278999">
<ele>308.0333333333333</ele>
<time>2011-10-29T05:51:24Z</time>
</trkpt>
<trkpt lat="32.7203933975" lon="35.2526603325">
<ele>309.07500000000005</ele>
<time>2011-10-29T05:51:28Z</time>
</trkpt>
<trkpt lat="32.7204437075" lon="35.25248029">
<ele>308.125</ele>
<time>2011-10-29T05:51:32Z</time>
</trkpt>
<trkpt lat="32.7204896533333" lon="35.2523074833333">
<ele>305.8</ele>
<time>2011-10-29T05:51:35Z</time>
</trkpt>
<trkpt lat="32.7205165375" lon="35.25216812">
<ele>304.55</ele>
<time>2011-10-29T05:51:39Z</time>
</trkpt>
<trkpt lat="32.7204931333333" lon="35.25203707">
<ele>304.6666666666667</ele>
<time>2011-10-29T05:51:42Z</time>
</trkpt>
<trkpt lat="32.7204623275" lon="35.2519048525">
<ele>299.725</ele>
<time>2011-10-29T05:51:46Z</time>
</trkpt>
<trkpt lat="32.7204814475" lon="35.2517377875">
<ele>294.40000000000003</ele>
<time>2011-10-29T05:51:50Z</time>
</trkpt>
<trkpt lat="32.720428525" lon="35.2516097825">
<ele>296.07500000000005</ele>
<time>2011-10-29T05:51:54Z</time>
</trkpt>
<trkpt lat="32.7203430825" lon="35.251521575">
<ele>296.6</ele>
<time>2011-10-29T05:51:58Z</time>
</trkpt>
<trkpt lat="32.7202718575" lon="35.2514489575">
<ele>296.625</ele>
<time>2011-10-29T05:52:02Z</time>
</trkpt>
<trkpt lat="32.7202593775" lon="35.251375275">
<ele>297.1</ele>
<time>2011-10-29T05:52:06Z</time>
</trkpt>
<trkpt lat="32.7202187775" lon="35.2512481875">
<ele>297.90000000000003</ele>
<time>2011-10-29T05:52:10Z</time>
</trkpt>
<trkpt lat="32.7201666366667" lon="35.2510777833333">
<ele>298.3</ele>
<time>2011-10-29T05:52:13Z</time>
</trkpt>
<trkpt lat="32.720185365" lon="35.2509936525">
<ele>296.6</ele>
<time>2011-10-29T05:52:17Z</time>
</trkpt>
<trkpt lat="32.7202558166667" lon="35.2509628066667">
<ele>293.59999999999997</ele>
<time>2011-10-29T05:52:20Z</time>
</trkpt>
<trkpt lat="32.7203842475" lon="35.251024345">
<ele>291.95</ele>
<time>2011-10-29T05:52:24Z</time>
</trkpt>
<trkpt lat="32.720481115" lon="35.2510504525">
<ele>292.625</ele>
<time>2011-10-29T05:52:28Z</time>
</trkpt>
<trkpt lat="32.72048534" lon="35.25096335">
<ele>292.70000000000005</ele>
<time>2011-10-29T05:52:32Z</time>
</trkpt>
<trkpt lat="32.7204197175" lon="35.250840855">
<ele>292.1</ele>
<time>2011-10-29T05:52:36Z</time>
</trkpt>
<trkpt lat="32.7203311875" lon="35.2507030025">
<ele>292.20000000000005</ele>
<time>2011-10-29T05:52:40Z</time>
</trkpt>
<trkpt lat="32.7202961133333" lon="35.2505450366667">
<ele>291.8</ele>
<time>2011-10-29T05:52:43Z</time>
</trkpt>
<trkpt lat="32.7203316166667" lon="35.2503657133333">
<ele>288.26666666666665</ele>
<time>2011-10-29T05:52:46Z</time>
</trkpt>
<trkpt lat="32.720416765" lon="35.2502607">
<ele>284.35</ele>
<time>2011-10-29T05:52:50Z</time>
</trkpt>
<trkpt lat="32.7205576566667" lon="35.25036507">
<ele>279.1333333333333</ele>
<time>2011-10-29T05:52:53Z</time>
</trkpt>
<trkpt lat="32.7206158866667" lon="35.25050694">
<ele>277.4666666666667</ele>
<time>2011-10-29T05:52:56Z</time>
</trkpt>
<trkpt lat="32.7206307675" lon="35.2506116">
<ele>277.625</ele>
<time>2011-10-29T05:53:00Z</time>
</trkpt>
<trkpt lat="32.7207096425" lon="35.2507325175">
<ele>277.47499999999997</ele>
<time>2011-10-29T05:53:04Z</time>
</trkpt>
<trkpt lat="32.720823325" lon="35.2509536275">
<ele>275.72499999999997</ele>
<time>2011-10-29T05:53:08Z</time>
</trkpt>
<trkpt lat="32.72086201" lon="35.2510701325">
<ele>274.875</ele>
<time>2011-10-29T05:53:12Z</time>
</trkpt>
<trkpt lat="32.72087565" lon="35.2510761425">
<ele>275.575</ele>
<time>2011-10-29T05:53:16Z</time>
</trkpt>
<trkpt lat="32.72087682" lon="35.25106818">
<ele>276.43333333333334</ele>
<time>2011-10-29T05:53:19Z</time>
</trkpt>
<trkpt lat="32.72087277" lon="35.2510644">
<ele>276.32500000000005</ele>
<time>2011-10-29T05:53:23Z</time>
</trkpt>
<trkpt lat="32.7208627725" lon="35.251050515">
<ele>276.55</ele>
<time>2011-10-29T05:53:27Z</time>
</trkpt>
<trkpt lat="32.7208556525" lon="35.2510442725">
<ele>277.0</ele>
<time>2011-10-29T05:53:31Z</time>
</trkpt>
<trkpt lat="32.7208513266667" lon="35.25104485">
<ele>277.3</ele>
<time>2011-10-29T05:53:34Z</time>
</trkpt>
<trkpt lat="32.720850505" lon="35.251043645">
<ele>277.4</ele>
<time>2011-10-29T05:53:38Z</time>
</trkpt>
<trkpt lat="32.7208505533333" lon="35.2510435633333">
<ele>277.5</ele>
<time>2011-10-29T05:53:41Z</time>
</trkpt>
<trkpt lat="32.720850595" lon="35.25104356">
<ele>277.5</ele>
<time>2011-10-29T05:53:45Z</time>
</trkpt>
<trkpt lat="32.7208505566667" lon="35.2510435333333">
<ele>277.5</ele>
<time>2011-10-29T05:53:48Z</time>
</trkpt>
<trkpt lat="32.72085064" lon="35.2510435525">
<ele>277.57500000000005</ele>
<time>2011-10-29T05:53:52Z</time>
</trkpt>
<trkpt lat="32.7208505433333" lon="35.2510434533333">
<ele>277.6</ele>
<time>2011-10-29T05:53:55Z</time>
</trkpt>
<trkpt lat="32.7208503475" lon="35.2510432425">
<ele>277.6</ele>
<time>2011-10-29T05:53:59Z</time>
</trkpt>
<trkpt lat="32.7208502" lon="35.2510430566667">
<ele>277.6</ele>
<time>2011-10-29T05:54:02Z</time>
</trkpt>
<trkpt lat="32.72085009" lon="35.2510428933333">
<ele>277.6</ele>
<time>2011-10-29T05:54:05Z</time>
</trkpt>
<trkpt lat="32.72085002" lon="35.25104274">
<ele>277.6</ele>
<time>2011-10-29T05:54:09Z</time>
</trkpt>
<trkpt lat="32.72084991" lon="35.2510425366667">
<ele>277.6</ele>
<time>2011-10-29T05:54:12Z</time>
</trkpt>
<trkpt lat="32.72084979" lon="35.2510423925">
<ele>277.6</ele>
<time>2011-10-29T05:54:16Z</time>
</trkpt>
<trkpt lat="32.720841345" lon="35.2510363425">
<ele>277.075</ele>
<time>2011-10-29T05:54:20Z</time>
</trkpt>
<trkpt lat="32.7208313875" lon="35.25103882">
<ele>276.5</ele>
<time>2011-10-29T05:54:24Z</time>
</trkpt>
<trkpt lat="32.7208359775" lon="35.2510435075">
<ele>276.625</ele>
<time>2011-10-29T05:54:28Z</time>
</trkpt>
<trkpt lat="32.7208384" lon="35.25105292">
<ele>276.6</ele>
<time>2011-10-29T05:54:32Z</time>
</trkpt>
<trkpt lat="32.7208404" lon="35.2510547175">
<ele>276.6</ele>
<time>2011-10-29T05:54:36Z</time>
</trkpt>
<trkpt lat="32.720839845" lon="35.2510541625">
<ele>276.6</ele>
<time>2011-10-29T05:54:40Z</time>
</trkpt>
<trkpt lat="32.72083952" lon="35.2510462675">
<ele>276.57500000000005</ele>
<time>2011-10-29T05:54:44Z</time>
</trkpt>
<trkpt lat="32.7208497175" lon="35.25104597">
<ele>275.425</ele>
<time>2011-10-29T05:54:48Z</time>
</trkpt>
<trkpt lat="32.72086341" lon="35.2510420425">
<ele>274.85</ele>
<time>2011-10-29T05:54:52Z</time>
</trkpt>
<trkpt lat="32.72087412" lon="35.251038345">
<ele>274.975</ele>
<time>2011-10-29T05:54:56Z</time>
</trkpt>
<trkpt lat="32.7208759375" lon="35.2510409525">
<ele>275.0</ele>
<time>2011-10-29T05:55:00Z</time>
</trkpt>
<trkpt lat="32.72086988" lon="35.2510291425">
<ele>276.925</ele>
<time>2011-10-29T05:55:04Z</time>
</trkpt>
<trkpt lat="32.7208775825" lon="35.2510363175">
<ele>277.125</ele>
<time>2011-10-29T05:55:08Z</time>
</trkpt>
<trkpt lat="32.7208680275" lon="35.25107444">
<ele>275.7</ele>
<time>2011-10-29T05:55:12Z</time>
</trkpt>
<trkpt lat="32.7208985266667" lon="35.2512205066667">
<ele>273.40000000000003</ele>
<time>2011-10-29T05:55:15Z</time>
</trkpt>
<trkpt lat="32.7209505975" lon="35.25141603">
<ele>271.3</ele>
<time>2011-10-29T05:55:19Z</time>
</trkpt>
<trkpt lat="32.72099277" lon="35.2515711233333">
<ele>268.90000000000003</ele>
<time>2011-10-29T05:55:22Z</time>
</trkpt>
<trkpt lat="32.721016355" lon="35.2516739575">
<ele>270.525</ele>
<time>2011-10-29T05:55:26Z</time>
</trkpt>
<trkpt lat="32.72102932" lon="35.2518110266667">
<ele>270.46666666666664</ele>
<time>2011-10-29T05:55:29Z</time>
</trkpt>
<trkpt lat="32.7210492775" lon="35.2519565925">
<ele>267.625</ele>
<time>2011-10-29T05:55:33Z</time>
</trkpt>
<trkpt lat="32.72105417" lon="35.25207992">
<ele>263.4666666666667</ele>
<time>2011-10-29T05:55:36Z</time>
</trkpt>
<trkpt lat="32.7210934275" lon="35.25224161">
<ele>263.6</ele>
<time>2011-10-29T05:55:40Z</time>
</trkpt>
<trkpt lat="32.7211593333333" lon="35.2524052333333">
<ele>262.3666666666667</ele>
<time>2011-10-29T05:55:43Z</time>
</trkpt>
<trkpt lat="32.721204295" lon="35.2525366875">
<ele>261.35</ele>
<time>2011-10-29T05:55:47Z</time>
</trkpt>
<trkpt lat="32.7212326225" lon="35.25269257">
<ele>260.575</ele>
<time>2011-10-29T05:55:51Z</time>
</trkpt>
<trkpt lat="32.7212796966667" lon="35.2528560666667">
<ele>259.76666666666665</ele>
<time>2011-10-29T05:55:54Z</time>
</trkpt>
<trkpt lat="32.721305595" lon="35.253029355">
<ele>257.25</ele>
<time>2011-10-29T05:55:58Z</time>
</trkpt>
<trkpt lat="32.7213755666667" lon="35.25322808">
<ele>254.23333333333335</ele>
<time>2011-10-29T05:56:01Z</time>
</trkpt>
<trkpt lat="32.72137455" lon="35.25326116">
<ele>252.63333333333333</ele>
<time>2011-10-29T05:56:04Z</time>
</trkpt>
<trkpt lat="32.72138172" lon="35.2532914325">
<ele>252.04999999999998</ele>
<time>2011-10-29T05:56:08Z</time>
</trkpt>
<trkpt lat="32.721419585" lon="35.253293335">
<ele>250.025</ele>
<time>2011-10-29T05:56:12Z</time>
</trkpt>
<trkpt lat="32.72146544" lon="35.2532654825">
<ele>251.25</ele>
<time>2011-10-29T05:56:16Z</time>
</trkpt>
<trkpt lat="32.72152561" lon="35.253162175">
<ele>253.4</ele>
<time>2011-10-29T05:56:20Z</time>
</trkpt>
<trkpt lat="32.721564505" lon="35.25304659">
<ele>256.575</ele>
<time>2011-10-29T05:56:24Z</time>
</trkpt>
<trkpt lat="32.7216033725" lon="35.25290285">
<ele>262.725</ele>
<time>2011-10-29T05:56:28Z</time>
</trkpt>
<trkpt lat="32.72166217" lon="35.252734485">
<ele>267.775</ele>
<time>2011-10-29T05:56:32Z</time>
</trkpt>
<trkpt lat="32.72172264" lon="35.25256588">
<ele>267.43333333333334</ele>
<time>2011-10-29T05:56:35Z</time>
</trkpt>
<trkpt lat="32.721779385" lon="35.2523313925">
<ele>268.125</ele>
<time>2011-10-29T05:56:39Z</time>
</trkpt>
<trkpt lat="32.72181964" lon="35.2522158166667">
<ele>265.1333333333333</ele>
<time>2011-10-29T05:56:42Z</time>
</trkpt>
<trkpt lat="32.7218311825" lon="35.252223845">
<ele>258.4</ele>
<time>2011-10-29T05:56:46Z</time>
</trkpt>
<trkpt lat="32.72182841" lon="35.252226925">
<ele>254.675</ele>
<time>2011-10-29T05:56:50Z</time>
</trkpt>
<trkpt lat="32.72182629" lon="35.2522162525">
<ele>253.125</ele>
<time>2011-10-29T05:56:54Z</time>
</trkpt>
<trkpt lat="32.721824715" lon="35.2522010475">
<ele>252.525</ele>
<time>2011-10-29T05:56:58Z</time>
</trkpt>
<trkpt lat="32.72181311" lon="35.2521892025">
<ele>252.57500000000002</ele>
<time>2011-10-29T05:57:02Z</time>
</trkpt>
<trkpt lat="32.7218082925" lon="35.252193855">
<ele>252.425</ele>
<time>2011-10-29T05:57:06Z</time>
</trkpt>
<trkpt lat="32.7218092525" lon="35.2522077075">
<ele>251.625</ele>
<time>2011-10-29T05:57:10Z</time>
</trkpt>
<trkpt lat="32.721794535" lon="35.2522177025">
<ele>250.75</ele>
<time>2011-10-29T05:57:14Z</time>
</trkpt>
<trkpt lat="32.7217853925" lon="35.25222838">
<ele>250.15</ele>
<time>2011-10-29T05:57:18Z</time>
</trkpt>
<trkpt lat="32.72178394" lon="35.2522307733333">
<ele>250.0</ele>
<time>2011-10-29T05:57:21Z</time>
</trkpt>
<trkpt lat="32.7217838525" lon="35.2522308525">
<ele>250.0</ele>
<time>2011-10-29T05:57:25Z</time>
</trkpt>
<trkpt lat="32.7217837925" lon="35.2522307825">
<ele>250.0</ele>
<time>2011-10-29T05:57:29Z</time>
</trkpt>
<trkpt lat="32.7217837966667" lon="35.2522306533333">
<ele>250.0</ele>
<time>2011-10-29T05:57:32Z</time>
</trkpt>
<trkpt lat="32.7217838" lon="35.2522306725">
<ele>250.0</ele>
<time>2011-10-29T05:57:36Z</time>
</trkpt>
<trkpt lat="32.721784" lon="35.2522306325">
<ele>250.0</ele>
<time>2011-10-29T05:57:40Z</time>
</trkpt>
<trkpt lat="32.72178508" lon="35.252232575">
<ele>250.05</ele>
<time>2011-10-29T05:57:44Z</time>
</trkpt>
<trkpt lat="32.721787305" lon="35.252240685">
<ele>250.4</ele>
<time>2011-10-29T05:57:48Z</time>
</trkpt>
<trkpt lat="32.7217875733333" lon="35.2522464033333">
<ele>250.93333333333337</ele>
<time>2011-10-29T05:57:51Z</time>
</trkpt>
<trkpt lat="32.721790825" lon="35.2522555225">
<ele>251.95</ele>
<time>2011-10-29T05:57:55Z</time>
</trkpt>
<trkpt lat="32.7217915075" lon="35.2522579875">
<ele>252.2</ele>
<time>2011-10-29T05:57:59Z</time>
</trkpt>
<trkpt lat="32.7217915233333" lon="35.25225809">
<ele>252.30000000000004</ele>
<time>2011-10-29T05:58:02Z</time>
</trkpt>
<trkpt lat="32.721791465" lon="35.2522580775">
<ele>252.3</ele>
<time>2011-10-29T05:58:06Z</time>
</trkpt>
<trkpt lat="32.7217914" lon="35.2522580525">
<ele>252.3</ele>
<time>2011-10-29T05:58:10Z</time>
</trkpt>
<trkpt lat="32.721791385" lon="35.2522581325">
<ele>252.3</ele>
<time>2011-10-29T05:58:14Z</time>
</trkpt>
<trkpt lat="32.7217913375" lon="35.2522579875">
<ele>252.22500000000002</ele>
<time>2011-10-29T05:58:18Z</time>
</trkpt>
<trkpt lat="32.7217913575" lon="35.252257925">
<ele>252.2</ele>
<time>2011-10-29T05:58:22Z</time>
</trkpt>
<trkpt lat="32.72179136" lon="35.252257885">
<ele>252.2</ele>
<time>2011-10-29T05:58:26Z</time>
</trkpt>
<trkpt lat="32.721791335" lon="35.252257885">
<ele>252.2</ele>
<time>2011-10-29T05:58:30Z</time>
</trkpt>
<trkpt lat="32.7217912966667" lon="35.25225793">
<ele>252.19999999999996</ele>
<time>2011-10-29T05:58:33Z</time>
</trkpt>
<trkpt lat="32.7217912625" lon="35.25225803">
<ele>252.22499999999997</ele>
<time>2011-10-29T05:58:37Z</time>
</trkpt>
<trkpt lat="32.721791255" lon="35.25225817">
<ele>252.3</ele>
<time>2011-10-29T05:58:41Z</time>
</trkpt>
<trkpt lat="32.7217912566667" lon="35.2522582833333">
<ele>252.30000000000004</ele>
<time>2011-10-29T05:58:44Z</time>
</trkpt>
<trkpt lat="32.7217912475" lon="35.252258455">
<ele>252.3</ele>
<time>2011-10-29T05:58:48Z</time>
</trkpt>
<trkpt lat="32.7217912033333" lon="35.2522586">
<ele>252.30000000000004</ele>
<time>2011-10-29T05:58:51Z</time>
</trkpt>
<trkpt lat="32.72179117" lon="35.2522586633333">
<ele>252.30000000000004</ele>
<time>2011-10-29T05:58:54Z</time>
</trkpt>
<trkpt lat="32.72179116" lon="35.252258685">
<ele>252.3</ele>
<time>2011-10-29T05:58:58Z</time>
</trkpt>
<trkpt lat="32.7217911725" lon="35.2522586775">
<ele>252.2</ele>
<time>2011-10-29T05:59:02Z</time>
</trkpt>
<trkpt lat="32.72179116" lon="35.25225868">
<ele>252.19999999999996</ele>
<time>2011-10-29T05:59:05Z</time>
</trkpt>
<trkpt lat="32.721791155" lon="35.2522587">
<ele>252.2</ele>
<time>2011-10-29T05:59:09Z</time>
</trkpt>
<trkpt lat="32.7217911766667" lon="35.25225871">
<ele>252.19999999999996</ele>
<time>2011-10-29T05:59:12Z</time>
</trkpt>
<trkpt lat="32.7217912325" lon="35.252258705">
<ele>252.2</ele>
<time>2011-10-29T05:59:16Z</time>
</trkpt>
<trkpt lat="32.7217912966667" lon="35.2522586933333">
<ele>252.19999999999996</ele>
<time>2011-10-29T05:59:19Z</time>
</trkpt>
<trkpt lat="32.72179131" lon="35.252258695">
<ele>252.2</ele>
<time>2011-10-29T05:59:23Z</time>
</trkpt>
<trkpt lat="32.72179127" lon="35.2522586875">
<ele>252.2</ele>
<time>2011-10-29T05:59:27Z</time>
</trkpt>
<trkpt lat="32.721791205" lon="35.252258745">
<ele>252.2</ele>
<time>2011-10-29T05:59:31Z</time>
</trkpt>
<trkpt lat="32.7217911966667" lon="35.2522588266667">
<ele>252.30000000000004</ele>
<time>2011-10-29T05:59:34Z</time>
</trkpt>
<trkpt lat="32.721791175" lon="35.2522588325">
<ele>252.2</ele>
<time>2011-10-29T05:59:38Z</time>
</trkpt>
<trkpt lat="32.7217912125" lon="35.25225884">
<ele>252.2</ele>
<time>2011-10-29T05:59:42Z</time>
</trkpt>
<trkpt lat="32.72179123" lon="35.25225886">
<ele>252.2</ele>
<time>2011-10-29T05:59:46Z</time>
</trkpt>
<trkpt lat="32.7217912075" lon="35.25225887">
<ele>252.2</ele>
<time>2011-10-29T05:59:50Z</time>
</trkpt>
<trkpt lat="32.72179113" lon="35.2522588575">
<ele>252.2</ele>
<time>2011-10-29T05:59:54Z</time>
</trkpt>
<trkpt lat="32.7217910825" lon="35.2522588275">
<ele>252.2</ele>
<time>2011-10-29T05:59:58Z</time>
</trkpt>
<trkpt lat="32.7217910625" lon="35.25225883">
<ele>252.2</ele>
<time>2011-10-29T06:00:02Z</time>
</trkpt>
<trkpt lat="32.7217910566667" lon="35.25225886">
<ele>252.19999999999996</ele>
<time>2011-10-29T06:00:05Z</time>
</trkpt>
<trkpt lat="32.7217910475" lon="35.252258905">
<ele>252.2</ele>
<time>2011-10-29T06:00:09Z</time>
</trkpt>
<trkpt lat="32.72179108" lon="35.2522588966667">
<ele>252.19999999999996</ele>
<time>2011-10-29T06:00:12Z</time>
</trkpt>
<trkpt lat="32.7217911525" lon="35.2522588475">
<ele>252.2</ele>
<time>2011-10-29T06:00:16Z</time>
</trkpt>
<trkpt lat="32.72179123" lon="35.2522587525">
<ele>252.2</ele>
<time>2011-10-29T06:00:20Z</time>
</trkpt>
<trkpt lat="32.7217912533333" lon="35.2522586333333">
<ele>252.19999999999996</ele>
<time>2011-10-29T06:00:23Z</time>
</trkpt>
<trkpt lat="32.7217912475" lon="35.252258505">
<ele>252.2</ele>
<time>2011-10-29T06:00:27Z</time>
</trkpt>
<trkpt lat="32.7217912475" lon="35.2522584475">
<ele>252.2</ele>
<time>2011-10-29T06:00:31Z</time>
</trkpt>
<trkpt lat="32.72179124" lon="35.2522584">
<ele>252.19999999999996</ele>
<time>2011-10-29T06:00:34Z</time>
</trkpt>
<trkpt lat="32.721791235" lon="35.2522583525">
<ele>252.2</ele>
<time>2011-10-29T06:00:38Z</time>
</trkpt>
<trkpt lat="32.72179124" lon="35.25225831">
<ele>252.19999999999996</ele>
<time>2011-10-29T06:00:41Z</time>
</trkpt>
<trkpt lat="32.72179123" lon="35.2522582633333">
<ele>252.19999999999996</ele>
<time>2011-10-29T06:00:44Z</time>
</trkpt>
<trkpt lat="32.72179125" lon="35.2522582">
<ele>252.2</ele>
<time>2011-10-29T06:00:48Z</time>
</trkpt>
<trkpt lat="32.7217913" lon="35.2522581575">
<ele>252.2</ele>
<time>2011-10-29T06:00:52Z</time>
</trkpt>
<trkpt lat="32.7217913433333" lon="35.25225813">
<ele>252.19999999999996</ele>
<time>2011-10-29T06:00:55Z</time>
</trkpt>
<trkpt lat="32.721791325" lon="35.2522581375">
<ele>252.2</ele>
<time>2011-10-29T06:00:59Z</time>
</trkpt>
<trkpt lat="32.7217912833333" lon="35.25225816">
<ele>252.19999999999996</ele>
<time>2011-10-29T06:01:02Z</time>
</trkpt>
<trkpt lat="32.7217912075" lon="35.2522581575">
<ele>252.2</ele>
<time>2011-10-29T06:01:06Z</time>
</trkpt>
<trkpt lat="32.72179114" lon="35.252258065">
<ele>252.2</ele>
<time>2011-10-29T06:01:10Z</time>
</trkpt>
<trkpt lat="32.72179113" lon="35.25225799">
<ele>252.19999999999996</ele>
<time>2011-10-29T06:01:13Z</time>
</trkpt>
<trkpt lat="32.7217911466667" lon="35.2522579066667">
<ele>252.19999999999996</ele>
<time>2011-10-29T06:01:16Z</time>
</trkpt>
<trkpt lat="32.7217911875" lon="35.25225782">
<ele>252.2</ele>
<time>2011-10-29T06:01:20Z</time>
</trkpt>
<trkpt lat="32.7217911975" lon="35.2522577475">
<ele>252.15</ele>
<time>2011-10-29T06:01:24Z</time>
</trkpt>
<trkpt lat="32.72179118" lon="35.2522576475">
<ele>252.1</ele>
<time>2011-10-29T06:01:28Z</time>
</trkpt>
<trkpt lat="32.7217911425" lon="35.25225763">
<ele>252.1</ele>
<time>2011-10-29T06:01:32Z</time>
</trkpt>
<trkpt lat="32.7217911166667" lon="35.2522576733333">
<ele>252.1</ele>
<time>2011-10-29T06:01:35Z</time>
</trkpt>
<trkpt lat="32.72179108" lon="35.252257655">
<ele>252.1</ele>
<time>2011-10-29T06:01:39Z</time>
</trkpt>
<trkpt lat="32.7217910633333" lon="35.2522576366667">
<ele>252.1</ele>
<time>2011-10-29T06:01:42Z</time>
</trkpt>
<trkpt lat="32.721791045" lon="35.2522576225">
<ele>252.1</ele>
<time>2011-10-29T06:01:46Z</time>
</trkpt>
<trkpt lat="32.7217910175" lon="35.25225762">
<ele>252.1</ele>
<time>2011-10-29T06:01:50Z</time>
</trkpt>
<trkpt lat="32.721791" lon="35.25225762">
<ele>252.1</ele>
<time>2011-10-29T06:01:53Z</time>
</trkpt>
<trkpt lat="32.7217909933333" lon="35.2522576166667">
<ele>252.1</ele>
<time>2011-10-29T06:01:56Z</time>
</trkpt>
<trkpt lat="32.7217909875" lon="35.25225761">
<ele>252.1</ele>
<time>2011-10-29T06:02:00Z</time>
</trkpt>
<trkpt lat="32.7217909566667" lon="35.2522576">
<ele>252.1</ele>
<time>2011-10-29T06:02:03Z</time>
</trkpt>
<trkpt lat="32.7217909" lon="35.2522576133333">
<ele>252.1</ele>
<time>2011-10-29T06:02:06Z</time>
</trkpt>
<trkpt lat="32.7217908375" lon="35.252257655">
<ele>252.1</ele>
<time>2011-10-29T06:02:10Z</time>
</trkpt>
<trkpt lat="32.7217907633333" lon="35.2522577133333">
<ele>252.1</ele>
<time>2011-10-29T06:02:13Z</time>
</trkpt>
<trkpt lat="32.72179074" lon="35.2522577925">
<ele>252.1</ele>
<time>2011-10-29T06:02:17Z</time>
</trkpt>
<trkpt lat="32.7217907675" lon="35.2522578325">
<ele>252.1</ele>
<time>2011-10-29T06:02:21Z</time>
</trkpt>
<trkpt lat="32.7217921766667" lon="35.2522595566667">
<ele>253.66666666666666</ele>
<time>2011-10-29T06:02:24Z</time>
</trkpt>
<trkpt lat="32.721791575" lon="35.2522579975">
<ele>256.575</ele>
<time>2011-10-29T06:02:28Z</time>
</trkpt>
<trkpt lat="32.721813525" lon="35.2522117625">
<ele>258.07500000000005</ele>
<time>2011-10-29T06:02:32Z</time>
</trkpt>
<trkpt lat="32.72180919" lon="35.25210823">
<ele>256.90000000000003</ele>
<time>2011-10-29T06:02:35Z</time>
</trkpt>
<trkpt lat="32.7217570325" lon="35.25199079">
<ele>257.0</ele>
<time>2011-10-29T06:02:39Z</time>
</trkpt>
<trkpt lat="32.72178084" lon="35.2519325233333">
<ele>261.7</ele>
<time>2011-10-29T06:02:42Z</time>
</trkpt>
<trkpt lat="32.721745595" lon="35.25181653">
<ele>263.25</ele>
<time>2011-10-29T06:02:46Z</time>
</trkpt>
<trkpt lat="32.72178088" lon="35.251669635">
<ele>260.025</ele>
<time>2011-10-29T06:02:50Z</time>
</trkpt>
<trkpt lat="32.7217318475" lon="35.25155164">
<ele>260.2</ele>
<time>2011-10-29T06:02:54Z</time>
</trkpt>
<trkpt lat="32.7216522" lon="35.2513340925">
<ele>261.3</ele>
<time>2011-10-29T06:02:58Z</time>
</trkpt>
<trkpt lat="32.72169602" lon="35.251157305">
<ele>260.2</ele>
<time>2011-10-29T06:03:02Z</time>
</trkpt>
<trkpt lat="32.72184551" lon="35.2511612366667">
<ele>256.09999999999997</ele>
<time>2011-10-29T06:03:05Z</time>
</trkpt>
<trkpt lat="32.72197089" lon="35.2512063333333">
<ele>255.16666666666666</ele>
<time>2011-10-29T06:03:08Z</time>
</trkpt>
<trkpt lat="32.7221361" lon="35.25125165">
<ele>253.575</ele>
<time>2011-10-29T06:03:12Z</time>
</trkpt>
<trkpt lat="32.72230187" lon="35.251293985">
<ele>251.5</ele>
<time>2011-10-29T06:03:16Z</time>
</trkpt>
<trkpt lat="32.7224090025" lon="35.25132204">
<ele>249.79999999999998</ele>
<time>2011-10-29T06:03:20Z</time>
</trkpt>
<trkpt lat="32.72246966" lon="35.25129043">
<ele>248.525</ele>
<time>2011-10-29T06:03:24Z</time>
</trkpt>
<trkpt lat="32.7225631625" lon="35.25122918">
<ele>248.75</ele>
<time>2011-10-29T06:03:28Z</time>
</trkpt>
<trkpt lat="32.7227249125" lon="35.2511844925">
<ele>247.85</ele>
<time>2011-10-29T06:03:32Z</time>
</trkpt>
<trkpt lat="32.7228525375" lon="35.2511435225">
<ele>246.15</ele>
<time>2011-10-29T06:03:36Z</time>
</trkpt>
<trkpt lat="32.72289505" lon="35.251099195">
<ele>245.75</ele>
<time>2011-10-29T06:03:40Z</time>
</trkpt>
<trkpt lat="32.722932905" lon="35.25106706">
<ele>244.075</ele>
<time>2011-10-29T06:03:44Z</time>
</trkpt>
<trkpt lat="32.7229838625" lon="35.2510270325">
<ele>240.625</ele>
<time>2011-10-29T06:03:48Z</time>
</trkpt>
<trkpt lat="32.7229828333333" lon="35.25102612">
<ele>239.9</ele>
<time>2011-10-29T06:03:51Z</time>
</trkpt>
<trkpt lat="32.7229939866667" lon="35.2510277833333">
<ele>239.30000000000004</ele>
<time>2011-10-29T06:03:54Z</time>
</trkpt>
<trkpt lat="32.7229972975" lon="35.2510258675">
<ele>239.62499999999997</ele>
<time>2011-10-29T06:03:58Z</time>
</trkpt>
<trkpt lat="32.7229958333333" lon="35.2510232966667">
<ele>239.9</ele>
<time>2011-10-29T06:04:01Z</time>
</trkpt>
<trkpt lat="32.72299566" lon="35.2510233133333">
<ele>239.9</ele>
<time>2011-10-29T06:04:04Z</time>
</trkpt>
<trkpt lat="32.7229957" lon="35.2510234675">
<ele>239.9</ele>
<time>2011-10-29T06:04:08Z</time>
</trkpt>
<trkpt lat="32.7229957675" lon="35.2510235325">
<ele>239.9</ele>
<time>2011-10-29T06:04:12Z</time>
</trkpt>
<trkpt lat="32.7229958375" lon="35.25102354">
<ele>239.9</ele>
<time>2011-10-29T06:04:16Z</time>
</trkpt>
<trkpt lat="32.7229958225" lon="35.2510234625">
<ele>239.9</ele>
<time>2011-10-29T06:04:20Z</time>
</trkpt>
<trkpt lat="32.722995815" lon="35.2510234025">
<ele>239.9</ele>
<time>2011-10-29T06:04:24Z</time>
</trkpt>
<trkpt lat="32.7229958225" lon="35.25102341">
<ele>239.9</ele>
<time>2011-10-29T06:04:28Z</time>
</trkpt>
<trkpt lat="32.7229958275" lon="35.2510234425">
<ele>239.9</ele>
<time>2011-10-29T06:04:32Z</time>
</trkpt>
<trkpt lat="32.7229958266667" lon="35.25102341">
<ele>239.9</ele>
<time>2011-10-29T06:04:35Z</time>
</trkpt>
<trkpt lat="32.72299592" lon="35.251023395">
<ele>239.9</ele>
<time>2011-10-29T06:04:39Z</time>
</trkpt>
<trkpt lat="32.7229959566667" lon="35.2510234033333">
<ele>239.9</ele>
<time>2011-10-29T06:04:42Z</time>
</trkpt>
<trkpt lat="32.7229959066667" lon="35.25102336">
<ele>239.9</ele>
<time>2011-10-29T06:04:45Z</time>
</trkpt>
<trkpt lat="32.72299584" lon="35.2510233233333">
<ele>239.9333333333333</ele>
<time>2011-10-29T06:04:48Z</time>
</trkpt>
<trkpt lat="32.7229957975" lon="35.2510233175">
<ele>240.0</ele>
<time>2011-10-29T06:04:52Z</time>
</trkpt>
<trkpt lat="32.72299579" lon="35.2510233425">
<ele>240.0</ele>
<time>2011-10-29T06:04:56Z</time>
</trkpt>
<trkpt lat="32.7229958" lon="35.2510233875">
<ele>240.0</ele>
<time>2011-10-29T06:05:00Z</time>
</trkpt>
<trkpt lat="32.7229958333333" lon="35.2510234266667">
<ele>240.0</ele>
<time>2011-10-29T06:05:03Z</time>
</trkpt>
<trkpt lat="32.7229968766667" lon="35.2510207166667">
<ele>240.0666666666667</ele>
<time>2011-10-29T06:05:06Z</time>
</trkpt>
<trkpt lat="32.72300428" lon="35.251008335">
<ele>239.45</ele>
<time>2011-10-29T06:05:10Z</time>
</trkpt>
<trkpt lat="32.7230217666667" lon="35.2510033066667">
<ele>239.76666666666665</ele>
<time>2011-10-29T06:05:13Z</time>
</trkpt>
<trkpt lat="32.723025005" lon="35.250993515">
<ele>239.3</ele>
<time>2011-10-29T06:05:17Z</time>
</trkpt>
<trkpt lat="32.7230230266667" lon="35.25098707">
<ele>239.4333333333333</ele>
<time>2011-10-29T06:05:20Z</time>
</trkpt>
<trkpt lat="32.7230174733333" lon="35.2509818">
<ele>239.0666666666667</ele>
<time>2011-10-29T06:05:23Z</time>
</trkpt>
<trkpt lat="32.723015405" lon="35.2509893">
<ele>238.35</ele>
<time>2011-10-29T06:05:27Z</time>
</trkpt>
<trkpt lat="32.72301863" lon="35.2509918166667">
<ele>238.36666666666667</ele>
<time>2011-10-29T06:05:30Z</time>
</trkpt>
<trkpt lat="32.7230191425" lon="35.2509956475">
<ele>238.34999999999997</ele>
<time>2011-10-29T06:05:34Z</time>
</trkpt>
<trkpt lat="32.7230218666667" lon="35.25099785">
<ele>238.70000000000002</ele>
<time>2011-10-29T06:05:37Z</time>
</trkpt>
<trkpt lat="32.7230192066667" lon="35.2509980366667">
<ele>239.16666666666666</ele>
<time>2011-10-29T06:05:40Z</time>
</trkpt>
<trkpt lat="32.7230199575" lon="35.251000855">
<ele>240.0</ele>
<time>2011-10-29T06:05:44Z</time>
</trkpt>
<trkpt lat="32.7230160933333" lon="35.25101217">
<ele>239.03333333333333</ele>
<time>2011-10-29T06:05:47Z</time>
</trkpt>
<trkpt lat="32.7230186966667" lon="35.2510152966667">
<ele>239.36666666666667</ele>
<time>2011-10-29T06:05:50Z</time>
</trkpt>
<trkpt lat="32.723028755" lon="35.2510067275">
<ele>239.5</ele>
<time>2011-10-29T06:05:54Z</time>
</trkpt>
<trkpt lat="32.7230627325" lon="35.2509700975">
<ele>241.35</ele>
<time>2011-10-29T06:05:58Z</time>
</trkpt>
<trkpt lat="32.7230921933333" lon="35.2509109833333">
<ele>243.46666666666667</ele>
<time>2011-10-29T06:06:01Z</time>
</trkpt>
<trkpt lat="32.7231140266667" lon="35.25085276">
<ele>244.16666666666666</ele>
<time>2011-10-29T06:06:04Z</time>
</trkpt>
<trkpt lat="32.7231475325" lon="35.2507790575">
<ele>246.12500000000003</ele>
<time>2011-10-29T06:06:08Z</time>
</trkpt>
<trkpt lat="32.7231880025" lon="35.2507030975">
<ele>247.875</ele>
<time>2011-10-29T06:06:12Z</time>
</trkpt>
<trkpt lat="32.7232186833333" lon="35.2506260833333">
<ele>248.70000000000002</ele>
<time>2011-10-29T06:06:15Z</time>
</trkpt>
<trkpt lat="32.72325247" lon="35.25055344">
<ele>249.575</ele>
<time>2011-10-29T06:06:19Z</time>
</trkpt>
<trkpt lat="32.72329243" lon="35.2504684875">
<ele>251.12500000000003</ele>
<time>2011-10-29T06:06:23Z</time>
</trkpt>
<trkpt lat="32.7233311033333" lon="35.2503940533333">
<ele>252.5</ele>
<time>2011-10-29T06:06:26Z</time>
</trkpt>
<trkpt lat="32.7233681" lon="35.2503230725">
<ele>253.375</ele>
<time>2011-10-29T06:06:30Z</time>
</trkpt>
<trkpt lat="32.7234043825" lon="35.250243725">
<ele>254.39999999999998</ele>
<time>2011-10-29T06:06:34Z</time>
</trkpt>
<trkpt lat="32.723442915" lon="35.25016731">
<ele>254.875</ele>
<time>2011-10-29T06:06:38Z</time>
</trkpt>
<trkpt lat="32.7234792133333" lon="35.2501051666667">
<ele>256.1</ele>
<time>2011-10-29T06:06:41Z</time>
</trkpt>
<trkpt lat="32.7235128566667" lon="35.2500513933333">
<ele>257.1666666666667</ele>
<time>2011-10-29T06:06:44Z</time>
</trkpt>
<trkpt lat="32.72354495" lon="35.2499918175">
<ele>258.775</ele>
<time>2011-10-29T06:06:48Z</time>
</trkpt>
<trkpt lat="32.7235754233333" lon="35.24993581">
<ele>261.26666666666665</ele>
<time>2011-10-29T06:06:51Z</time>
</trkpt>
<trkpt lat="32.7235852675" lon="35.249854415">
<ele>261.9</ele>
<time>2011-10-29T06:06:55Z</time>
</trkpt>
<trkpt lat="32.7235925325" lon="35.2497429275">
<ele>260.25</ele>
<time>2011-10-29T06:06:59Z</time>
</trkpt>
<trkpt lat="32.7236248766667" lon="35.2496596833333">
<ele>260.56666666666666</ele>
<time>2011-10-29T06:07:02Z</time>
</trkpt>
<trkpt lat="32.72365802" lon="35.2495871133333">
<ele>260.00000000000006</ele>
<time>2011-10-29T06:07:05Z</time>
</trkpt>
<trkpt lat="32.7236780825" lon="35.24950124">
<ele>259.575</ele>
<time>2011-10-29T06:07:09Z</time>
</trkpt>
<trkpt lat="32.7237035733333" lon="35.2494189733333">
<ele>259.1666666666667</ele>
<time>2011-10-29T06:07:12Z</time>
</trkpt>
<trkpt lat="32.7237306925" lon="35.249337125">
<ele>258.875</ele>
<time>2011-10-29T06:07:16Z</time>
</trkpt>
<trkpt lat="32.7238168625" lon="35.2492392">
<ele>257.6</ele>
<time>2011-10-29T06:07:20Z</time>
</trkpt>
<trkpt lat="32.7239028" lon="35.2491254566667">
<ele>256.09999999999997</ele>
<time>2011-10-29T06:07:23Z</time>
</trkpt>
<trkpt lat="32.7239869125" lon="35.248973125">
<ele>254.6</ele>
<time>2011-10-29T06:07:27Z</time>
</trkpt>
<trkpt lat="32.72406043" lon="35.2488076733333">
<ele>253.66666666666666</ele>
<time>2011-10-29T06:07:30Z</time>
</trkpt>
<trkpt lat="32.7241132933333" lon="35.2486806033333">
<ele>253.13333333333333</ele>
<time>2011-10-29T06:07:33Z</time>
</trkpt>
<trkpt lat="32.724181485" lon="35.24855686">
<ele>252.95</ele>
<time>2011-10-29T06:07:37Z</time>
</trkpt>
<trkpt lat="32.72426253" lon="35.2484310175">
<ele>252.72500000000002</ele>
<time>2011-10-29T06:07:41Z</time>
</trkpt>
<trkpt lat="32.7243546633333" lon="35.2483277633333">
<ele>252.9333333333333</ele>
<time>2011-10-29T06:07:44Z</time>
</trkpt>
<trkpt lat="32.7244489025" lon="35.2482256975">
<ele>252.375</ele>
<time>2011-10-29T06:07:48Z</time>
</trkpt>
<trkpt lat="32.72453843" lon="35.24810971">
<ele>251.55</ele>
<time>2011-10-29T06:07:52Z</time>
</trkpt>
<trkpt lat="32.7246133875" lon="35.247967465">
<ele>250.90000000000003</ele>
<time>2011-10-29T06:07:56Z</time>
</trkpt>
<trkpt lat="32.724675725" lon="35.2478267225">
<ele>250.77499999999998</ele>
<time>2011-10-29T06:08:00Z</time>
</trkpt>
<trkpt lat="32.7247366866667" lon="35.2476908633333">
<ele>250.1</ele>
<time>2011-10-29T06:08:03Z</time>
</trkpt>
<trkpt lat="32.7248024175" lon="35.2475265075">
<ele>248.8</ele>
<time>2011-10-29T06:08:07Z</time>
</trkpt>
<trkpt lat="32.7248585" lon="35.24733487">
<ele>247.73333333333335</ele>
<time>2011-10-29T06:08:10Z</time>
</trkpt>
<trkpt lat="32.724898165" lon="35.2471293575">
<ele>246.25</ele>
<time>2011-10-29T06:08:14Z</time>
</trkpt>
<trkpt lat="32.7249423575" lon="35.246901085">
<ele>243.72500000000002</ele>
<time>2011-10-29T06:08:18Z</time>
</trkpt>
<trkpt lat="32.7250156833333" lon="35.2466918566667">
<ele>241.60000000000002</ele>
<time>2011-10-29T06:08:21Z</time>
</trkpt>
<trkpt lat="32.7251444166667" lon="35.24655437">
<ele>241.96666666666667</ele>
<time>2011-10-29T06:08:24Z</time>
</trkpt>
<trkpt lat="32.7253079575" lon="35.246449005">
<ele>241.75</ele>
<time>2011-10-29T06:08:28Z</time>
</trkpt>
<trkpt lat="32.7254672675" lon="35.2463772175">
<ele>241.72499999999997</ele>
<time>2011-10-29T06:08:32Z</time>
</trkpt>
<trkpt lat="32.7256055775" lon="35.246300815">
<ele>241.275</ele>
<time>2011-10-29T06:08:36Z</time>
</trkpt>
<trkpt lat="32.7257091366667" lon="35.2461933833333">
<ele>240.76666666666665</ele>
<time>2011-10-29T06:08:39Z</time>
</trkpt>
<trkpt lat="32.72580382" lon="35.24605542">
<ele>240.25</ele>
<time>2011-10-29T06:08:43Z</time>
</trkpt>
<trkpt lat="32.7259284775" lon="35.2459090525">
<ele>240.57500000000002</ele>
<time>2011-10-29T06:08:47Z</time>
</trkpt>
<trkpt lat="32.726069665" lon="35.24580276">
<ele>241.60000000000002</ele>
<time>2011-10-29T06:08:51Z</time>
</trkpt>
<trkpt lat="32.72620665" lon="35.24575834">
<ele>241.30000000000004</ele>
<time>2011-10-29T06:08:54Z</time>
</trkpt>
<trkpt lat="32.7263276525" lon="35.245705645">
<ele>240.3</ele>
<time>2011-10-29T06:08:58Z</time>
</trkpt>
<trkpt lat="32.7264158075" lon="35.2455629525">
<ele>239.75</ele>
<time>2011-10-29T06:09:02Z</time>
</trkpt>
<trkpt lat="32.7264619775" lon="35.245362925">
<ele>239.475</ele>
<time>2011-10-29T06:09:06Z</time>
</trkpt>
<trkpt lat="32.7265031375" lon="35.24515564">
<ele>239.125</ele>
<time>2011-10-29T06:09:10Z</time>
</trkpt>
<trkpt lat="32.7265314866667" lon="35.2449697166667">
<ele>238.80000000000004</ele>
<time>2011-10-29T06:09:13Z</time>
</trkpt>
<trkpt lat="32.7265414225" lon="35.2447693575">
<ele>238.8</ele>
<time>2011-10-29T06:09:17Z</time>
</trkpt>
<trkpt lat="32.72655955" lon="35.2445717966667">
<ele>238.03333333333333</ele>
<time>2011-10-29T06:09:20Z</time>
</trkpt>
<trkpt lat="32.7266097425" lon="35.2443693275">
<ele>237.74999999999997</ele>
<time>2011-10-29T06:09:24Z</time>
</trkpt>
<trkpt lat="32.7266715366667" lon="35.24418357">
<ele>237.66666666666666</ele>
<time>2011-10-29T06:09:27Z</time>
</trkpt>
<trkpt lat="32.7267113475" lon="35.2439964225">
<ele>237.92499999999998</ele>
<time>2011-10-29T06:09:31Z</time>
</trkpt>
<trkpt lat="32.72672705" lon="35.24381043">
<ele>237.70000000000002</ele>
<time>2011-10-29T06:09:34Z</time>
</trkpt>
<trkpt lat="32.7267484725" lon="35.24360148">
<ele>236.8</ele>
<time>2011-10-29T06:09:38Z</time>
</trkpt>
<trkpt lat="32.7268103033333" lon="35.24341334">
<ele>236.29999999999998</ele>
<time>2011-10-29T06:09:41Z</time>
</trkpt>
<trkpt lat="32.72685272" lon="35.24326205">
<ele>236.26666666666665</ele>
<time>2011-10-29T06:09:44Z</time>
</trkpt>
<trkpt lat="32.726858245" lon="35.2430998875">
<ele>236.35000000000002</ele>
<time>2011-10-29T06:09:48Z</time>
</trkpt>
<trkpt lat="32.726879215" lon="35.24290194">
<ele>236.925</ele>
<time>2011-10-29T06:09:52Z</time>
</trkpt>
<trkpt lat="32.7268896" lon="35.2427317933333">
<ele>236.6</ele>
<time>2011-10-29T06:09:55Z</time>
</trkpt>
<trkpt lat="32.7268694225" lon="35.242558085">
<ele>236.225</ele>
<time>2011-10-29T06:09:59Z</time>
</trkpt>
<trkpt lat="32.72685167" lon="35.24237168">
<ele>236.79999999999998</ele>
<time>2011-10-29T06:10:02Z</time>
</trkpt>
<trkpt lat="32.7268644633333" lon="35.2421997566667">
<ele>236.86666666666665</ele>
<time>2011-10-29T06:10:05Z</time>
</trkpt>
<trkpt lat="32.7268797733333" lon="35.24201142">
<ele>235.4</ele>
<time>2011-10-29T06:10:08Z</time>
</trkpt>
<trkpt lat="32.72689602" lon="35.2418507666667">
<ele>235.29999999999998</ele>
<time>2011-10-29T06:10:11Z</time>
</trkpt>
<trkpt lat="32.72690504" lon="35.24169988">
<ele>235.46666666666667</ele>
<time>2011-10-29T06:10:14Z</time>
</trkpt>
<trkpt lat="32.726895035" lon="35.241516465">
<ele>234.92499999999998</ele>
<time>2011-10-29T06:10:18Z</time>
</trkpt>
<trkpt lat="32.7268660433333" lon="35.24134581">
<ele>234.76666666666665</ele>
<time>2011-10-29T06:10:21Z</time>
</trkpt>
<trkpt lat="32.7268424866667" lon="35.2412233966667">
<ele>234.5666666666667</ele>
<time>2011-10-29T06:10:24Z</time>
</trkpt>
<trkpt lat="32.72680142" lon="35.2410606925">
<ele>234.84999999999997</ele>
<time>2011-10-29T06:10:28Z</time>
</trkpt>
<trkpt lat="32.726716495" lon="35.24088878">
<ele>234.05</ele>
<time>2011-10-29T06:10:32Z</time>
</trkpt>
<trkpt lat="32.72656953" lon="35.240789005">
<ele>234.375</ele>
<time>2011-10-29T06:10:36Z</time>
</trkpt>
<trkpt lat="32.72647492" lon="35.24073816">
<ele>235.3</ele>
<time>2011-10-29T06:10:40Z</time>
</trkpt>
<trkpt lat="32.7264013466667" lon="35.2406716">
<ele>234.70000000000002</ele>
<time>2011-10-29T06:10:43Z</time>
</trkpt>
<trkpt lat="32.726306335" lon="35.2405539325">
<ele>234.0</ele>
<time>2011-10-29T06:10:47Z</time>
</trkpt>
<trkpt lat="32.7262083933333" lon="35.24043188">
<ele>234.0333333333333</ele>
<time>2011-10-29T06:10:50Z</time>
</trkpt>
<trkpt lat="32.7261321025" lon="35.2403032325">
<ele>234.27499999999998</ele>
<time>2011-10-29T06:10:54Z</time>
</trkpt>
<trkpt lat="32.7261234675" lon="35.2401394075">
<ele>234.35</ele>
<time>2011-10-29T06:10:58Z</time>
</trkpt>
<trkpt lat="32.7261841425" lon="35.2399841525">
<ele>234.65</ele>
<time>2011-10-29T06:11:02Z</time>
</trkpt>
<trkpt lat="32.7262790825" lon="35.2398518675">
<ele>236.125</ele>
<time>2011-10-29T06:11:06Z</time>
</trkpt>
<trkpt lat="32.726367215" lon="35.23975827">
<ele>237.25</ele>
<time>2011-10-29T06:11:10Z</time>
</trkpt>
<trkpt lat="32.7264559825" lon="35.239679035">
<ele>237.75</ele>
<time>2011-10-29T06:11:14Z</time>
</trkpt>
<trkpt lat="32.72653347" lon="35.2396113725">
<ele>238.27499999999998</ele>
<time>2011-10-29T06:11:18Z</time>
</trkpt>
<trkpt lat="32.7265937766667" lon="35.2395600833333">
<ele>238.1</ele>
<time>2011-10-29T06:11:21Z</time>
</trkpt>
<trkpt lat="32.7266441966667" lon="35.2395166866667">
<ele>237.83333333333334</ele>
<time>2011-10-29T06:11:24Z</time>
</trkpt>
<trkpt lat="32.726676025" lon="35.2394659325">
<ele>238.22500000000002</ele>
<time>2011-10-29T06:11:28Z</time>
</trkpt>
<trkpt lat="32.726702865" lon="35.23940888">
<ele>238.62499999999997</ele>
<time>2011-10-29T06:11:32Z</time>
</trkpt>
<trkpt lat="32.72673689" lon="35.2393650275">
<ele>238.95</ele>
<time>2011-10-29T06:11:36Z</time>
</trkpt>
<trkpt lat="32.7267750725" lon="35.2393049125">
<ele>239.0</ele>
<time>2011-10-29T06:11:40Z</time>
</trkpt>
<trkpt lat="32.72680996" lon="35.2392486166667">
<ele>239.13333333333333</ele>
<time>2011-10-29T06:11:43Z</time>
</trkpt>
<trkpt lat="32.726843165" lon="35.2391917575">
<ele>239.27499999999998</ele>
<time>2011-10-29T06:11:47Z</time>
</trkpt>
<trkpt lat="32.7268782933333" lon="35.2391355433333">
<ele>239.5</ele>
<time>2011-10-29T06:11:50Z</time>
</trkpt>
<trkpt lat="32.7268953366667" lon="35.23908269">
<ele>239.53333333333333</ele>
<time>2011-10-29T06:11:53Z</time>
</trkpt>
<trkpt lat="32.726913505" lon="35.23902468">
<ele>239.6</ele>
<time>2011-10-29T06:11:57Z</time>
</trkpt>
<trkpt lat="32.726938655" lon="35.2389630025">
<ele>239.6</ele>
<time>2011-10-29T06:12:01Z</time>
</trkpt>
<trkpt lat="32.7269639833333" lon="35.2389144466667">
<ele>239.80000000000004</ele>
<time>2011-10-29T06:12:04Z</time>
</trkpt>
<trkpt lat="32.726977875" lon="35.23886728">
<ele>239.9</ele>
<time>2011-10-29T06:12:08Z</time>
</trkpt>
<trkpt lat="32.726972025" lon="35.2388161325">
<ele>240.3</ele>
<time>2011-10-29T06:12:12Z</time>
</trkpt>
<trkpt lat="32.7269670966667" lon="35.2387855266667">
<ele>240.63333333333333</ele>
<time>2011-10-29T06:12:15Z</time>
</trkpt>
<trkpt lat="32.7269683475" lon="35.2387895325">
<ele>240.6</ele>
<time>2011-10-29T06:12:19Z</time>
</trkpt>
<trkpt lat="32.72696689" lon="35.2387901566667">
<ele>240.30000000000004</ele>
<time>2011-10-29T06:12:22Z</time>
</trkpt>
<trkpt lat="32.7269647533333" lon="35.23879247">
<ele>240.23333333333335</ele>
<time>2011-10-29T06:12:25Z</time>
</trkpt>
<trkpt lat="32.7269676866667" lon="35.2387928466667">
<ele>240.0</ele>
<time>2011-10-29T06:12:28Z</time>
</trkpt>
<trkpt lat="32.726968895" lon="35.2387897025">
<ele>240.05</ele>
<time>2011-10-29T06:12:32Z</time>
</trkpt>
<trkpt lat="32.72696839" lon="35.238789725">
<ele>240.1</ele>
<time>2011-10-29T06:12:36Z</time>
</trkpt>
<trkpt lat="32.7269683925" lon="35.2387897325">
<ele>240.1</ele>
<time>2011-10-29T06:12:40Z</time>
</trkpt>
<trkpt lat="32.7269683975" lon="35.2387897325">
<ele>240.1</ele>
<time>2011-10-29T06:12:44Z</time>
</trkpt>
<trkpt lat="32.7269683675" lon="35.238789755">
<ele>240.1</ele>
<time>2011-10-29T06:12:48Z</time>
</trkpt>
<trkpt lat="32.726969075" lon="35.23878938">
<ele>240.1</ele>
<time>2011-10-29T06:12:52Z</time>
</trkpt>
<trkpt lat="32.7269662466667" lon="35.2387901666667">
<ele>239.96666666666667</ele>
<time>2011-10-29T06:12:55Z</time>
</trkpt>
<trkpt lat="32.72696647" lon="35.238788095">
<ele>240.25</ele>
<time>2011-10-29T06:12:59Z</time>
</trkpt>
<trkpt lat="32.7269644933333" lon="35.23878866">
<ele>240.30000000000004</ele>
<time>2011-10-29T06:13:02Z</time>
</trkpt>
<trkpt lat="32.7269636333333" lon="35.2387894366667">
<ele>240.30000000000004</ele>
<time>2011-10-29T06:13:05Z</time>
</trkpt>
<trkpt lat="32.7269621175" lon="35.2387905575">
<ele>240.3</ele>
<time>2011-10-29T06:13:09Z</time>
</trkpt>
<trkpt lat="32.7269587" lon="35.2387908">
<ele>240.4</ele>
<time>2011-10-29T06:13:12Z</time>
</trkpt>
<trkpt lat="32.72695881" lon="35.23879071">
<ele>240.4</ele>
<time>2011-10-29T06:13:16Z</time>
</trkpt>
<trkpt lat="32.7269587825" lon="35.2387906825">
<ele>240.4</ele>
<time>2011-10-29T06:13:20Z</time>
</trkpt>
<trkpt lat="32.7269587733333" lon="35.2387906766667">
<ele>240.4</ele>
<time>2011-10-29T06:13:23Z</time>
</trkpt>
<trkpt lat="32.7269588025" lon="35.23879068">
<ele>240.4</ele>
<time>2011-10-29T06:13:27Z</time>
</trkpt>
<trkpt lat="32.726958805" lon="35.23879067">
<ele>240.4</ele>
<time>2011-10-29T06:13:31Z</time>
</trkpt>
<trkpt lat="32.7269588175" lon="35.23879065">
<ele>240.4</ele>
<time>2011-10-29T06:13:35Z</time>
</trkpt>
<trkpt lat="32.7269588433333" lon="35.23879063">
<ele>240.4</ele>
<time>2011-10-29T06:13:38Z</time>
</trkpt>
<trkpt lat="32.726958845" lon="35.2387906425">
<ele>240.4</ele>
<time>2011-10-29T06:13:42Z</time>
</trkpt>
<trkpt lat="32.7269588475" lon="35.23879064">
<ele>240.4</ele>
<time>2011-10-29T06:13:46Z</time>
</trkpt>
<trkpt lat="32.726958865" lon="35.2387906425">
<ele>240.4</ele>
<time>2011-10-29T06:13:50Z</time>
</trkpt>
<trkpt lat="32.7269576633333" lon="35.2387886566667">
<ele>240.46666666666667</ele>
<time>2011-10-29T06:13:53Z</time>
</trkpt>
<trkpt lat="32.72695072" lon="35.23878037">
<ele>240.33333333333334</ele>
<time>2011-10-29T06:13:56Z</time>
</trkpt>
<trkpt lat="32.7269535175" lon="35.238780015">
<ele>239.95</ele>
<time>2011-10-29T06:14:00Z</time>
</trkpt>
<trkpt lat="32.7269528475" lon="35.2387840725">
<ele>239.6</ele>
<time>2011-10-29T06:14:04Z</time>
</trkpt>
<trkpt lat="32.7269544475" lon="35.238781585">
<ele>239.72499999999997</ele>
<time>2011-10-29T06:14:08Z</time>
</trkpt>
<trkpt lat="32.7269567225" lon="35.2387799225">
<ele>239.675</ele>
<time>2011-10-29T06:14:12Z</time>
</trkpt>
<trkpt lat="32.7269582675" lon="35.23878358">
<ele>239.575</ele>
<time>2011-10-29T06:14:16Z</time>
</trkpt>
<trkpt lat="32.7269577925" lon="35.238784655">
<ele>239.5</ele>
<time>2011-10-29T06:14:20Z</time>
</trkpt>
<trkpt lat="32.7269575166667" lon="35.23878447">
<ele>239.5</ele>
<time>2011-10-29T06:14:23Z</time>
</trkpt>
<trkpt lat="32.72695753" lon="35.238784475">
<ele>239.5</ele>
<time>2011-10-29T06:14:27Z</time>
</trkpt>
<trkpt lat="32.7269575175" lon="35.238784495">
<ele>239.5</ele>
<time>2011-10-29T06:14:31Z</time>
</trkpt>
<trkpt lat="32.72695751" lon="35.23878451">
<ele>239.5</ele>
<time>2011-10-29T06:14:34Z</time>
</trkpt>
<trkpt lat="32.7269575125" lon="35.2387845125">
<ele>239.5</ele>
<time>2011-10-29T06:14:38Z</time>
</trkpt>
<trkpt lat="32.72695749" lon="35.2387845275">
<ele>239.5</ele>
<time>2011-10-29T06:14:42Z</time>
</trkpt>
<trkpt lat="32.72695745" lon="35.2387845266667">
<ele>239.5</ele>
<time>2011-10-29T06:14:45Z</time>
</trkpt>
<trkpt lat="32.72695745" lon="35.2387844966667">
<ele>239.5</ele>
<time>2011-10-29T06:14:48Z</time>
</trkpt>
<trkpt lat="32.72695747" lon="35.2387845375">
<ele>239.5</ele>
<time>2011-10-29T06:14:52Z</time>
</trkpt>
<trkpt lat="32.7269574725" lon="35.238784525">
<ele>239.5</ele>
<time>2011-10-29T06:14:56Z</time>
</trkpt>
<trkpt lat="32.7269574725" lon="35.2387845175">
<ele>239.5</ele>
<time>2011-10-29T06:15:00Z</time>
</trkpt>
<trkpt lat="32.7269574575" lon="35.2387845025">
<ele>239.5</ele>
<time>2011-10-29T06:15:04Z</time>
</trkpt>
<trkpt lat="32.7269574025" lon="35.238784505">
<ele>239.5</ele>
<time>2011-10-29T06:15:08Z</time>
</trkpt>
<trkpt lat="32.7269573833333" lon="35.2387845066667">
<ele>239.5</ele>
<time>2011-10-29T06:15:11Z</time>
</trkpt>
<trkpt lat="32.7269573733333" lon="35.2387845066667">
<ele>239.5</ele>
<time>2011-10-29T06:15:14Z</time>
</trkpt>
<trkpt lat="32.7269573475" lon="35.238784495">
<ele>239.5</ele>
<time>2011-10-29T06:15:18Z</time>
</trkpt>
<trkpt lat="32.72695734" lon="35.23878452">
<ele>239.5</ele>
<time>2011-10-29T06:15:21Z</time>
</trkpt>
<trkpt lat="32.7269573366667" lon="35.23878451">
<ele>239.5</ele>
<time>2011-10-29T06:15:24Z</time>
</trkpt>
<trkpt lat="32.7269573325" lon="35.2387845">
<ele>239.5</ele>
<time>2011-10-29T06:15:28Z</time>
</trkpt>
<trkpt lat="32.7269573425" lon="35.2387844775">
<ele>239.5</ele>
<time>2011-10-29T06:15:32Z</time>
</trkpt>
<trkpt lat="32.7269573225" lon="35.238784455">
<ele>239.5</ele>
<time>2011-10-29T06:15:36Z</time>
</trkpt>
<trkpt lat="32.7269573025" lon="35.2387844425">
<ele>239.5</ele>
<time>2011-10-29T06:15:40Z</time>
</trkpt>
<trkpt lat="32.726957295" lon="35.2387844075">
<ele>239.5</ele>
<time>2011-10-29T06:15:44Z</time>
</trkpt>
<trkpt lat="32.7269572875" lon="35.238784395">
<ele>239.5</ele>
<time>2011-10-29T06:15:48Z</time>
</trkpt>
<trkpt lat="32.72695727" lon="35.23878443">
<ele>239.5</ele>
<time>2011-10-29T06:15:52Z</time>
</trkpt>
<trkpt lat="32.7269572525" lon="35.2387844225">
<ele>239.5</ele>
<time>2011-10-29T06:15:56Z</time>
</trkpt>
<trkpt lat="32.72695721" lon="35.238784375">
<ele>239.5</ele>
<time>2011-10-29T06:16:00Z</time>
</trkpt>
<trkpt lat="32.726956905" lon="35.2387847175">
<ele>239.5</ele>
<time>2011-10-29T06:16:04Z</time>
</trkpt>
<trkpt lat="32.726958015" lon="35.2387846475">
<ele>239.72500000000002</ele>
<time>2011-10-29T06:16:08Z</time>
</trkpt>
<trkpt lat="32.7269611633333" lon="35.2387796066667">
<ele>239.53333333333333</ele>
<time>2011-10-29T06:16:11Z</time>
</trkpt>
<trkpt lat="32.7269608833333" lon="35.2387776866667">
<ele>239.76666666666665</ele>
<time>2011-10-29T06:16:14Z</time>
</trkpt>
<trkpt lat="32.7269647575" lon="35.2387763475">
<ele>240.0</ele>
<time>2011-10-29T06:16:18Z</time>
</trkpt>
<trkpt lat="32.72696518" lon="35.2387783575">
<ele>240.22499999999997</ele>
<time>2011-10-29T06:16:22Z</time>
</trkpt>
<trkpt lat="32.7269642025" lon="35.238778705">
<ele>240.3</ele>
<time>2011-10-29T06:16:26Z</time>
</trkpt>
<trkpt lat="32.72696417" lon="35.2387786866667">
<ele>240.30000000000004</ele>
<time>2011-10-29T06:16:29Z</time>
</trkpt>
<trkpt lat="32.726964175" lon="35.2387787125">
<ele>240.3</ele>
<time>2011-10-29T06:16:33Z</time>
</trkpt>
<trkpt lat="32.726964155" lon="35.23877875">
<ele>240.3</ele>
<time>2011-10-29T06:16:37Z</time>
</trkpt>
<trkpt lat="32.726964155" lon="35.23877871">
<ele>240.3</ele>
<time>2011-10-29T06:16:41Z</time>
</trkpt>
<trkpt lat="32.7269641466667" lon="35.2387786933333">
<ele>240.30000000000004</ele>
<time>2011-10-29T06:16:44Z</time>
</trkpt>
<trkpt lat="32.7269641275" lon="35.2387787225">
<ele>240.3</ele>
<time>2011-10-29T06:16:48Z</time>
</trkpt>
<trkpt lat="32.7269641433333" lon="35.2387787333333">
<ele>240.30000000000004</ele>
<time>2011-10-29T06:16:51Z</time>
</trkpt>
<trkpt lat="32.7269641466667" lon="35.2387787333333">
<ele>240.30000000000004</ele>
<time>2011-10-29T06:16:54Z</time>
</trkpt>
<trkpt lat="32.7269619625" lon="35.23877454">
<ele>240.29999999999998</ele>
<time>2011-10-29T06:16:58Z</time>
</trkpt>
<trkpt lat="32.7269449866667" lon="35.23874905">
<ele>240.6</ele>
<time>2011-10-29T06:17:01Z</time>
</trkpt>
<trkpt lat="32.7269301033333" lon="35.2387203333333">
<ele>241.20000000000002</ele>
<time>2011-10-29T06:17:04Z</time>
</trkpt>
<trkpt lat="32.726906285" lon="35.238700515">
<ele>241.75</ele>
<time>2011-10-29T06:17:08Z</time>
</trkpt>
<trkpt lat="32.7268550925" lon="35.2386924375">
<ele>242.1</ele>
<time>2011-10-29T06:17:12Z</time>
</trkpt>
<trkpt lat="32.7267894766667" lon="35.2387177">
<ele>243.16666666666666</ele>
<time>2011-10-29T06:17:15Z</time>
</trkpt>
<trkpt lat="32.72673822" lon="35.2387472925">
<ele>243.97500000000002</ele>
<time>2011-10-29T06:17:19Z</time>
</trkpt>
<trkpt lat="32.7266807466667" lon="35.23879452">
<ele>244.63333333333335</ele>
<time>2011-10-29T06:17:22Z</time>
</trkpt>
<trkpt lat="32.7266110766667" lon="35.23884419">
<ele>244.70000000000002</ele>
<time>2011-10-29T06:17:25Z</time>
</trkpt>
<trkpt lat="32.7265361" lon="35.2388907825">
<ele>245.67499999999998</ele>
<time>2011-10-29T06:17:29Z</time>
</trkpt>
<trkpt lat="32.7264523866667" lon="35.2389363133333">
<ele>246.46666666666667</ele>
<time>2011-10-29T06:17:32Z</time>
</trkpt>
<trkpt lat="32.72637506" lon="35.23895839">
<ele>247.4666666666667</ele>
<time>2011-10-29T06:17:35Z</time>
</trkpt>
<trkpt lat="32.7263090725" lon="35.23898193">
<ele>248.95</ele>
<time>2011-10-29T06:17:39Z</time>
</trkpt>
<trkpt lat="32.726238935" lon="35.23900496">
<ele>249.8</ele>
<time>2011-10-29T06:17:43Z</time>
</trkpt>
<trkpt lat="32.72616163" lon="35.2390154125">
<ele>250.60000000000002</ele>
<time>2011-10-29T06:17:47Z</time>
</trkpt>
<trkpt lat="32.7261280466667" lon="35.2389704433333">
<ele>251.4333333333333</ele>
<time>2011-10-29T06:17:50Z</time>
</trkpt>
<trkpt lat="32.726118005" lon="35.2389125575">
<ele>252.2</ele>
<time>2011-10-29T06:17:54Z</time>
</trkpt>
<trkpt lat="32.72612531" lon="35.2388546975">
<ele>253.15000000000003</ele>
<time>2011-10-29T06:17:58Z</time>
</trkpt>
<trkpt lat="32.7261536675" lon="35.23878206">
<ele>254.075</ele>
<time>2011-10-29T06:18:02Z</time>
</trkpt>
<trkpt lat="32.72618955" lon="35.23869028">
<ele>255.175</ele>
<time>2011-10-29T06:18:06Z</time>
</trkpt>
<trkpt lat="32.72616104" lon="35.23863183">
<ele>255.425</ele>
<time>2011-10-29T06:18:10Z</time>
</trkpt>
<trkpt lat="32.7261291175" lon="35.23864535">
<ele>253.725</ele>
<time>2011-10-29T06:18:14Z</time>
</trkpt>
<trkpt lat="32.72614785" lon="35.238593045">
<ele>256.775</ele>
<time>2011-10-29T06:18:18Z</time>
</trkpt>
<trkpt lat="32.72617034" lon="35.2385243666667">
<ele>258.3666666666667</ele>
<time>2011-10-29T06:18:21Z</time>
</trkpt>
<trkpt lat="32.7261775066667" lon="35.2384560566667">
<ele>257.43333333333334</ele>
<time>2011-10-29T06:18:24Z</time>
</trkpt>
<trkpt lat="32.7262150575" lon="35.2383730025">
<ele>256.8</ele>
<time>2011-10-29T06:18:28Z</time>
</trkpt>
<trkpt lat="32.7262574833333" lon="35.2383044866667">
<ele>255.66666666666666</ele>
<time>2011-10-29T06:18:31Z</time>
</trkpt>
<trkpt lat="32.72628639" lon="35.23827015">
<ele>255.9666666666667</ele>
<time>2011-10-29T06:18:34Z</time>
</trkpt>
<trkpt lat="32.72628389" lon="35.23820352">
<ele>256.5</ele>
<time>2011-10-29T06:18:38Z</time>
</trkpt>
<trkpt lat="32.7262701375" lon="35.2381313275">
<ele>257.35</ele>
<time>2011-10-29T06:18:42Z</time>
</trkpt>
<trkpt lat="32.726267635" lon="35.2380381075">
<ele>258.75</ele>
<time>2011-10-29T06:18:46Z</time>
</trkpt>
<trkpt lat="32.726248955" lon="35.2379411275">
<ele>258.5</ele>
<time>2011-10-29T06:18:50Z</time>
</trkpt>
<trkpt lat="32.7262364333333" lon="35.2378917233333">
<ele>257.23333333333335</ele>
<time>2011-10-29T06:18:53Z</time>
</trkpt>
<trkpt lat="32.726212545" lon="35.2378907025">
<ele>256.02500000000003</ele>
<time>2011-10-29T06:18:57Z</time>
</trkpt>
<trkpt lat="32.7262093033333" lon="35.23788857">
<ele>255.36666666666665</ele>
<time>2011-10-29T06:19:00Z</time>
</trkpt>
<trkpt lat="32.72621205" lon="35.2378818225">
<ele>255.175</ele>
<time>2011-10-29T06:19:04Z</time>
</trkpt>
<trkpt lat="32.7262180775" lon="35.2378844525">
<ele>254.89999999999998</ele>
<time>2011-10-29T06:19:08Z</time>
</trkpt>
<trkpt lat="32.7262179366667" lon="35.2378837033333">
<ele>254.63333333333333</ele>
<time>2011-10-29T06:19:11Z</time>
</trkpt>
<trkpt lat="32.72621704" lon="35.2378842633333">
<ele>254.5</ele>
<time>2011-10-29T06:19:14Z</time>
</trkpt>
<trkpt lat="32.7262162225" lon="35.2378858075">
<ele>254.4</ele>
<time>2011-10-29T06:19:18Z</time>
</trkpt>
<trkpt lat="32.7262161433333" lon="35.2378859766667">
<ele>254.4</ele>
<time>2011-10-29T06:19:21Z</time>
</trkpt>
<trkpt lat="32.72621616" lon="35.23788598">
<ele>254.4</ele>
<time>2011-10-29T06:19:24Z</time>
</trkpt>
<trkpt lat="32.726216205" lon="35.23788597">
<ele>254.4</ele>
<time>2011-10-29T06:19:28Z</time>
</trkpt>
<trkpt lat="32.726192495" lon="35.2378665625">
<ele>254.60000000000002</ele>
<time>2011-10-29T06:19:32Z</time>
</trkpt>
<trkpt lat="32.7261167375" lon="35.2378155375">
<ele>255.425</ele>
<time>2011-10-29T06:19:36Z</time>
</trkpt>
<trkpt lat="32.72606453" lon="35.2377730675">
<ele>256.75</ele>
<time>2011-10-29T06:19:40Z</time>
</trkpt>
<trkpt lat="32.7260268325" lon="35.23770802">
<ele>257.65</ele>
<time>2011-10-29T06:19:44Z</time>
</trkpt>
<trkpt lat="32.7259739175" lon="35.2376207925">
<ele>256.375</ele>
<time>2011-10-29T06:19:48Z</time>
</trkpt>
<trkpt lat="32.7259117575" lon="35.2375557125">
<ele>256.575</ele>
<time>2011-10-29T06:19:52Z</time>
</trkpt>
<trkpt lat="32.7258591975" lon="35.2375307325">
<ele>259.25</ele>
<time>2011-10-29T06:19:56Z</time>
</trkpt>
<trkpt lat="32.7257990775" lon="35.2374987375">
<ele>260.55</ele>
<time>2011-10-29T06:20:00Z</time>
</trkpt>
<trkpt lat="32.7257146175" lon="35.2374920325">
<ele>259.675</ele>
<time>2011-10-29T06:20:04Z</time>
</trkpt>
<trkpt lat="32.7256450075" lon="35.2375045975">
<ele>259.375</ele>
<time>2011-10-29T06:20:08Z</time>
</trkpt>
<trkpt lat="32.7255978466667" lon="35.237481">
<ele>259.4</ele>
<time>2011-10-29T06:20:11Z</time>
</trkpt>
<trkpt lat="32.7255365825" lon="35.2374389">
<ele>259.225</ele>
<time>2011-10-29T06:20:15Z</time>
</trkpt>
<trkpt lat="32.7254708233333" lon="35.23740141">
<ele>258.3</ele>
<time>2011-10-29T06:20:18Z</time>
</trkpt>
<trkpt lat="32.725402405" lon="35.23740968">
<ele>257.325</ele>
<time>2011-10-29T06:20:22Z</time>
</trkpt>
<trkpt lat="32.7253393075" lon="35.2373727225">
<ele>257.175</ele>
<time>2011-10-29T06:20:26Z</time>
</trkpt>
<trkpt lat="32.7252934525" lon="35.237279745">
<ele>258.95000000000005</ele>
<time>2011-10-29T06:20:30Z</time>
</trkpt>
<trkpt lat="32.7252208175" lon="35.2372590575">
<ele>258.625</ele>
<time>2011-10-29T06:20:34Z</time>
</trkpt>
<trkpt lat="32.725177755" lon="35.23728437">
<ele>257.05</ele>
<time>2011-10-29T06:20:38Z</time>
</trkpt>
<trkpt lat="32.7251508066667" lon="35.2372966633333">
<ele>255.73333333333335</ele>
<time>2011-10-29T06:20:41Z</time>
</trkpt>
<trkpt lat="32.7251254233333" lon="35.2373044">
<ele>254.9666666666667</ele>
<time>2011-10-29T06:20:44Z</time>
</trkpt>
<trkpt lat="32.72506633" lon="35.2372923875">
<ele>254.39999999999998</ele>
<time>2011-10-29T06:20:48Z</time>
</trkpt>
<trkpt lat="32.7250010866667" lon="35.2372400633333">
<ele>253.20000000000002</ele>
<time>2011-10-29T06:20:51Z</time>
</trkpt>
<trkpt lat="32.7249558833333" lon="35.2372232866667">
<ele>251.33333333333334</ele>
<time>2011-10-29T06:20:54Z</time>
</trkpt>
<trkpt lat="32.7248803275" lon="35.23723602">
<ele>251.55</ele>
<time>2011-10-29T06:20:58Z</time>
</trkpt>
<trkpt lat="32.7248219866667" lon="35.2372340066667">
<ele>251.36666666666667</ele>
<time>2011-10-29T06:21:01Z</time>
</trkpt>
<trkpt lat="32.7247500433333" lon="35.23724034">
<ele>249.63333333333333</ele>
<time>2011-10-29T06:21:04Z</time>
</trkpt>
<trkpt lat="32.724683945" lon="35.23723186">
<ele>249.8</ele>
<time>2011-10-29T06:21:08Z</time>
</trkpt>
<trkpt lat="32.7246168875" lon="35.237230845">
<ele>249.6</ele>
<time>2011-10-29T06:21:12Z</time>
</trkpt>
<trkpt lat="32.7245378766667" lon="35.23722941">
<ele>249.23333333333335</ele>
<time>2011-10-29T06:21:15Z</time>
</trkpt>
<trkpt lat="32.72449843" lon="35.2372568666667">
<ele>249.86666666666667</ele>
<time>2011-10-29T06:21:18Z</time>
</trkpt>
<trkpt lat="32.7244487575" lon="35.2372193425">
<ele>248.35</ele>
<time>2011-10-29T06:21:22Z</time>
</trkpt>
<trkpt lat="32.724456625" lon="35.237126215">
<ele>247.85000000000002</ele>
<time>2011-10-29T06:21:26Z</time>
</trkpt>
<trkpt lat="32.7244746775" lon="35.236999745">
<ele>246.85</ele>
<time>2011-10-29T06:21:30Z</time>
</trkpt>
<trkpt lat="32.7245098025" lon="35.2369248425">
<ele>247.0</ele>
<time>2011-10-29T06:21:34Z</time>
</trkpt>
<trkpt lat="32.7245679625" lon="35.23686163">
<ele>246.925</ele>
<time>2011-10-29T06:21:38Z</time>
</trkpt>
<trkpt lat="32.724586685" lon="35.2368133175">
<ele>246.175</ele>
<time>2011-10-29T06:21:42Z</time>
</trkpt>
<trkpt lat="32.7246179766667" lon="35.23675868">
<ele>242.20000000000002</ele>
<time>2011-10-29T06:21:45Z</time>
</trkpt>
<trkpt lat="32.7246399" lon="35.23669062">
<ele>240.025</ele>
<time>2011-10-29T06:21:49Z</time>
</trkpt>
<trkpt lat="32.7246625233333" lon="35.2365951833333">
<ele>239.0</ele>
<time>2011-10-29T06:21:52Z</time>
</trkpt>
<trkpt lat="32.7246978866667" lon="35.2365204">
<ele>238.83333333333334</ele>
<time>2011-10-29T06:21:55Z</time>
</trkpt>
<trkpt lat="32.7247257575" lon="35.2364618025">
<ele>238.9</ele>
<time>2011-10-29T06:21:59Z</time>
</trkpt>
<trkpt lat="32.7247789266667" lon="35.2363806066667">
<ele>237.1</ele>
<time>2011-10-29T06:22:02Z</time>
</trkpt>
<trkpt lat="32.7248203675" lon="35.2363251125">
<ele>236.79999999999998</ele>
<time>2011-10-29T06:22:06Z</time>
</trkpt>
<trkpt lat="32.724873075" lon="35.236267555">
<ele>237.225</ele>
<time>2011-10-29T06:22:10Z</time>
</trkpt>
<trkpt lat="32.7249120275" lon="35.2361579075">
<ele>236.825</ele>
<time>2011-10-29T06:22:14Z</time>
</trkpt>
<trkpt lat="32.7249385425" lon="35.236096055">
<ele>236.675</ele>
<time>2011-10-29T06:22:18Z</time>
</trkpt>
<trkpt lat="32.7249558825" lon="35.23602784">
<ele>236.575</ele>
<time>2011-10-29T06:22:22Z</time>
</trkpt>
<trkpt lat="32.7249729666667" lon="35.23599649">
<ele>237.26666666666665</ele>
<time>2011-10-29T06:22:25Z</time>
</trkpt>
<trkpt lat="32.7249820825" lon="35.23599834">
<ele>238.125</ele>
<time>2011-10-29T06:22:29Z</time>
</trkpt>
<trkpt lat="32.7249820325" lon="35.2360043975">
<ele>238.225</ele>
<time>2011-10-29T06:22:33Z</time>
</trkpt>
<trkpt lat="32.72498062" lon="35.236008555">
<ele>237.92499999999998</ele>
<time>2011-10-29T06:22:37Z</time>
</trkpt>
<trkpt lat="32.72498025" lon="35.2360092466667">
<ele>237.9</ele>
<time>2011-10-29T06:22:40Z</time>
</trkpt>
<trkpt lat="32.72498016" lon="35.23600929">
<ele>237.9</ele>
<time>2011-10-29T06:22:43Z</time>
</trkpt>
<trkpt lat="32.72498012" lon="35.2360094125">
<ele>237.9</ele>
<time>2011-10-29T06:22:47Z</time>
</trkpt>
<trkpt lat="32.72498001" lon="35.2360092966667">
<ele>237.9</ele>
<time>2011-10-29T06:22:50Z</time>
</trkpt>
<trkpt lat="32.7249851175" lon="35.235989215">
<ele>236.60000000000002</ele>
<time>2011-10-29T06:22:54Z</time>
</trkpt>
<trkpt lat="32.72500612" lon="35.23590301">
<ele>235.47500000000002</ele>
<time>2011-10-29T06:22:58Z</time>
</trkpt>
<trkpt lat="32.72503596" lon="35.23577487">
<ele>235.825</ele>
<time>2011-10-29T06:23:02Z</time>
</trkpt>
<trkpt lat="32.72507698" lon="35.23566026">
<ele>235.96666666666667</ele>
<time>2011-10-29T06:23:05Z</time>
</trkpt>
<trkpt lat="32.725106435" lon="35.235582905">
<ele>233.42499999999998</ele>
<time>2011-10-29T06:23:09Z</time>
</trkpt>
<trkpt lat="32.72510235" lon="35.2354340566667">
<ele>231.23333333333335</ele>
<time>2011-10-29T06:23:12Z</time>
</trkpt>
<trkpt lat="32.7251181933333" lon="35.2353495366667">
<ele>231.0333333333333</ele>
<time>2011-10-29T06:23:15Z</time>
</trkpt>
<trkpt lat="32.7251455975" lon="35.235274415">
<ele>232.00000000000003</ele>
<time>2011-10-29T06:23:19Z</time>
</trkpt>
<trkpt lat="32.7251677733333" lon="35.2351855833333">
<ele>231.9666666666667</ele>
<time>2011-10-29T06:23:22Z</time>
</trkpt>
<trkpt lat="32.7251856" lon="35.2351715966667">
<ele>230.33333333333334</ele>
<time>2011-10-29T06:23:25Z</time>
</trkpt>
<trkpt lat="32.7252047475" lon="35.2351580675">
<ele>229.875</ele>
<time>2011-10-29T06:23:29Z</time>
</trkpt>
<trkpt lat="32.72521033" lon="35.2351127366667">
<ele>229.46666666666667</ele>
<time>2011-10-29T06:23:32Z</time>
</trkpt>
<trkpt lat="32.7252367025" lon="35.23506339">
<ele>228.775</ele>
<time>2011-10-29T06:23:36Z</time>
</trkpt>
<trkpt lat="32.7252686925" lon="35.23502087">
<ele>227.7</ele>
<time>2011-10-29T06:23:40Z</time>
</trkpt>
<trkpt lat="32.7252885325" lon="35.2349924275">
<ele>228.225</ele>
<time>2011-10-29T06:23:44Z</time>
</trkpt>
<trkpt lat="32.7252987166667" lon="35.2349760433333">
<ele>227.9666666666667</ele>
<time>2011-10-29T06:23:47Z</time>
</trkpt>
<trkpt lat="32.725294725" lon="35.2349497325">
<ele>227.39999999999998</ele>
<time>2011-10-29T06:23:51Z</time>
</trkpt>
<trkpt lat="32.72528935" lon="35.2348648025">
<ele>227.875</ele>
<time>2011-10-29T06:23:55Z</time>
</trkpt>
<trkpt lat="32.725303665" lon="35.2348350425">
<ele>229.1</ele>
<time>2011-10-29T06:23:59Z</time>
</trkpt>
<trkpt lat="32.7253020966667" lon="35.2348251633333">
<ele>228.76666666666665</ele>
<time>2011-10-29T06:24:02Z</time>
</trkpt>
<trkpt lat="32.72529621" lon="35.2348192933333">
<ele>229.0</ele>
<time>2011-10-29T06:24:05Z</time>
</trkpt>
<trkpt lat="32.72529858" lon="35.23480857">
<ele>229.0</ele>
<time>2011-10-29T06:24:08Z</time>
</trkpt>
<trkpt lat="32.725301265" lon="35.23480164">
<ele>229.475</ele>
<time>2011-10-29T06:24:12Z</time>
</trkpt>
<trkpt lat="32.72530167" lon="35.2348014775">
<ele>229.5</ele>
<time>2011-10-29T06:24:16Z</time>
</trkpt>
<trkpt lat="32.725312345" lon="35.234801">
<ele>229.2</ele>
<time>2011-10-29T06:24:20Z</time>
</trkpt>
<trkpt lat="32.7253488175" lon="35.23477639">
<ele>227.77499999999998</ele>
<time>2011-10-29T06:24:24Z</time>
</trkpt>
<trkpt lat="32.7253951566667" lon="35.23466234">
<ele>227.4</ele>
<time>2011-10-29T06:24:27Z</time>
</trkpt>
<trkpt lat="32.72550612" lon="35.2345935925">
<ele>224.4</ele>
<time>2011-10-29T06:24:31Z</time>
</trkpt>
<trkpt lat="32.7255724275" lon="35.2344882325">
<ele>220.55</ele>
<time>2011-10-29T06:24:35Z</time>
</trkpt>
<trkpt lat="32.7256172733333" lon="35.2343815133333">
<ele>216.46666666666667</ele>
<time>2011-10-29T06:24:38Z</time>
</trkpt>
<trkpt lat="32.725642055" lon="35.234262985">
<ele>217.10000000000002</ele>
<time>2011-10-29T06:24:42Z</time>
</trkpt>
<trkpt lat="32.72569446" lon="35.2341521225">
<ele>216.875</ele>
<time>2011-10-29T06:24:46Z</time>
</trkpt>
<trkpt lat="32.7257538766667" lon="35.2340555933333">
<ele>214.4333333333333</ele>
<time>2011-10-29T06:24:49Z</time>
</trkpt>
<trkpt lat="32.7258178733333" lon="35.2339941266667">
<ele>214.26666666666665</ele>
<time>2011-10-29T06:24:52Z</time>
</trkpt>
<trkpt lat="32.7258890075" lon="35.23395056">
<ele>214.625</ele>
<time>2011-10-29T06:24:56Z</time>
</trkpt>
<trkpt lat="32.7259503625" lon="35.2339172725">
<ele>215.12499999999997</ele>
<time>2011-10-29T06:25:00Z</time>
</trkpt>
<trkpt lat="32.7260189533333" lon="35.2339004133333">
<ele>215.36666666666667</ele>
<time>2011-10-29T06:25:03Z</time>
</trkpt>
<trkpt lat="32.7261053033333" lon="35.2339093033333">
<ele>215.76666666666665</ele>
<time>2011-10-29T06:25:06Z</time>
</trkpt>
<trkpt lat="32.7261791475" lon="35.2338457825">
<ele>216.175</ele>
<time>2011-10-29T06:25:10Z</time>
</trkpt>
<trkpt lat="32.726237635" lon="35.2337057875">
<ele>215.475</ele>
<time>2011-10-29T06:25:14Z</time>
</trkpt>
<trkpt lat="32.7262121633333" lon="35.2335233433333">
<ele>214.5666666666667</ele>
<time>2011-10-29T06:25:17Z</time>
</trkpt>
<trkpt lat="32.7261460875" lon="35.23329844">
<ele>213.275</ele>
<time>2011-10-29T06:25:21Z</time>
</trkpt>
<trkpt lat="32.726095355" lon="35.2331173675">
<ele>211.875</ele>
<time>2011-10-29T06:25:25Z</time>
</trkpt>
<trkpt lat="32.7260827866667" lon="35.2330669566667">
<ele>210.53333333333333</ele>
<time>2011-10-29T06:25:28Z</time>
</trkpt>
<trkpt lat="32.72607898" lon="35.2330593275">
<ele>211.025</ele>
<time>2011-10-29T06:25:32Z</time>
</trkpt>
<trkpt lat="32.7260718166667" lon="35.2330604333333">
<ele>211.29999999999998</ele>
<time>2011-10-29T06:25:35Z</time>
</trkpt>
<trkpt lat="32.7260735033333" lon="35.2330546566667">
<ele>211.4333333333333</ele>
<time>2011-10-29T06:25:38Z</time>
</trkpt>
<trkpt lat="32.7260785875" lon="35.233046225">
<ele>211.975</ele>
<time>2011-10-29T06:25:42Z</time>
</trkpt>
<trkpt lat="32.7260785833333" lon="35.2330402233333">
<ele>211.96666666666667</ele>
<time>2011-10-29T06:25:45Z</time>
</trkpt>
<trkpt lat="32.726077785" lon="35.2330376375">
<ele>211.575</ele>
<time>2011-10-29T06:25:49Z</time>
</trkpt>
<trkpt lat="32.7260755525" lon="35.23304021">
<ele>211.5</ele>
<time>2011-10-29T06:25:53Z</time>
</trkpt>
<trkpt lat="32.7260747575" lon="35.2330365025">
<ele>210.85000000000002</ele>
<time>2011-10-29T06:25:57Z</time>
</trkpt>
<trkpt lat="32.72607049" lon="35.2330295333333">
<ele>211.13333333333333</ele>
<time>2011-10-29T06:26:00Z</time>
</trkpt>
<trkpt lat="32.7260648775" lon="35.23302346">
<ele>210.77499999999998</ele>
<time>2011-10-29T06:26:04Z</time>
</trkpt>
<trkpt lat="32.7260664233333" lon="35.23302196">
<ele>210.5666666666667</ele>
<time>2011-10-29T06:26:07Z</time>
</trkpt>
<trkpt lat="32.7260680266667" lon="35.2330167">
<ele>211.6</ele>
<time>2011-10-29T06:26:10Z</time>
</trkpt>
<trkpt lat="32.7260707575" lon="35.23301602">
<ele>211.675</ele>
<time>2011-10-29T06:26:14Z</time>
</trkpt>
<trkpt lat="32.7260704375" lon="35.23302498">
<ele>210.97500000000002</ele>
<time>2011-10-29T06:26:18Z</time>
</trkpt>
<trkpt lat="32.726074545" lon="35.233029635">
<ele>210.925</ele>
<time>2011-10-29T06:26:22Z</time>
</trkpt>
<trkpt lat="32.7260744266667" lon="35.2330336266667">
<ele>210.70000000000002</ele>
<time>2011-10-29T06:26:25Z</time>
</trkpt>
<trkpt lat="32.72606879" lon="35.233035095">
<ele>210.525</ele>
<time>2011-10-29T06:26:29Z</time>
</trkpt>
<trkpt lat="32.7260656375" lon="35.233036715">
<ele>210.67499999999998</ele>
<time>2011-10-29T06:26:33Z</time>
</trkpt>
<trkpt lat="32.726058985" lon="35.2330286675">
<ele>209.72500000000002</ele>
<time>2011-10-29T06:26:37Z</time>
</trkpt>
<trkpt lat="32.7260593866667" lon="35.2330321366667">
<ele>209.83333333333334</ele>
<time>2011-10-29T06:26:40Z</time>
</trkpt>
<trkpt lat="32.72605551" lon="35.2330283633333">
<ele>209.53333333333333</ele>
<time>2011-10-29T06:26:43Z</time>
</trkpt>
<trkpt lat="32.726051925" lon="35.23302628">
<ele>209.25</ele>
<time>2011-10-29T06:26:47Z</time>
</trkpt>
<trkpt lat="32.7260524866667" lon="35.2330258566667">
<ele>209.30000000000004</ele>
<time>2011-10-29T06:26:50Z</time>
</trkpt>
<trkpt lat="32.72605248" lon="35.2330258233333">
<ele>209.30000000000004</ele>
<time>2011-10-29T06:26:53Z</time>
</trkpt>
<trkpt lat="32.726052505" lon="35.2330258425">
<ele>209.3</ele>
<time>2011-10-29T06:26:57Z</time>
</trkpt>
<trkpt lat="32.7260525175" lon="35.2330258025">
<ele>209.3</ele>
<time>2011-10-29T06:27:01Z</time>
</trkpt>
<trkpt lat="32.7260524366667" lon="35.23302563">
<ele>209.30000000000004</ele>
<time>2011-10-29T06:27:04Z</time>
</trkpt>
<trkpt lat="32.7260524675" lon="35.2330257325">
<ele>209.3</ele>
<time>2011-10-29T06:27:08Z</time>
</trkpt>
<trkpt lat="32.7260525066667" lon="35.23302583">
<ele>209.30000000000004</ele>
<time>2011-10-29T06:27:11Z</time>
</trkpt>
<trkpt lat="32.72605255" lon="35.23302587">
<ele>209.30000000000004</ele>
<time>2011-10-29T06:27:14Z</time>
</trkpt>
<trkpt lat="32.726052505" lon="35.233025945">
<ele>209.4</ele>
<time>2011-10-29T06:27:18Z</time>
</trkpt>
<trkpt lat="32.72605249" lon="35.2330260375">
<ele>209.4</ele>
<time>2011-10-29T06:27:22Z</time>
</trkpt>
<trkpt lat="32.7260525075" lon="35.2330261275">
<ele>209.4</ele>
<time>2011-10-29T06:27:26Z</time>
</trkpt>
<trkpt lat="32.7260525766667" lon="35.23302635">
<ele>209.4</ele>
<time>2011-10-29T06:27:29Z</time>
</trkpt>
<trkpt lat="32.7260526675" lon="35.2330264025">
<ele>209.4</ele>
<time>2011-10-29T06:27:33Z</time>
</trkpt>
<trkpt lat="32.72605254" lon="35.23302651">
<ele>209.4</ele>
<time>2011-10-29T06:27:36Z</time>
</trkpt>
<trkpt lat="32.7260521833333" lon="35.2330273933333">
<ele>211.39999999999998</ele>
<time>2011-10-29T06:27:39Z</time>
</trkpt>
<trkpt lat="32.7260444275" lon="35.23301563">
<ele>213.17499999999998</ele>
<time>2011-10-29T06:27:43Z</time>
</trkpt>
<trkpt lat="32.7260424733333" lon="35.2330102033333">
<ele>213.83333333333334</ele>
<time>2011-10-29T06:27:46Z</time>
</trkpt>
<trkpt lat="32.7260412466667" lon="35.2330079766667">
<ele>214.4</ele>
<time>2011-10-29T06:27:49Z</time>
</trkpt>
<trkpt lat="32.7260421" lon="35.233008755">
<ele>214.325</ele>
<time>2011-10-29T06:27:53Z</time>
</trkpt>
<trkpt lat="32.726042525" lon="35.2330089525">
<ele>214.3</ele>
<time>2011-10-29T06:27:57Z</time>
</trkpt>
<trkpt lat="32.7260429033333" lon="35.2330092633333">
<ele>214.30000000000004</ele>
<time>2011-10-29T06:28:00Z</time>
</trkpt>
<trkpt lat="32.7260429533333" lon="35.2330093733333">
<ele>214.4</ele>
<time>2011-10-29T06:28:03Z</time>
</trkpt>
<trkpt lat="32.72604292" lon="35.233009475">
<ele>214.4</ele>
<time>2011-10-29T06:28:07Z</time>
</trkpt>
<trkpt lat="32.7260427125" lon="35.2330105875">
<ele>214.64999999999998</ele>
<time>2011-10-29T06:28:11Z</time>
</trkpt>
<trkpt lat="32.7260531733333" lon="35.2330229633333">
<ele>215.5666666666667</ele>
<time>2011-10-29T06:28:14Z</time>
</trkpt>
<trkpt lat="32.726064065" lon="35.2330350375">
<ele>215.25</ele>
<time>2011-10-29T06:28:18Z</time>
</trkpt>
<trkpt lat="32.72606361" lon="35.2330382133333">
<ele>214.73333333333335</ele>
<time>2011-10-29T06:28:21Z</time>
</trkpt>
<trkpt lat="32.72606335" lon="35.23303825">
<ele>214.69999999999996</ele>
<time>2011-10-29T06:28:24Z</time>
</trkpt>
<trkpt lat="32.726063235" lon="35.2330382825">
<ele>214.7</ele>
<time>2011-10-29T06:28:28Z</time>
</trkpt>
<trkpt lat="32.7260627033333" lon="35.2330375733333">
<ele>214.69999999999996</ele>
<time>2011-10-29T06:28:31Z</time>
</trkpt>
<trkpt lat="32.72605992" lon="35.2330257733333">
<ele>213.5666666666667</ele>
<time>2011-10-29T06:28:34Z</time>
</trkpt>
<trkpt lat="32.72605609" lon="35.233017885">
<ele>212.77500000000003</ele>
<time>2011-10-29T06:28:38Z</time>
</trkpt>
<trkpt lat="32.72604647" lon="35.2330087925">
<ele>212.60000000000002</ele>
<time>2011-10-29T06:28:42Z</time>
</trkpt>
<trkpt lat="32.72604557" lon="35.2330088633333">
<ele>212.80000000000004</ele>
<time>2011-10-29T06:28:45Z</time>
</trkpt>
<trkpt lat="32.7260452" lon="35.2330080275">
<ele>212.77500000000003</ele>
<time>2011-10-29T06:28:49Z</time>
</trkpt>
<trkpt lat="32.726046305" lon="35.233006905">
<ele>212.45</ele>
<time>2011-10-29T06:28:53Z</time>
</trkpt>
<trkpt lat="32.726052635" lon="35.2330014825">
<ele>211.5</ele>
<time>2011-10-29T06:28:57Z</time>
</trkpt>
<trkpt lat="32.7260488425" lon="35.232993795">
<ele>211.375</ele>
<time>2011-10-29T06:29:01Z</time>
</trkpt>
<trkpt lat="32.7260453233333" lon="35.2329933066667">
<ele>211.13333333333333</ele>
<time>2011-10-29T06:29:04Z</time>
</trkpt>
<trkpt lat="32.726044005" lon="35.2329892225">
<ele>210.77499999999998</ele>
<time>2011-10-29T06:29:08Z</time>
</trkpt>
<trkpt lat="32.7260516775" lon="35.232987725">
<ele>210.60000000000002</ele>
<time>2011-10-29T06:29:12Z</time>
</trkpt>
<trkpt lat="32.7260504033333" lon="35.2329875266667">
<ele>210.0666666666667</ele>
<time>2011-10-29T06:29:15Z</time>
</trkpt>
<trkpt lat="32.7260470533333" lon="35.2329859066667">
<ele>210.36666666666665</ele>
<time>2011-10-29T06:29:18Z</time>
</trkpt>
<trkpt lat="32.7260551025" lon="35.232945745">
<ele>210.72500000000002</ele>
<time>2011-10-29T06:29:22Z</time>
</trkpt>
<trkpt lat="32.7260412533333" lon="35.2328785266667">
<ele>206.83333333333334</ele>
<time>2011-10-29T06:29:25Z</time>
</trkpt>
<trkpt lat="32.72599108" lon="35.2327957633333">
<ele>206.4333333333333</ele>
<time>2011-10-29T06:29:28Z</time>
</trkpt>
<trkpt lat="32.7259523566667" lon="35.2327079233333">
<ele>205.9</ele>
<time>2011-10-29T06:29:31Z</time>
</trkpt>
<trkpt lat="32.7259110366667" lon="35.23262428">
<ele>205.9333333333333</ele>
<time>2011-10-29T06:29:34Z</time>
</trkpt>
<trkpt lat="32.725852415" lon="35.23256763">
<ele>205.1</ele>
<time>2011-10-29T06:29:38Z</time>
</trkpt>
<trkpt lat="32.72577253" lon="35.2326111125">
<ele>203.79999999999998</ele>
<time>2011-10-29T06:29:42Z</time>
</trkpt>
<trkpt lat="32.7256982566667" lon="35.23269262">
<ele>202.86666666666665</ele>
<time>2011-10-29T06:29:45Z</time>
</trkpt>
<trkpt lat="32.7256364775" lon="35.2327771975">
<ele>202.17499999999998</ele>
<time>2011-10-29T06:29:49Z</time>
</trkpt>
<trkpt lat="32.72556406" lon="35.23288052">
<ele>201.64999999999998</ele>
<time>2011-10-29T06:29:53Z</time>
</trkpt>
<trkpt lat="32.7254990933333" lon="35.2329686">
<ele>201.6</ele>
<time>2011-10-29T06:29:56Z</time>
</trkpt>
<trkpt lat="32.7254487066667" lon="35.2330398733333">
<ele>201.4333333333333</ele>
<time>2011-10-29T06:29:59Z</time>
</trkpt>
<trkpt lat="32.7253875625" lon="35.2331234625">
<ele>201.17499999999998</ele>
<time>2011-10-29T06:30:03Z</time>
</trkpt>
<trkpt lat="32.7253162933333" lon="35.2332012233333">
<ele>200.80000000000004</ele>
<time>2011-10-29T06:30:06Z</time>
</trkpt>
<trkpt lat="32.72525218" lon="35.2332520866667">
<ele>200.86666666666667</ele>
<time>2011-10-29T06:30:09Z</time>
</trkpt>
<trkpt lat="32.7251911833333" lon="35.2332970566667">
<ele>200.9</ele>
<time>2011-10-29T06:30:12Z</time>
</trkpt>
<trkpt lat="32.7251207225" lon="35.23334649">
<ele>200.975</ele>
<time>2011-10-29T06:30:16Z</time>
</trkpt>
<trkpt lat="32.7250482533333" lon="35.2333911133333">
<ele>200.96666666666667</ele>
<time>2011-10-29T06:30:19Z</time>
</trkpt>
<trkpt lat="32.72497219" lon="35.23343715">
<ele>200.925</ele>
<time>2011-10-29T06:30:23Z</time>
</trkpt>
<trkpt lat="32.7248841125" lon="35.23349076">
<ele>201.375</ele>
<time>2011-10-29T06:30:27Z</time>
</trkpt>
<trkpt lat="32.7248141" lon="35.2335347533333">
<ele>201.69999999999996</ele>
<time>2011-10-29T06:30:30Z</time>
</trkpt>
<trkpt lat="32.72475841" lon="35.2335736833333">
<ele>202.0666666666667</ele>
<time>2011-10-29T06:30:33Z</time>
</trkpt>
<trkpt lat="32.7247015333333" lon="35.23362113">
<ele>202.03333333333333</ele>
<time>2011-10-29T06:30:36Z</time>
</trkpt>
<trkpt lat="32.7246372325" lon="35.233684225">
<ele>201.975</ele>
<time>2011-10-29T06:30:40Z</time>
</trkpt>
<trkpt lat="32.724566915" lon="35.23375939">
<ele>202.225</ele>
<time>2011-10-29T06:30:44Z</time>
</trkpt>
<trkpt lat="32.724502185" lon="35.233828475">
<ele>202.525</ele>
<time>2011-10-29T06:30:48Z</time>
</trkpt>
<trkpt lat="32.72444647" lon="35.23389489">
<ele>202.46666666666667</ele>
<time>2011-10-29T06:30:51Z</time>
</trkpt>
<trkpt lat="32.72440193" lon="35.2339508833333">
<ele>202.46666666666667</ele>
<time>2011-10-29T06:30:54Z</time>
</trkpt>
<trkpt lat="32.7243551925" lon="35.23401303">
<ele>202.7</ele>
<time>2011-10-29T06:30:58Z</time>
</trkpt>
<trkpt lat="32.7243065575" lon="35.234094875">
<ele>203.025</ele>
<time>2011-10-29T06:31:02Z</time>
</trkpt>
<trkpt lat="32.7242640766667" lon="35.23416326">
<ele>203.19999999999996</ele>
<time>2011-10-29T06:31:05Z</time>
</trkpt>
<trkpt lat="32.7242151825" lon="35.2342336325">
<ele>203.25</ele>
<time>2011-10-29T06:31:09Z</time>
</trkpt>
<trkpt lat="32.7241639933333" lon="35.2343021366667">
<ele>203.4333333333333</ele>
<time>2011-10-29T06:31:12Z</time>
</trkpt>
<trkpt lat="32.724114905" lon="35.2343760975">
<ele>203.54999999999998</ele>
<time>2011-10-29T06:31:16Z</time>
</trkpt>
<trkpt lat="32.7240639475" lon="35.234462785">
<ele>203.77499999999998</ele>
<time>2011-10-29T06:31:20Z</time>
</trkpt>
<trkpt lat="32.7240157033333" lon="35.2345416533333">
<ele>203.79999999999998</ele>
<time>2011-10-29T06:31:23Z</time>
</trkpt>
<trkpt lat="32.7239707075" lon="35.234618185">
<ele>204.05</ele>
<time>2011-10-29T06:31:27Z</time>
</trkpt>
<trkpt lat="32.7239225133333" lon="35.23469489">
<ele>204.29999999999998</ele>
<time>2011-10-29T06:31:30Z</time>
</trkpt>
<trkpt lat="32.7238749925" lon="35.2347736">
<ele>204.525</ele>
<time>2011-10-29T06:31:34Z</time>
</trkpt>
<trkpt lat="32.7238173775" lon="35.2348591775">
<ele>204.325</ele>
<time>2011-10-29T06:31:38Z</time>
</trkpt>
<trkpt lat="32.7237694133333" lon="35.2349299033333">
<ele>204.26666666666665</ele>
<time>2011-10-29T06:31:41Z</time>
</trkpt>
<trkpt lat="32.7237288966667" lon="35.2349938866667">
<ele>204.26666666666665</ele>
<time>2011-10-29T06:31:44Z</time>
</trkpt>
<trkpt lat="32.7236827925" lon="35.23507053">
<ele>204.5</ele>
<time>2011-10-29T06:31:48Z</time>
</trkpt>
<trkpt lat="32.72363787" lon="35.23514784">
<ele>204.96666666666667</ele>
<time>2011-10-29T06:31:51Z</time>
</trkpt>
<trkpt lat="32.7235965066667" lon="35.2352130766667">
<ele>205.0666666666667</ele>
<time>2011-10-29T06:31:54Z</time>
</trkpt>
<trkpt lat="32.7235516125" lon="35.23529188">
<ele>205.27499999999998</ele>
<time>2011-10-29T06:31:58Z</time>
</trkpt>
<trkpt lat="32.7234930625" lon="35.2353787025">
<ele>205.57500000000002</ele>
<time>2011-10-29T06:32:02Z</time>
</trkpt>
<trkpt lat="32.72343936" lon="35.2354633225">
<ele>205.925</ele>
<time>2011-10-29T06:32:06Z</time>
</trkpt>
<trkpt lat="32.723391075" lon="35.2355437025">
<ele>206.45000000000002</ele>
<time>2011-10-29T06:32:10Z</time>
</trkpt>
<trkpt lat="32.7233459933333" lon="35.2356119366667">
<ele>206.76666666666665</ele>
<time>2011-10-29T06:32:13Z</time>
</trkpt>
<trkpt lat="32.723301875" lon="35.2356751075">
<ele>206.77500000000003</ele>
<time>2011-10-29T06:32:17Z</time>
</trkpt>
<trkpt lat="32.7232451675" lon="35.2357454075">
<ele>206.70000000000002</ele>
<time>2011-10-29T06:32:21Z</time>
</trkpt>
<trkpt lat="32.72319126" lon="35.2358047966667">
<ele>206.83333333333334</ele>
<time>2011-10-29T06:32:24Z</time>
</trkpt>
<trkpt lat="32.723123005" lon="35.2358670825">
<ele>207.2</ele>
<time>2011-10-29T06:32:28Z</time>
</trkpt>
<trkpt lat="32.72305295" lon="35.2359306766667">
<ele>207.33333333333334</ele>
<time>2011-10-29T06:32:31Z</time>
</trkpt>
<trkpt lat="32.7229954333333" lon="35.23598829">
<ele>207.4333333333333</ele>
<time>2011-10-29T06:32:34Z</time>
</trkpt>
<trkpt lat="32.7229337875" lon="35.236060425">
<ele>207.625</ele>
<time>2011-10-29T06:32:38Z</time>
</trkpt>
<trkpt lat="32.722865865" lon="35.23613571">
<ele>207.75</ele>
<time>2011-10-29T06:32:42Z</time>
</trkpt>
<trkpt lat="32.72279041" lon="35.23621389">
<ele>207.9</ele>
<time>2011-10-29T06:32:46Z</time>
</trkpt>
<trkpt lat="32.7227159575" lon="35.23629137">
<ele>208.14999999999998</ele>
<time>2011-10-29T06:32:50Z</time>
</trkpt>
<trkpt lat="32.7226437225" lon="35.2363684875">
<ele>208.175</ele>
<time>2011-10-29T06:32:54Z</time>
</trkpt>
<trkpt lat="32.7225791025" lon="35.2364526">
<ele>208.275</ele>
<time>2011-10-29T06:32:58Z</time>
</trkpt>
<trkpt lat="32.7225244975" lon="35.23653462">
<ele>208.64999999999998</ele>
<time>2011-10-29T06:33:02Z</time>
</trkpt>
<trkpt lat="32.7224739" lon="35.2366068033333">
<ele>208.66666666666666</ele>
<time>2011-10-29T06:33:05Z</time>
</trkpt>
<trkpt lat="32.722422455" lon="35.23668296">
<ele>208.77499999999998</ele>
<time>2011-10-29T06:33:09Z</time>
</trkpt>
<trkpt lat="32.7223676266667" lon="35.23675671">
<ele>208.9333333333333</ele>
<time>2011-10-29T06:33:12Z</time>
</trkpt>
<trkpt lat="32.7223201825" lon="35.236833255">
<ele>209.07500000000002</ele>
<time>2011-10-29T06:33:16Z</time>
</trkpt>
<trkpt lat="32.72226538" lon="35.236922915">
<ele>209.15</ele>
<time>2011-10-29T06:33:20Z</time>
</trkpt>
<trkpt lat="32.722208085" lon="35.2370134575">
<ele>209.3</ele>
<time>2011-10-29T06:33:24Z</time>
</trkpt>
<trkpt lat="32.7221534925" lon="35.2371027825">
<ele>209.675</ele>
<time>2011-10-29T06:33:28Z</time>
</trkpt>
<trkpt lat="32.7220990825" lon="35.23719465">
<ele>209.85</ele>
<time>2011-10-29T06:33:32Z</time>
</trkpt>
<trkpt lat="32.7220394325" lon="35.237288495">
<ele>210.125</ele>
<time>2011-10-29T06:33:36Z</time>
</trkpt>
<trkpt lat="32.7219739675" lon="35.2373701575">
<ele>210.39999999999998</ele>
<time>2011-10-29T06:33:40Z</time>
</trkpt>
<trkpt lat="32.7219088166667" lon="35.23745101">
<ele>210.4333333333333</ele>
<time>2011-10-29T06:33:43Z</time>
</trkpt>
<trkpt lat="32.7218493433333" lon="35.2375169633333">
<ele>210.66666666666666</ele>
<time>2011-10-29T06:33:46Z</time>
</trkpt>
<trkpt lat="32.72178945" lon="35.237593965">
<ele>211.0</ele>
<time>2011-10-29T06:33:50Z</time>
</trkpt>
<trkpt lat="32.7217348166667" lon="35.2376687033333">
<ele>211.26666666666665</ele>
<time>2011-10-29T06:33:53Z</time>
</trkpt>
<trkpt lat="32.7216861633333" lon="35.2377341766667">
<ele>211.5</ele>
<time>2011-10-29T06:33:56Z</time>
</trkpt>
<trkpt lat="32.721626485" lon="35.2378089025">
<ele>211.7</ele>
<time>2011-10-29T06:34:00Z</time>
</trkpt>
<trkpt lat="32.7215653433333" lon="35.23788063">
<ele>211.83333333333334</ele>
<time>2011-10-29T06:34:03Z</time>
</trkpt>
<trkpt lat="32.7215152166667" lon="35.2379365433333">
<ele>212.03333333333333</ele>
<time>2011-10-29T06:34:06Z</time>
</trkpt>
<trkpt lat="32.7214572225" lon="35.23799944">
<ele>212.375</ele>
<time>2011-10-29T06:34:10Z</time>
</trkpt>
<trkpt lat="32.7213907575" lon="35.238074525">
<ele>212.74999999999997</ele>
<time>2011-10-29T06:34:14Z</time>
</trkpt>
<trkpt lat="32.7213233775" lon="35.2381452725">
<ele>213.225</ele>
<time>2011-10-29T06:34:18Z</time>
</trkpt>
<trkpt lat="32.72125721" lon="35.2382145525">
<ele>213.64999999999998</ele>
<time>2011-10-29T06:34:22Z</time>
</trkpt>
<trkpt lat="32.72119142" lon="35.2382863175">
<ele>214.0</ele>
<time>2011-10-29T06:34:26Z</time>
</trkpt>
<trkpt lat="32.7211247325" lon="35.238362145">
<ele>214.25</ele>
<time>2011-10-29T06:34:30Z</time>
</trkpt>
<trkpt lat="32.721055285" lon="35.2384377825">
<ele>214.52499999999998</ele>
<time>2011-10-29T06:34:34Z</time>
</trkpt>
<trkpt lat="32.72098244" lon="35.2385160675">
<ele>214.79999999999998</ele>
<time>2011-10-29T06:34:38Z</time>
</trkpt>
<trkpt lat="32.7209197833333" lon="35.2385844833333">
<ele>215.03333333333333</ele>
<time>2011-10-29T06:34:41Z</time>
</trkpt>
<trkpt lat="32.7208663866667" lon="35.2386441833333">
<ele>215.36666666666667</ele>
<time>2011-10-29T06:34:44Z</time>
</trkpt>
<trkpt lat="32.720804695" lon="35.238712435">
<ele>215.375</ele>
<time>2011-10-29T06:34:48Z</time>
</trkpt>
<trkpt lat="32.7207416433333" lon="35.23878315">
<ele>215.63333333333333</ele>
<time>2011-10-29T06:34:51Z</time>
</trkpt>
<trkpt lat="32.7206774" lon="35.23885121">
<ele>215.8</ele>
<time>2011-10-29T06:34:55Z</time>
</trkpt>
<trkpt lat="32.72061427" lon="35.2389215766667">
<ele>216.13333333333333</ele>
<time>2011-10-29T06:34:58Z</time>
</trkpt>
<trkpt lat="32.720550395" lon="35.23899312">
<ele>216.325</ele>
<time>2011-10-29T06:35:02Z</time>
</trkpt>
<trkpt lat="32.720477645" lon="35.239070675">
<ele>216.55</ele>
<time>2011-10-29T06:35:06Z</time>
</trkpt>
<trkpt lat="32.720406085" lon="35.239142785">
<ele>216.975</ele>
<time>2011-10-29T06:35:10Z</time>
</trkpt>
<trkpt lat="32.7203429133333" lon="35.23920761">
<ele>217.26666666666665</ele>
<time>2011-10-29T06:35:13Z</time>
</trkpt>
<trkpt lat="32.7202830425" lon="35.239273825">
<ele>217.35</ele>
<time>2011-10-29T06:35:17Z</time>
</trkpt>
<trkpt lat="32.720220855" lon="35.23934775">
<ele>218.09999999999997</ele>
<time>2011-10-29T06:35:21Z</time>
</trkpt>
<trkpt lat="32.72016189" lon="35.2394267433333">
<ele>218.70000000000002</ele>
<time>2011-10-29T06:35:24Z</time>
</trkpt>
<trkpt lat="32.7200982675" lon="35.239487185">
<ele>220.775</ele>
<time>2011-10-29T06:35:28Z</time>
</trkpt>
<trkpt lat="32.7200178766667" lon="35.23952448">
<ele>220.79999999999998</ele>
<time>2011-10-29T06:35:31Z</time>
</trkpt>
<trkpt lat="32.7199412866667" lon="35.23955732">
<ele>220.66666666666666</ele>
<time>2011-10-29T06:35:34Z</time>
</trkpt>
<trkpt lat="32.7198675975" lon="35.23960474">
<ele>221.85</ele>
<time>2011-10-29T06:35:38Z</time>
</trkpt>
<trkpt lat="32.719779385" lon="35.2396642625">
<ele>221.65</ele>
<time>2011-10-29T06:35:42Z</time>
</trkpt>
<trkpt lat="32.719684625" lon="35.23970193">
<ele>221.8</ele>
<time>2011-10-29T06:35:46Z</time>
</trkpt>
<trkpt lat="32.7195691675" lon="35.2397217">
<ele>221.72500000000002</ele>
<time>2011-10-29T06:35:50Z</time>
</trkpt>
<trkpt lat="32.7194829933333" lon="35.2397513266667">
<ele>221.63333333333333</ele>
<time>2011-10-29T06:35:53Z</time>
</trkpt>
<trkpt lat="32.719408235" lon="35.2397944225">
<ele>221.29999999999998</ele>
<time>2011-10-29T06:35:57Z</time>
</trkpt>
<trkpt lat="32.7193307125" lon="35.23985452">
<ele>221.5</ele>
<time>2011-10-29T06:36:01Z</time>
</trkpt>
<trkpt lat="32.71926276" lon="35.2399126633333">
<ele>221.5</ele>
<time>2011-10-29T06:36:04Z</time>
</trkpt>
<trkpt lat="32.71919636" lon="35.239972975">
<ele>221.425</ele>
<time>2011-10-29T06:36:08Z</time>
</trkpt>
<trkpt lat="32.7191211925" lon="35.2400379075">
<ele>221.75</ele>
<time>2011-10-29T06:36:12Z</time>
</trkpt>
<trkpt lat="32.7190449775" lon="35.2401064975">
<ele>222.0</ele>
<time>2011-10-29T06:36:16Z</time>
</trkpt>
<trkpt lat="32.718969145" lon="35.2401753825">
<ele>222.2</ele>
<time>2011-10-29T06:36:20Z</time>
</trkpt>
<trkpt lat="32.7189038666667" lon="35.2402346966667">
<ele>222.33333333333334</ele>
<time>2011-10-29T06:36:23Z</time>
</trkpt>
<trkpt lat="32.7188376275" lon="35.240293695">
<ele>222.5</ele>
<time>2011-10-29T06:36:27Z</time>
</trkpt>
<trkpt lat="32.718763155" lon="35.24036215">
<ele>222.64999999999998</ele>
<time>2011-10-29T06:36:31Z</time>
</trkpt>
<trkpt lat="32.7186973866667" lon="35.2404225666667">
<ele>223.0</ele>
<time>2011-10-29T06:36:34Z</time>
</trkpt>
<trkpt lat="32.718631135" lon="35.2404850575">
<ele>223.125</ele>
<time>2011-10-29T06:36:38Z</time>
</trkpt>
<trkpt lat="32.7185642733333" lon="35.24054649">
<ele>223.29999999999998</ele>
<time>2011-10-29T06:36:41Z</time>
</trkpt>
<trkpt lat="32.7185095866667" lon="35.2405952066667">
<ele>223.4</ele>
<time>2011-10-29T06:36:44Z</time>
</trkpt>
<trkpt lat="32.7184485225" lon="35.240650665">
<ele>223.72500000000002</ele>
<time>2011-10-29T06:36:48Z</time>
</trkpt>
<trkpt lat="32.71836976" lon="35.24071284">
<ele>223.6</ele>
<time>2011-10-29T06:36:52Z</time>
</trkpt>
<trkpt lat="32.7182956066667" lon="35.2407675033333">
<ele>223.6</ele>
<time>2011-10-29T06:36:55Z</time>
</trkpt>
<trkpt lat="32.7182328133333" lon="35.2408154166667">
<ele>223.76666666666665</ele>
<time>2011-10-29T06:36:58Z</time>
</trkpt>
<trkpt lat="32.7181574425" lon="35.2408613375">
<ele>223.875</ele>
<time>2011-10-29T06:37:02Z</time>
</trkpt>
<trkpt lat="32.7180741975" lon="35.2409049825">
<ele>224.14999999999998</ele>
<time>2011-10-29T06:37:06Z</time>
</trkpt>
<trkpt lat="32.71798779" lon="35.2409528875">
<ele>224.27499999999998</ele>
<time>2011-10-29T06:37:10Z</time>
</trkpt>
<trkpt lat="32.71790681" lon="35.24099438">
<ele>224.5</ele>
<time>2011-10-29T06:37:13Z</time>
</trkpt>
<trkpt lat="32.71782459" lon="35.2410282375">
<ele>224.95000000000002</ele>
<time>2011-10-29T06:37:17Z</time>
</trkpt>
<trkpt lat="32.7177476333333" lon="35.2410692366667">
<ele>225.26666666666665</ele>
<time>2011-10-29T06:37:20Z</time>
</trkpt>
<trkpt lat="32.7176773125" lon="35.241122785">
<ele>225.5</ele>
<time>2011-10-29T06:37:24Z</time>
</trkpt>
<trkpt lat="32.71760398" lon="35.24119355">
<ele>225.85000000000002</ele>
<time>2011-10-29T06:37:28Z</time>
</trkpt>
<trkpt lat="32.717583635" lon="35.2412678425">
<ele>226.375</ele>
<time>2011-10-29T06:37:32Z</time>
</trkpt>
<trkpt lat="32.717602895" lon="35.2413560025">
<ele>226.625</ele>
<time>2011-10-29T06:37:36Z</time>
</trkpt>
<trkpt lat="32.7176248525" lon="35.2414548">
<ele>227.075</ele>
<time>2011-10-29T06:37:40Z</time>
</trkpt>
<trkpt lat="32.7176496425" lon="35.2415561375">
<ele>227.825</ele>
<time>2011-10-29T06:37:44Z</time>
</trkpt>
<trkpt lat="32.7176628375" lon="35.2416680975">
<ele>229.625</ele>
<time>2011-10-29T06:37:48Z</time>
</trkpt>
<trkpt lat="32.7176529875" lon="35.2417427">
<ele>230.65</ele>
<time>2011-10-29T06:37:52Z</time>
</trkpt>
<trkpt lat="32.7176439933333" lon="35.24180253">
<ele>231.1</ele>
<time>2011-10-29T06:37:55Z</time>
</trkpt>
<trkpt lat="32.7176785225" lon="35.24183131">
<ele>231.72500000000002</ele>
<time>2011-10-29T06:37:59Z</time>
</trkpt>
<trkpt lat="32.71772907" lon="35.2418249266667">
<ele>231.83333333333334</ele>
<time>2011-10-29T06:38:02Z</time>
</trkpt>
<trkpt lat="32.71778314" lon="35.2418213175">
<ele>232.35</ele>
<time>2011-10-29T06:38:06Z</time>
</trkpt>
<trkpt lat="32.7178362425" lon="35.2418273875">
<ele>232.95</ele>
<time>2011-10-29T06:38:10Z</time>
</trkpt>
<trkpt lat="32.7178860925" lon="35.2418312175">
<ele>233.375</ele>
<time>2011-10-29T06:38:14Z</time>
</trkpt>
<trkpt lat="32.717931385" lon="35.241868585">
<ele>233.95000000000002</ele>
<time>2011-10-29T06:38:18Z</time>
</trkpt>
<trkpt lat="32.7179508966667" lon="35.2419194833333">
<ele>235.33333333333334</ele>
<time>2011-10-29T06:38:21Z</time>
</trkpt>
<trkpt lat="32.7179676433333" lon="35.2419542766667">
<ele>235.9666666666667</ele>
<time>2011-10-29T06:38:24Z</time>
</trkpt>
<trkpt lat="32.7179943175" lon="35.242013185">
<ele>237.02499999999998</ele>
<time>2011-10-29T06:38:28Z</time>
</trkpt>
<trkpt lat="32.7180121566667" lon="35.2420581966667">
<ele>238.23333333333335</ele>
<time>2011-10-29T06:38:31Z</time>
</trkpt>
<trkpt lat="32.7180317566667" lon="35.2420918033333">
<ele>238.83333333333334</ele>
<time>2011-10-29T06:38:34Z</time>
</trkpt>
<trkpt lat="32.7180732825" lon="35.242128145">
<ele>239.7</ele>
<time>2011-10-29T06:38:38Z</time>
</trkpt>
<trkpt lat="32.71811535" lon="35.2421688733333">
<ele>240.5666666666667</ele>
<time>2011-10-29T06:38:41Z</time>
</trkpt>
<trkpt lat="32.718151865" lon="35.2422235725">
<ele>241.6</ele>
<time>2011-10-29T06:38:45Z</time>
</trkpt>
<trkpt lat="32.71818213" lon="35.24225311">
<ele>242.63333333333335</ele>
<time>2011-10-29T06:38:48Z</time>
</trkpt>
<trkpt lat="32.7182271425" lon="35.242220545">
<ele>242.75000000000003</ele>
<time>2011-10-29T06:38:52Z</time>
</trkpt>
<trkpt lat="32.71828918" lon="35.2421817225">
<ele>242.925</ele>
<time>2011-10-29T06:38:56Z</time>
</trkpt>
<trkpt lat="32.7183532925" lon="35.2421707675">
<ele>243.4</ele>
<time>2011-10-29T06:39:00Z</time>
</trkpt>
<trkpt lat="32.7184079433333" lon="35.2421885533333">
<ele>244.0</ele>
<time>2011-10-29T06:39:03Z</time>
</trkpt>
<trkpt lat="32.71844689" lon="35.2422312675">
<ele>244.7</ele>
<time>2011-10-29T06:39:07Z</time>
</trkpt>
<trkpt lat="32.718476595" lon="35.2422862575">
<ele>245.5</ele>
<time>2011-10-29T06:39:11Z</time>
</trkpt>
<trkpt lat="32.7185009666667" lon="35.2423343766667">
<ele>246.36666666666667</ele>
<time>2011-10-29T06:39:14Z</time>
</trkpt>
<trkpt lat="32.7185223825" lon="35.24238263">
<ele>247.12500000000003</ele>
<time>2011-10-29T06:39:18Z</time>
</trkpt>
<trkpt lat="32.71854118" lon="35.2424320366667">
<ele>248.0666666666667</ele>
<time>2011-10-29T06:39:21Z</time>
</trkpt>
<trkpt lat="32.7185602" lon="35.24246593">
<ele>248.9333333333333</ele>
<time>2011-10-29T06:39:24Z</time>
</trkpt>
<trkpt lat="32.7185793525" lon="35.242499065">
<ele>249.35000000000002</ele>
<time>2011-10-29T06:39:28Z</time>
</trkpt>
<trkpt lat="32.7186114733333" lon="35.24254314">
<ele>250.29999999999998</ele>
<time>2011-10-29T06:39:31Z</time>
</trkpt>
<trkpt lat="32.7186361333333" lon="35.2425813633333">
<ele>250.9666666666667</ele>
<time>2011-10-29T06:39:34Z</time>
</trkpt>
<trkpt lat="32.71866545" lon="35.24262289">
<ele>252.17499999999998</ele>
<time>2011-10-29T06:39:38Z</time>
</trkpt>
<trkpt lat="32.7186949166667" lon="35.2426345566667">
<ele>253.0333333333333</ele>
<time>2011-10-29T06:39:41Z</time>
</trkpt>
<trkpt lat="32.71872175" lon="35.2426263833333">
<ele>253.6</ele>
<time>2011-10-29T06:39:44Z</time>
</trkpt>
<trkpt lat="32.7187508725" lon="35.242610585">
<ele>254.32500000000002</ele>
<time>2011-10-29T06:39:48Z</time>
</trkpt>
<trkpt lat="32.7187775366667" lon="35.24258757">
<ele>255.0</ele>
<time>2011-10-29T06:39:51Z</time>
</trkpt>
<trkpt lat="32.7187999666667" lon="35.2425709866667">
<ele>255.29999999999998</ele>
<time>2011-10-29T06:39:54Z</time>
</trkpt>
<trkpt lat="32.7188119775" lon="35.24255426">
<ele>255.75</ele>
<time>2011-10-29T06:39:58Z</time>
</trkpt>
<trkpt lat="32.71880233" lon="35.242545295">
<ele>256.15</ele>
<time>2011-10-29T06:40:02Z</time>
</trkpt>
<trkpt lat="32.718803975" lon="35.24254315">
<ele>256.475</ele>
<time>2011-10-29T06:40:06Z</time>
</trkpt>
<trkpt lat="32.718810155" lon="35.2425454025">
<ele>256.175</ele>
<time>2011-10-29T06:40:10Z</time>
</trkpt>
<trkpt lat="32.71881658" lon="35.24254503">
<ele>255.65</ele>
<time>2011-10-29T06:40:14Z</time>
</trkpt>
<trkpt lat="32.71883745" lon="35.2425448925">
<ele>255.60000000000002</ele>
<time>2011-10-29T06:40:18Z</time>
</trkpt>
<trkpt lat="32.71885575" lon="35.24253664">
<ele>255.9</ele>
<time>2011-10-29T06:40:22Z</time>
</trkpt>
<trkpt lat="32.7188586566667" lon="35.24252847">
<ele>256.3666666666667</ele>
<time>2011-10-29T06:40:25Z</time>
</trkpt>
<trkpt lat="32.71886508" lon="35.24252442">
<ele>255.575</ele>
<time>2011-10-29T06:40:29Z</time>
</trkpt>
<trkpt lat="32.7188659066667" lon="35.24252281">
<ele>255.36666666666667</ele>
<time>2011-10-29T06:40:32Z</time>
</trkpt>
<trkpt lat="32.718868655" lon="35.242520035">
<ele>255.6</ele>
<time>2011-10-29T06:40:36Z</time>
</trkpt>
<trkpt lat="32.718866225" lon="35.2425183575">
<ele>256.025</ele>
<time>2011-10-29T06:40:40Z</time>
</trkpt>
<trkpt lat="32.7188626275" lon="35.242518615">
<ele>256.675</ele>
<time>2011-10-29T06:40:44Z</time>
</trkpt>
<trkpt lat="32.718862575" lon="35.242518335">
<ele>256.925</ele>
<time>2011-10-29T06:40:48Z</time>
</trkpt>
<trkpt lat="32.71886415" lon="35.2425170833333">
<ele>256.8</ele>
<time>2011-10-29T06:40:51Z</time>
</trkpt>
<trkpt lat="32.71886555" lon="35.24251981">
<ele>256.7</ele>
<time>2011-10-29T06:40:54Z</time>
</trkpt>
<trkpt lat="32.7188688066667" lon="35.2425222566667">
<ele>256.3</ele>
<time>2011-10-29T06:40:57Z</time>
</trkpt>
<trkpt lat="32.718869865" lon="35.24252555">
<ele>256.375</ele>
<time>2011-10-29T06:41:01Z</time>
</trkpt>
<trkpt lat="32.71887263" lon="35.2425239433333">
<ele>256.56666666666666</ele>
<time>2011-10-29T06:41:04Z</time>
</trkpt>
<trkpt lat="32.7188796075" lon="35.24252558">
<ele>257.3</ele>
<time>2011-10-29T06:41:08Z</time>
</trkpt>
<trkpt lat="32.7188817433333" lon="35.2425203233333">
<ele>257.46666666666664</ele>
<time>2011-10-29T06:41:11Z</time>
</trkpt>
<trkpt lat="32.7188756133333" lon="35.2425165833333">
<ele>257.23333333333335</ele>
<time>2011-10-29T06:41:14Z</time>
</trkpt>
<trkpt lat="32.718876605" lon="35.2425167525">
<ele>257.275</ele>
<time>2011-10-29T06:41:18Z</time>
</trkpt>
<trkpt lat="32.7188763975" lon="35.242516845">
<ele>257.3</ele>
<time>2011-10-29T06:41:22Z</time>
</trkpt>
<trkpt lat="32.718877865" lon="35.24252165">
<ele>256.4</ele>
<time>2011-10-29T06:41:26Z</time>
</trkpt>
<trkpt lat="32.7188796725" lon="35.2425214575">
<ele>255.6</ele>
<time>2011-10-29T06:41:30Z</time>
</trkpt>
<trkpt lat="32.7188796533333" lon="35.2425227666667">
<ele>255.4333333333333</ele>
<time>2011-10-29T06:41:33Z</time>
</trkpt>
<trkpt lat="32.7188802766667" lon="35.2425231966667">
<ele>255.46666666666667</ele>
<time>2011-10-29T06:41:36Z</time>
</trkpt>
<trkpt lat="32.7188804025" lon="35.24252341">
<ele>255.5</ele>
<time>2011-10-29T06:41:40Z</time>
</trkpt>
<trkpt lat="32.7188804066667" lon="35.24252338">
<ele>255.5</ele>
<time>2011-10-29T06:41:43Z</time>
</trkpt>
<trkpt lat="32.7188812233333" lon="35.24252367">
<ele>255.5</ele>
<time>2011-10-29T06:41:46Z</time>
</trkpt>
<trkpt lat="32.7188847675" lon="35.24252389">
<ele>255.6</ele>
<time>2011-10-29T06:41:50Z</time>
</trkpt>
<trkpt lat="32.7188864066667" lon="35.2425222766667">
<ele>255.36666666666665</ele>
<time>2011-10-29T06:41:53Z</time>
</trkpt>
<trkpt lat="32.71888867" lon="35.2425226475">
<ele>255.125</ele>
<time>2011-10-29T06:41:57Z</time>
</trkpt>
<trkpt lat="32.71889093" lon="35.24252434">
<ele>255.33333333333334</ele>
<time>2011-10-29T06:42:00Z</time>
</trkpt>
<trkpt lat="32.71888981" lon="35.24252434">
<ele>255.3</ele>
<time>2011-10-29T06:42:04Z</time>
</trkpt>
<trkpt lat="32.7188898075" lon="35.2425242325">
<ele>255.32500000000002</ele>
<time>2011-10-29T06:42:08Z</time>
</trkpt>
<trkpt lat="32.7188923475" lon="35.2425315475">
<ele>254.275</ele>
<time>2011-10-29T06:42:12Z</time>
</trkpt>
<trkpt lat="32.7188947433333" lon="35.2425383666667">
<ele>254.36666666666665</ele>
<time>2011-10-29T06:42:15Z</time>
</trkpt>
<trkpt lat="32.7188891775" lon="35.2425329275">
<ele>254.625</ele>
<time>2011-10-29T06:42:19Z</time>
</trkpt>
<trkpt lat="32.71888781" lon="35.24253161">
<ele>254.69999999999996</ele>
<time>2011-10-29T06:42:22Z</time>
</trkpt>
<trkpt lat="32.718887445" lon="35.24253125">
<ele>254.7</ele>
<time>2011-10-29T06:42:26Z</time>
</trkpt>
<trkpt lat="32.7188873625" lon="35.2425311725">
<ele>254.7</ele>
<time>2011-10-29T06:42:30Z</time>
</trkpt>
</trkseg>
</trk>
</gpx>
